[[{"header":{"parameterUnit":"m.s-1","parameterCategory":1,"la1":30.6,"la2":28.766,"lo1":-90.7593,"lo2":-88.6598,"dy":0.0162,"dx":0.0183,"nx":116,"ny":114,"refTime":"2024-03-23T12:00:00:Z","depth":0,"parameterNumber":2,"parameterNumberName":"U-component_of_WINDS"},"data":[0.0,0.0,0.0,0.0,0.0,0.0,0.0,0.0,0.0,0.0,0.0,0.0,0.0,0.0,0.0,0.0,0.0,0.0,0.0,0.0,0.0,0.0,0.0,0.0,0.0,0.0,0.0,0.0,0.0,0.0,0.0,0.0,0.0,0.0,0.0,0.0,0.0,0.0,0.0,0.0,0.0,0.0,0.0,0.0,0.0,0.0,0.0,0.0,0.0,0.0,0.0,0.0,0.0,0.0,0.0,0.0,0.0,0.0,0.0,0.0,0.0,0.0,0.0,0.0,0.0,0.0,0.0,0.0,0.0,0.0,0.0,0.0,0.0,0.0,0.0,0.0,0.0,0.0,0.0,0.0,0.0,0.0,0.0,0.0,0.0,0.0,0.0,0.0,0.0,0.0,0.0,0.0,0.0,0.0,0.0,0.0,0.0,0.0,0.0,0.0,0.0,0.0,0.0,0.0,0.0,0.0,0.0,0.0,0.0,0.0,0.0,0.0,0.0,0.0,0.0,0.0,0.0,0.0,0.0,0.0,0.0,0.0,0.0,0.0,0.0,0.0,0.0,0.0,0.0,0.0,0.0,0.0,0.0,0.0,0.0,0.0,0.0,0.0,0.0,0.0,0.0,0.0,0.0,0.0,0.0,0.0,0.0,0.0,0.0,0.0,0.0,0.0,0.0,0.0,0.0,0.0,0.0,0.0,0.0,0.0,0.0,0.0,0.0,0.0,0.0,0.0,0.0,0.0,0.0,0.0,0.0,0.0,0.0,0.0,0.0,0.0,0.0,0.0,0.0,0.0,0.0,0.0,0.0,0.0,0.0,0.0,0.0,0.0,0.0,0.0,0.0,0.0,0.0,0.0,0.0,0.0,0.0,0.0,0.0,0.0,0.0,0.0,0.0,0.0,0.0,0.0,0.0,0.0,0.0,0.0,0.0,0.0,0.0,0.0,0.0,0.0,0.0,0.0,0.0,0.0,0.0,0.0,0.0,0.0,0.0,0.0,0.0,0.0,0.0,0.0,0.0,0.0,0.0,0.0,0.0,0.0,0.0,0.0,0.0,0.0,0.0,0.0,0.0,0.0,0.0,0.0,0.0,0.0,0.0,0.0,0.0,0.0,0.0,0.0,0.0,0.0,0.0,0.0,0.0,0.0,0.0,0.0,0.0,0.0,0.0,0.0,0.0,0.0,0.0,0.0,0.0,0.0,0.0,0.0,0.0,0.0,0.0,0.0,0.0,0.0,0.0,0.0,0.0,0.0,0.0,0.0,0.0,0.0,0.0,0.0,0.0,0.0,0.0,0.0,0.0,0.0,0.0,0.0,0.0,0.0,0.0,0.0,0.0,0.0,0.0,0.0,0.0,0.0,0.0,0.0,0.0,0.0,0.0,0.0,0.0,0.0,0.0,0.0,0.0,0.0,0.0,0.0,0.0,0.0,0.0,0.0,0.0,0.0,0.0,0.0,0.0,0.0,0.0,0.0,0.0,0.0,0.0,0.0,0.0,0.0,0.0,0.0,0.0,0.0,0.0,0.0,0.0,0.0,0.0,0.0,0.0,0.0,0.0,0.0,0.0,0.0,0.0,0.0,0.0,0.0,0.0,0.0,0.0,0.0,0.0,0.0,0.0,0.0,0.0,0.0,0.0,0.0,0.0,0.0,0.0,0.0,0.0,0.0,0.0,0.0,0.0,0.0,0.0,0.0,0.0,0.0,0.0,0.0,0.0,0.0,0.0,0.0,0.0,0.0,0.0,0.0,0.0,0.0,0.0,0.0,0.0,0.0,0.0,0.0,0.0,0.0,0.0,0.0,0.0,0.0,0.0,0.0,0.0,0.0,0.0,0.0,0.0,0.0,0.0,0.0,0.0,0.0,0.0,0.0,0.0,0.0,0.0,0.0,0.0,0.0,0.0,0.0,0.0,0.0,0.0,0.0,0.0,0.0,0.0,0.0,0.0,0.0,0.0,0.0,0.0,0.0,0.0,0.0,0.0,0.0,0.0,0.0,0.0,0.0,0.0,0.0,0.0,0.0,0.0,0.0,0.0,0.0,0.0,0.0,0.0,0.0,0.0,0.0,0.0,0.0,0.0,0.0,0.0,0.0,0.0,0.0,0.0,0.0,0.0,0.0,0.0,0.0,0.0,0.0,0.0,0.0,0.0,0.0,0.0,0.0,0.0,0.0,0.0,0.0,0.0,0.0,0.0,0.0,0.0,0.0,0.0,0.0,0.0,0.0,0.0,0.0,0.0,0.0,0.0,0.0,0.0,0.0,0.0,0.0,0.0,0.0,0.0,0.0,0.0,0.0,0.0,0.0,0.0,0.0,0.0,0.0,0.0,0.0,0.0,0.0,0.0,0.0,0.0,0.0,0.0,0.0,0.0,0.0,0.0,0.0,0.0,0.0,0.0,0.0,0.0,0.0,0.0,0.0,0.0,0.0,0.0,0.0,0.0,0.0,0.0,0.0,0.0,0.0,0.0,0.0,0.0,0.0,0.0,0.0,0.0,0.0,0.0,0.0,0.0,0.0,0.0,0.0,0.0,0.0,0.0,0.0,0.0,0.0,0.0,0.0,0.0,0.0,0.0,0.0,0.0,0.0,0.0,0.0,0.0,0.0,0.0,0.0,0.0,0.0,0.0,0.0,0.0,0.0,0.0,0.0,0.0,0.0,0.0,0.0,0.0,0.0,0.0,0.0,0.0,0.0,0.0,0.0,0.0,0.0,0.0,0.0,0.0,0.0,0.0,0.0,0.0,0.0,0.0,0.0,0.0,0.0,0.0,0.0,0.0,0.0,0.0,0.0,0.0,0.0,0.0,0.0,0.0,0.0,0.0,0.0,0.0,0.0,0.0,0.0,0.0,0.0,0.0,0.0,0.0,0.0,0.0,0.0,0.0,0.0,0.0,0.0,0.0,0.0,0.0,0.0,0.0,0.0,0.0,0.0,0.0,0.0,0.0,0.0,0.0,0.0,0.0,0.0,0.0,0.0,0.0,0.0,0.0,0.0,0.0,0.0,0.0,0.0,0.0,0.0,0.0,0.0,0.0,0.0,0.0,0.0,0.0,0.0,0.0,0.0,0.0,0.0,0.0,0.0,0.0,0.0,0.0,0.0,0.0,0.0,0.0,0.0,0.0,0.0,0.0,0.0,0.0,0.0,0.0,0.0,0.0,0.0,0.0,0.0,0.0,0.0,0.0,0.0,0.0,0.0,0.0,0.0,0.0,0.0,0.0,0.0,0.0,0.0,0.0,0.0,0.0,0.0,0.0,0.0,0.0,0.0,0.0,0.0,0.0,0.0,0.0,0.0,0.0,0.0,0.0,0.0,0.0,0.0,0.0,0.0,0.0,0.0,0.0,0.0,0.0,0.0,0.0,0.0,0.0,0.0,0.0,0.0,0.0,0.0,0.0,0.0,0.0,0.0,0.0,0.0,0.0,0.0,0.0,0.0,0.0,0.0,0.0,0.0,0.0,0.0,0.0,0.0,0.0,0.0,0.0,0.0,0.0,0.0,0.0,0.0,0.0,0.0,0.0,0.0,0.0,0.0,0.0,0.0,0.0,0.0,0.0,0.0,0.0,0.0,0.0,0.0,0.0,0.0,0.0,0.0,0.0,0.0,0.0,0.0,0.0,0.0,0.0,0.0,0.0,0.0,0.0,0.0,0.0,0.0,0.0,0.0,0.0,0.0,0.0,0.0,0.0,0.0,0.0,0.0,0.0,0.0,0.0,0.0,0.0,0.0,0.0,0.0,0.0,0.0,0.0,0.0,0.0,0.0,0.0,0.0,0.0,0.0,0.0,0.0,0.0,0.0,0.0,0.0,0.0,0.0,0.0,0.0,0.0,0.0,0.0,0.0,0.0,0.0,0.0,0.0,0.0,0.0,0.0,0.0,0.0,0.0,0.0,0.0,0.0,0.0,0.0,0.0,0.0,0.0,0.0,0.0,0.0,0.0,0.0,0.0,0.0,0.0,0.0,0.0,0.0,0.0,0.0,0.0,0.0,0.0,0.0,0.0,0.0,0.0,0.0,0.0,0.0,0.0,0.0,0.0,0.0,0.0,0.0,0.0,0.0,0.0,0.0,0.0,0.0,0.0,0.0,0.0,0.0,0.0,0.0,0.0,0.0,0.0,0.0,0.0,0.0,0.0,0.0,0.0,0.0,0.0,0.0,0.0,0.0,0.0,0.0,0.0,0.0,0.0,0.0,0.0,0.0,0.0,0.0,0.0,0.0,0.0,0.0,0.0,0.0,0.0,0.0,0.0,0.0,0.0,0.0,0.0,0.0,0.0,0.0,0.0,0.0,0.0,0.0,0.0,0.0,0.0,0.0,0.0,0.0,0.0,0.0,0.0,0.0,0.0,0.0,0.0,0.0,0.0,0.0,0.0,0.0,0.0,0.0,0.0,0.0,0.0,0.0,0.0,0.0,0.0,0.0,0.0,0.0,0.0,0.0,0.0,0.0,0.0,0.0,0.0,0.0,0.0,0.0,0.0,0.0,0.0,0.0,0.0,0.0,0.0,0.0,0.0,0.0,0.0,0.0,0.0,0.0,0.0,0.0,0.0,0.0,0.0,0.0,0.0,0.0,0.0,0.0,0.0,0.0,0.0,0.0,0.0,0.0,0.0,0.0,0.0,0.0,0.0,0.0,0.0,0.0,0.0,0.0,0.0,0.0,0.0,0.0,0.0,0.0,0.0,0.0,0.0,0.0,0.0,0.0,0.0,0.0,0.0,0.0,0.0,0.0,0.0,0.0,0.0,0.0,0.0,0.0,0.0,0.0,0.0,0.0,0.0,0.0,0.0,0.0,0.0,0.0,0.0,0.0,0.0,0.0,0.0,0.0,0.0,0.0,0.0,0.0,0.0,0.0,0.0,0.0,0.0,0.0,0.0,0.0,0.0,0.0,0.0,0.0,0.0,0.0,0.0,0.0,0.0,0.0,0.0,0.0,0.0,0.0,0.0,0.0,0.0,0.0,0.0,0.0,0.0,0.0,0.0,0.0,0.0,0.0,0.0,0.0,0.0,0.0,0.0,0.0,0.0,0.0,0.0,0.0,0.0,0.0,0.0,0.0,0.0,0.0,0.0,0.0,0.0,0.0,0.0,0.0,0.0,0.0,0.0,0.0,0.0,0.0,0.0,0.0,0.0,0.0,0.0,0.0,0.0,0.0,0.0,0.0,0.0,0.0,0.0,0.0,0.0,0.0,0.0,0.0,0.0,0.0,0.0,0.0,0.0,0.0,0.0,0.0,0.0,0.0,0.0,0.0,0.0,0.0,0.0,0.0,0.0,0.0,0.0,0.0,0.0,0.0,0.0,0.0,0.0,0.0,0.0,0.0,0.0,0.0,0.0,0.0,0.0,0.0,0.0,0.0,0.0,0.0,0.0,0.0,0.0,0.0,0.0,0.0,0.0,0.0,0.0,0.0,0.0,0.0,0.0,0.0,0.0,0.0,0.0,0.0,0.0,0.0,0.0,0.0,0.0,0.0,0.0,0.0,0.0,0.0,0.0,0.0,0.0,0.0,0.0,0.0,0.0,0.0,0.0,0.0,0.0,0.0,0.0,0.0,0.0,0.0,0.0,0.0,0.0,0.0,0.0,0.0,0.0,0.0,0.0,0.0,0.0,0.0,0.0,0.0,0.0,0.0,0.0,0.0,0.0,0.0,0.0,0.0,0.0,0.0,0.0,0.0,0.0,0.0,0.0,0.0,0.0,0.0,0.0,0.0,0.0,0.0,0.0,0.0,0.0,0.0,0.0,0.0,0.0,0.0,0.0,0.0,0.0,0.0,0.0,0.0,0.0,0.0,0.0,0.0,0.0,0.0,0.0,0.0,0.0,0.0,0.0,0.0,0.0,0.0,0.0,0.0,0.0,0.0,0.0,0.0,0.0,0.0,0.0,0.0,0.0,0.0,0.0,0.0,0.0,0.0,0.0,0.0,0.0,0.0,0.0,0.0,0.0,0.0,0.0,0.0,0.0,0.0,0.0,0.0,0.0,0.0,0.0,0.0,0.0,0.0,0.0,0.0,0.0,0.0,0.0,0.0,0.0,0.0,0.0,0.0,0.0,0.0,0.0,0.0,0.0,0.0,0.0,0.0,0.0,0.0,0.0,4.5679,0.0,0.0,0.0,0.0,0.0,0.0,0.0,0.0,0.0,0.0,0.0,0.0,0.0,0.0,0.0,0.0,0.0,0.0,0.0,0.0,0.0,0.0,0.0,0.0,0.0,0.0,0.0,0.0,0.0,0.0,0.0,0.0,0.0,0.0,0.0,0.0,0.0,3.9647,4.0502,3.9632,4.0486,4.2951,4.2982,4.3183,0.0,0.0,0.0,0.0,0.0,0.0,0.0,0.0,0.0,0.0,0.0,0.0,0.0,0.0,0.0,0.0,0.0,0.0,0.0,0.0,0.0,0.0,0.0,0.0,0.0,0.0,0.0,0.0,0.0,0.0,0.0,0.0,0.0,0.0,0.0,0.0,0.0,0.0,0.0,0.0,0.0,0.0,0.0,0.0,0.0,0.0,0.0,0.0,0.0,0.0,0.0,0.0,0.0,0.0,0.0,0.0,0.0,0.0,0.0,0.0,0.0,0.0,0.0,0.0,0.0,0.0,0.0,0.0,0.0,0.0,0.0,0.0,4.7732,0.0,0.0,0.0,0.0,0.0,0.0,0.0,0.0,0.0,0.0,0.0,0.0,0.0,0.0,0.0,0.0,0.0,0.0,0.0,0.0,0.0,0.0,0.0,3.615,3.6579,3.7438,3.8311,3.9177,4.0039,4.0781,4.1211,4.1211,4.1211,4.1211,4.1211,4.0351,4.0389,4.1429,4.1855,4.3336,4.5721,4.658,0.0,0.0,0.0,0.0,0.0,0.0,0.0,0.0,0.0,0.0,0.0,0.0,0.0,0.0,0.0,0.0,0.0,0.0,0.0,0.0,0.0,0.0,0.0,0.0,0.0,0.0,0.0,0.0,0.0,0.0,0.0,0.0,0.0,0.0,0.0,0.0,0.0,0.0,0.0,0.0,0.0,0.0,0.0,0.0,0.0,0.0,0.0,0.0,0.0,0.0,0.0,0.0,0.0,0.0,0.0,0.0,0.0,0.0,0.0,0.0,0.0,0.0,0.0,0.0,0.0,0.0,5.2252,5.3016,5.3786,5.3866,5.39,5.3752,5.092,5.0121,5.0684,4.9669,0.0,0.0,0.0,0.0,0.0,0.0,0.0,0.0,0.0,0.0,0.0,0.0,0.0,0.0,0.0,0.0,0.0,0.0,0.0,0.0,0.0,3.6696,3.7477,3.8333,3.9246,4.0076,4.0898,4.1094,4.1211,4.1211,4.1211,4.1211,4.1211,4.0351,4.0664,4.2226,4.4521,4.6585,4.8391,4.9218,5.0,5.0586,4.7266,0.0,0.0,0.0,0.0,0.0,0.0,0.0,0.0,0.0,0.0,0.0,0.0,0.0,0.0,0.0,0.0,0.0,0.0,0.0,0.0,0.0,0.0,0.0,0.0,0.0,0.0,0.0,0.0,0.0,0.0,0.0,0.0,0.0,0.0,0.0,0.0,0.0,0.0,0.0,0.0,0.0,0.0,0.0,4.4761,4.6298,0.0,0.0,0.0,0.0,0.0,0.0,0.0,0.0,0.0,0.0,0.0,0.0,0.0,5.0951,5.1769,5.264,5.3094,5.3272,5.3391,5.3572,5.3818,5.3853,5.3891,5.3865,5.3493,0.0,5.3347,5.1747,0.0,0.0,0.0,0.0,0.0,0.0,0.0,0.0,0.0,0.0,0.0,0.0,0.0,0.0,0.0,0.0,0.0,0.0,0.0,0.0,0.0,3.7516,3.857,3.9897,4.0801,4.1672,4.25,4.2578,4.2382,4.1908,4.1867,4.1676,4.1211,4.1289,4.2383,4.4609,4.7186,4.8867,4.9644,5.0976,5.1519,5.1318,4.9834,4.8627,4.7656,4.6315,0.0,0.0,0.0,0.0,0.0,0.0,0.0,0.0,0.0,0.0,0.0,0.0,0.0,0.0,0.0,0.0,0.0,0.0,0.0,0.0,0.0,0.0,0.0,0.0,0.0,0.0,0.0,0.0,0.0,0.0,0.0,0.0,0.0,0.0,0.0,0.0,0.0,0.0,0.0,4.4597,4.6198,4.6915,4.6617,4.6681,0.0,0.0,0.0,0.0,0.0,0.0,0.0,0.0,0.0,5.173,5.2524,5.3391,5.4276,5.4648,5.4895,5.5055,5.5073,5.5151,5.5258,5.535,5.5347,5.5354,5.5421,5.5465,5.5348,5.3587,5.3069,5.3181,0.0,0.0,0.0,0.0,4.9613,5.0421,0.0,0.0,0.0,0.0,0.0,0.0,0.0,0.0,0.0,0.0,0.0,0.0,3.7477,3.8804,4.0171,4.1654,4.2552,4.342,4.4294,4.4179,4.363,4.2761,4.2519,4.2017,4.1209,4.2422,4.4453,4.7305,4.9404,5.0693,5.1211,5.2458,5.268,5.2078,5.2078,5.1118,4.9452,4.8157,4.6619,0.0,0.0,0.0,0.0,0.0,0.0,0.0,0.0,0.0,0.0,0.0,0.0,0.0,0.0,0.0,0.0,0.0,0.0,0.0,0.0,0.0,0.0,0.0,0.0,0.0,0.0,0.0,0.0,0.0,0.0,0.0,0.0,0.0,0.0,0.0,0.0,0.0,0.0,4.5843,4.7169,4.7593,4.7563,4.7778,0.0,0.0,0.0,0.0,0.0,0.0,5.0516,5.1769,5.2928,5.3974,5.463,5.5382,5.6286,5.627,5.6265,5.618,5.6213,5.6251,5.6397,5.6488,5.6485,5.6524,5.6792,5.6914,5.6787,5.502,5.4273,5.4156,5.3325,5.2994,5.2933,5.2216,5.2503,5.3371,0.0,0.0,0.0,0.0,0.0,0.0,0.0,0.0,0.0,0.0,0.0,3.7524,3.8414,4.0717,4.2591,4.3489,4.4387,4.5246,4.6108,4.5377,4.4566,4.3672,4.2841,4.2009,4.1228,4.3591,4.6562,5.0,5.0898,5.2183,5.3795,5.3893,5.3893,5.3877,5.3877,5.2908,5.1283,5.1171,5.015,4.8482,0.0,0.0,0.0,0.0,0.0,0.0,0.0,0.0,0.0,0.0,0.0,0.0,0.0,0.0,0.0,0.0,0.0,0.0,0.0,0.0,0.0,0.0,0.0,0.0,0.0,0.0,0.0,0.0,0.0,0.0,0.0,0.0,0.0,0.0,0.0,0.0,0.0,0.0,0.0,4.9174,4.9335,0.0,0.0,0.0,0.0,5.0542,5.0657,5.1408,5.3121,5.3348,5.4125,5.5633,5.5845,5.6307,5.7023,5.7157,5.6859,5.618,5.6213,5.6251,5.6397,5.6488,5.6485,5.6563,5.7377,5.7724,5.7616,5.5847,5.5165,5.5157,5.4195,5.3837,5.3826,5.3791,5.4264,5.5103,0.0,0.0,0.0,0.0,0.0,0.0,0.0,0.0,3.2402,3.3297,3.5684,3.7828,3.922,4.2194,4.4422,4.5316,4.6647,4.7588,4.79,4.6625,4.5458,4.4557,4.3693,4.3648,4.4471,4.7028,4.9219,5.0976,5.2928,5.3941,5.4019,5.4554,5.4545,5.399,5.3998,5.3656,5.3039,5.2487,5.1287,4.9566,4.7851,4.539,0.0,0.0,0.0,0.0,0.0,0.0,0.0,0.0,0.0,0.0,0.0,0.0,0.0,0.0,0.0,0.0,0.0,0.0,0.0,0.0,0.0,0.0,0.0,0.0,0.0,0.0,0.0,0.0,0.0,0.0,0.0,0.0,0.0,0.0,0.0,0.0,0.0,5.0195,5.0259,0.0,5.1741,5.1048,5.1049,5.2316,5.2915,5.3494,5.4148,5.5246,5.6116,5.6634,5.7216,5.768,5.7989,5.7989,5.7657,5.6994,5.7571,5.7651,5.7214,5.7853,5.8162,5.8201,5.8509,5.8631,5.8582,5.798,5.7388,5.6887,5.6542,5.6074,5.5581,5.5584,5.6095,5.6806,0.0,0.0,0.0,0.0,0.0,0.0,0.0,0.0,3.2756,3.3336,3.6417,3.9107,4.0508,4.3751,4.6175,4.7073,4.8443,4.9228,4.9228,4.7673,4.6466,4.5913,4.475,4.5226,4.7569,4.9296,5.1016,5.2734,5.4451,5.5308,5.5308,5.5602,5.5591,5.5318,5.5013,5.4704,5.4389,5.383,5.2596,5.0895,4.9138,4.707,4.4764,0.0,0.0,0.0,0.0,0.0,0.0,0.0,0.0,0.0,0.0,0.0,0.0,0.0,0.0,0.0,0.0,0.0,0.0,0.0,0.0,0.0,0.0,0.0,0.0,0.0,0.0,0.0,0.0,0.0,0.0,0.0,0.0,0.0,0.0,4.8739,5.0272,5.112,5.1452,5.2011,5.3087,5.2723,5.2762,5.3648,5.4208,5.467,5.5017,5.6425,5.7352,5.7541,5.8142,5.8607,5.8954,5.8607,5.8219,5.7847,5.8503,5.8545,5.8081,5.8796,5.9098,5.9111,5.9407,5.9534,5.9563,5.987,5.9469,5.8637,5.8031,5.7258,5.6446,5.6184,5.6394,5.6961,0.0,0.0,0.0,0.0,0.0,0.0,0.0,3.2292,3.3385,3.3417,3.7933,4.1441,4.2315,4.5508,4.7927,4.8759,4.9657,5.0126,5.0048,4.8486,4.7549,4.7517,4.6013,4.6758,5.0156,5.0312,5.1992,5.5312,5.5351,5.6245,5.7894,5.7035,5.7074,5.7855,5.6996,5.6163,5.5347,5.5327,5.4367,5.2628,5.0856,4.9136,4.7478,0.0,0.0,0.0,0.0,0.0,0.0,0.0,0.0,0.0,0.0,0.0,0.0,0.0,0.0,0.0,0.0,0.0,0.0,0.0,0.0,0.0,0.0,0.0,0.0,0.0,0.0,0.0,0.0,0.0,0.0,0.0,0.0,0.0,4.9745,5.0417,5.1198,5.2085,5.2934,5.3398,5.328,5.332,5.3706,5.4477,5.4651,5.5056,5.5905,5.6848,5.7698,5.8374,5.851,5.8954,5.9766,5.8993,5.8642,5.8738,5.8814,5.8907,5.9046,5.9108,5.9144,5.924,6.0076,6.0427,6.0495,6.1364,6.1203,6.0255,5.8552,5.7343,5.6464,5.562,5.534,5.5691,0.0,0.0,0.0,0.0,0.0,0.0,0.0,3.228,3.3406,3.3406,3.8443,4.2147,4.2364,4.6587,4.9479,4.9708,5.0538,5.0508,4.9228,4.7588,4.6378,4.5721,4.7692,4.9492,5.1055,5.293,5.4373,5.5293,5.6554,5.7413,5.7874,5.759,5.7582,5.7816,5.7582,5.6987,5.6191,5.6152,5.5533,5.4289,5.1995,5.0399,4.915,0.0,0.0,0.0,0.0,0.0,0.0,0.0,0.0,0.0,0.0,0.0,0.0,0.0,0.0,0.0,0.0,0.0,0.0,0.0,0.0,0.0,0.0,0.0,0.0,0.0,0.0,0.0,0.0,0.0,0.0,0.0,4.9103,5.0516,5.0549,5.1807,5.2952,5.3764,5.4111,5.4477,5.4955,5.5073,5.5229,5.5499,5.6136,5.658,5.6811,5.8335,5.8935,5.8412,5.9647,6.0151,5.9804,6.0151,6.0075,5.963,5.9706,5.9801,5.9864,5.9974,6.0399,6.0996,6.1247,6.1325,6.1364,6.1598,6.1559,6.1242,6.0138,5.915,5.8364,5.807,5.8351,5.9095,0.0,0.0,0.0,0.0,0.0,0.0,0.0,3.2271,3.3675,3.4378,3.8795,4.2381,4.3846,4.7323,4.9864,5.0567,5.1118,5.0659,4.8915,4.7556,4.6781,4.6633,0.0,5.125,5.2461,5.4333,5.5651,5.6406,5.7395,5.8261,5.8925,5.8523,5.8553,5.8861,5.8124,5.7534,5.7004,5.6659,5.6224,5.5581,5.3715,5.225,5.0984,4.915,4.7598,4.6202,4.4965,4.3646,4.2415,4.1686,0.0,0.0,0.0,0.0,0.0,0.0,0.0,0.0,0.0,0.0,0.0,0.0,0.0,0.0,0.0,0.0,0.0,0.0,0.0,0.0,0.0,0.0,0.0,0.0,5.0333,5.1636,5.2387,5.3279,5.4053,5.4496,5.494,5.5326,5.5707,5.5787,5.5865,5.5865,5.6715,5.7217,5.7177,5.8934,5.963,5.9051,6.0324,6.0807,6.0345,6.0769,6.0829,6.0561,6.0599,6.0669,6.0731,6.0832,6.1179,6.171,6.1715,6.172,6.172,6.172,6.172,6.1603,0.0,0.0,0.0,0.0,5.9005,5.9843,0.0,0.0,0.0,0.0,0.0,0.0,0.0,3.2182,3.3832,3.5474,3.8869,4.2299,4.5421,4.7674,4.9547,5.0967,5.1123,5.0386,4.8642,4.7838,4.7886,4.8867,5.0703,5.2422,5.3984,5.4945,5.625,5.789,5.8007,5.8866,6.0388,5.9612,5.9641,6.0327,5.8788,5.7997,5.7765,5.7161,5.6751,5.6433,5.5762,5.4462,5.2893,5.1921,5.1023,5.0048,4.833,4.7177,4.619,4.4546,0.0,0.0,0.0,0.0,0.0,0.0,0.0,0.0,0.0,0.0,0.0,0.0,0.0,0.0,0.0,0.0,0.0,0.0,0.0,0.0,0.0,0.0,0.0,0.0,5.1386,5.3039,5.4628,5.4805,5.4766,5.4728,5.5557,5.6058,5.5845,5.5885,5.5924,5.5961,5.6831,5.7371,5.7505,0.0,0.0,0.0,0.0,6.1098,6.0944,6.1098,6.1157,6.1142,6.1235,6.1304,6.1373,6.1424,6.1537,6.172,6.172,6.172,6.172,6.172,6.172,6.1637,6.0856,6.0065,5.9274,5.8513,5.8624,5.9309,0.0,0.0,0.0,0.0,0.0,0.0,0.0,3.1646,3.2659,3.3769,3.8112,4.1627,4.2978,4.7156,4.9697,4.9352,4.9313,4.8582,4.6885,4.6629,4.7263,4.8828,5.1836,5.3633,5.3984,5.5531,5.6879,5.789,5.8558,5.9378,6.0393,6.0237,6.0232,6.0372,6.0037,5.9123,5.7868,5.9137,5.8382,5.6464,5.6979,5.6207,5.4546,5.304,5.1921,5.0906,4.9192,4.8014,4.7108,4.6132,4.5238,4.4461,4.4298,4.3724,0.0,0.0,0.0,0.0,0.0,0.0,0.0,0.0,0.0,0.0,0.0,0.0,0.0,0.0,0.0,0.0,0.0,0.0,0.0,5.1601,5.3149,5.4589,5.5593,5.6232,5.6346,5.5731,5.6482,5.6732,5.5982,5.5924,5.6232,5.6888,5.7738,5.8587,5.932,6.0344,6.0558,5.9824,6.1272,6.1427,6.0056,6.1388,6.1447,6.0251,6.0328,0.0,6.0516,6.0605,6.103,6.172,6.172,6.172,6.172,6.172,6.171,6.166,6.1452,6.1244,6.1105,6.0924,6.0945,6.1091,0.0,0.0,0.0,0.0,0.0,0.0,0.0,3.152,3.2688,3.4418,3.7274,3.9964,4.213,4.502,4.667,4.6248,4.583,4.5963,4.6885,4.6551,4.7653,5.0664,5.2851,5.4219,5.4648,5.5929,5.72,5.8519,5.8909,5.9768,6.1056,6.1056,6.1047,6.0984,6.0573,5.9892,5.9069,5.9506,5.8687,5.7143,5.7546,5.6961,5.5654,5.3936,5.2757,5.1761,5.0059,4.8899,4.8099,4.7705,4.7002,4.6374,4.6761,4.6314,4.5351,0.0,0.0,0.0,0.0,0.0,0.0,0.0,0.0,0.0,0.0,0.0,0.0,0.0,0.0,4.7067,4.8316,0.0,5.1037,5.2676,5.3607,5.4525,5.5822,5.7043,5.7506,5.6638,5.7332,5.7737,5.7255,5.7236,5.7409,5.7795,5.8645,5.9553,6.046,6.0867,6.1254,6.1697,6.2488,6.2274,6.1,6.2295,6.195,5.9946,6.0483,6.0604,6.0321,6.08,6.1264,6.172,6.172,6.172,6.172,6.172,6.1666,6.1648,6.1648,6.1627,6.1595,6.1616,6.1831,6.2211,0.0,0.0,0.0,0.0,0.0,0.0,0.0,3.1398,3.2611,3.4876,3.6206,3.8071,4.0981,4.2539,4.3293,4.3111,4.251,4.3543,4.6882,4.6744,4.8396,5.2538,5.3711,5.457,5.5273,5.6168,5.7327,5.887,5.9026,5.9924,6.1447,6.1603,6.1666,6.1556,6.0951,6.051,6.027,5.9724,5.8936,5.7992,5.7955,5.7449,5.6524,5.4818,5.3618,5.2645,5.0959,4.9692,4.879,4.8794,4.8131,4.7502,4.8313,4.7957,4.7055,4.619,4.5456,0.0,0.0,0.0,0.0,0.0,0.0,0.0,0.0,4.6512,4.6878,4.7525,4.7774,4.837,4.9858,5.0409,5.1295,5.3286,5.3809,5.4475,5.5818,5.7312,5.7989,5.7293,5.8105,5.8703,5.8548,5.851,5.8568,5.8742,5.9437,6.0268,6.1311,6.1138,6.1775,6.3531,6.3527,6.3059,6.221,6.3124,6.2356,5.9895,6.088,6.0968,6.0312,6.1183,6.1648,6.1671,6.1676,6.1715,6.172,6.172,6.1666,6.1595,6.1648,6.1634,6.1595,6.1578,6.2104,6.2824,0.0,0.0,0.0,0.0,0.0,0.0,0.0,0.0,3.1259,3.2366,3.4592,3.6473,3.7648,4.0616,4.2226,4.1462,4.1306,4.2403,4.5104,4.6664,4.9023,5.255,5.4294,5.5195,5.5312,5.6168,5.7054,5.8011,5.8753,5.9612,6.0549,6.133,6.1666,6.1595,6.1576,6.1088,6.033,6.1023,6.0341,5.8771,5.8831,5.8315,5.7309,5.5658,5.4523,5.3533,5.1876,5.0199,4.8782,4.8786,4.7736,4.6592,4.7463,4.7103,4.6142,4.5234,4.4961,4.4762,4.3792,4.4709,4.6192,4.7,4.7729,4.8107,0.0,4.7898,4.846,4.8553,4.9106,4.9887,5.0899,5.2247,5.3353,5.3557,5.4831,5.5869,5.5973,5.6791,5.7333,5.7216,5.8645,5.936,5.8681,5.851,5.8858,5.9687,5.9841,6.0576,6.2162,6.1447,6.1754,6.3467,6.3505,6.3059,6.2105,6.3059,6.2295,5.9841,6.076,6.0861,6.0261,6.1188,6.158,6.1602,6.1654,6.171,6.172,6.172,6.1666,6.1595,6.1602,6.1612,6.1616,6.1595,6.2171,6.2893,0.0,0.0,0.0,0.0,0.0,0.0,0.0,0.0,0.0,3.1927,3.2978,3.3952,3.4847,3.6228,3.737,3.8038,3.855,4.0354,4.3992,4.6312,4.9296,5.3284,5.463,5.554,5.6055,5.6403,5.7015,5.7894,5.8714,5.9534,6.0432,6.1281,6.166,6.1595,6.1627,6.1417,6.1062,6.1393,6.0827,5.9716,5.9694,5.8877,5.7564,5.6874,5.5463,5.3736,5.2512,5.0693,0.0,4.9322,4.8716,4.7918,4.8733,4.8371,4.7573,4.7175,4.6403,4.556,4.518,4.602,4.7184,4.8041,4.886,4.9523,4.9703,5.0048,5.0277,5.0282,5.053,5.0852,5.12,5.2212,5.313,5.3519,5.4614,5.5552,5.5935,5.7157,5.797,5.7987,5.9495,6.0171,5.9379,5.9302,5.9668,6.0538,6.0615,6.135,6.3052,6.2238,6.2738,6.4938,6.3984,6.3245,6.2876,6.2789,6.1502,5.9051,5.999,6.0095,5.9476,6.0419,6.1136,6.1595,6.1654,6.1699,6.1654,6.1666,6.1648,6.1619,6.1595,6.1612,6.1607,6.1616,6.2435,6.3595,0.0,0.0,0.0,0.0,0.0,0.0,0.0,0.0,0.0,0.0,3.1882,3.2343,3.3239,3.3334,3.393,3.5455,3.6356,3.8589,4.2699,4.557,4.8866,5.2776,5.4455,5.5602,5.6247,5.6482,5.6898,5.7543,5.8363,5.9183,6.0041,6.0924,6.142,6.1595,6.1612,6.1586,6.1607,6.1528,6.1167,6.0622,6.0332,5.932,5.7982,5.7731,5.6038,5.3766,5.3159,5.1289,4.9262,5.0112,4.951,4.856,4.9412,4.8899,4.8061,4.8296,4.7454,4.6472,4.6551,4.7196,4.8068,4.8938,4.9763,5.0561,5.124,5.1401,5.1401,5.1401,5.1586,5.1713,5.1663,5.2514,5.3336,5.3868,5.4653,5.5397,5.5935,5.7235,5.8085,5.7889,5.909,5.9842,5.9457,5.992,6.0442,6.1041,6.1118,6.1737,6.3226,6.2583,6.3274,6.5633,6.4193,6.3415,6.3353,6.2343,6.0843,5.8858,5.9279,5.9413,5.9244,6.0194,6.1002,6.1595,6.1641,6.1641,6.1595,6.1648,6.1634,6.1603,6.158,6.1603,6.1559,6.1559,6.265,6.4101,0.0,0.0,0.0,0.0,0.0,0.0,0.0,0.0,0.0,0.0,0.0,0.0,0.0,3.3395,3.3756,3.4675,3.5485,3.7435,4.0959,4.4362,4.7421,5.0117,5.3479,5.5318,5.5357,5.6172,5.6624,5.6645,5.7465,5.8285,5.9143,6.0026,6.0834,6.1595,6.1612,6.1586,6.1607,6.1546,6.1495,6.1401,6.0538,5.9672,5.8791,5.7985,5.6035,5.3728,5.3837,5.2173,5.0098,5.105,4.9601,4.7595,4.8554,4.7651,4.6442,4.722,4.7406,4.7376,4.7444,4.8092,4.8956,4.9853,5.0694,5.1371,5.1401,5.1406,5.1414,5.1414,5.2021,5.2578,5.2575,5.3867,5.4905,5.4876,5.5529,5.6062,5.6012,5.6712,5.6946,5.6173,5.6791,5.7641,5.8452,5.9998,6.0983,6.1079,6.1118,6.1447,6.2277,6.2253,6.2982,6.471,6.3877,6.3392,6.332,6.1736,6.0509,5.9647,5.8896,5.9026,6.0017,6.1017,6.15,6.1595,6.1612,6.1619,6.1595,6.1595,6.1588,6.1603,6.1603,6.1578,6.1489,6.1489,6.2601,6.4101,0.0,0.0,0.0,0.0,0.0,0.0,0.0,0.0,0.0,0.0,0.0,0.0,0.0,0.0,0.0,0.0,3.4223,3.625,3.9184,4.2633,4.5703,4.8326,5.061,5.2409,5.3557,5.4413,5.5169,5.5747,5.7113,5.8246,5.9104,5.9976,6.0822,6.1595,6.1595,6.1616,6.1607,6.1528,6.1518,6.1429,6.0538,5.9983,5.9463,5.8078,5.6251,5.4373,0.0,5.2103,5.0042,5.0918,4.9897,4.8327,4.8591,4.8319,4.7882,4.8127,4.8214,4.8405,4.8989,4.9848,5.0728,5.1625,5.2069,5.2273,5.2269,5.1804,5.1414,5.1414,5.1605,5.1977,5.2497,5.3467,5.4369,5.4798,5.5591,5.6062,5.6012,5.7196,5.7757,5.6943,5.8548,5.9631,5.9436,5.8895,5.9224,6.0906,6.1022,6.1388,6.2197,6.329,6.3885,6.3907,6.3507,6.3099,6.2583,6.0827,5.9579,5.8837,5.8103,5.8241,5.9163,6.0125,6.0939,6.1539,6.151,6.152,6.1529,6.1586,6.1578,6.1559,6.1578,6.1549,6.1507,6.1489,6.2619,6.4087,0.0,0.0,0.0,0.0,0.0,0.0,0.0,0.0,0.0,0.0,0.0,0.0,0.0,0.0,0.0,0.0,0.0,3.4808,3.743,4.0558,4.3319,4.5651,4.8278,5.0194,5.1324,5.2763,5.3795,5.4381,5.5747,5.7035,5.8207,5.9045,6.008,6.1159,6.147,6.1403,6.111,6.1022,6.1011,6.0873,5.9996,5.9749,5.9769,5.7769,5.6087,0.0,5.3916,5.2175,5.0309,5.0581,4.9992,4.907,4.875,4.8876,4.908,4.8768,4.8903,4.9317,4.9893,5.0712,5.1591,5.2498,5.2932,5.3171,5.3171,5.2741,5.2234,5.1921,5.2342,5.2791,5.3003,5.3935,5.4836,5.5278,5.58,5.6062,5.6012,5.7446,5.8103,5.6961,5.905,6.0287,5.9493,5.8428,5.8681,6.0887,6.0751,6.0963,6.173,6.3345,6.3862,6.3037,6.3238,6.2829,6.1736,6.0003,5.8561,5.7525,5.7387,5.7815,5.8707,5.9657,6.0618,6.1495,6.1507,6.1479,6.1489,6.1539,6.1528,6.1518,6.1528,6.1557,6.1484,6.1507,6.2196,6.3223,0.0,0.0,0.0,0.0,0.0,0.0,0.0,0.0,0.0,0.0,0.0,0.0,0.0,0.0,0.0,0.0,0.0,0.0,3.5689,3.8219,4.0384,4.2187,4.6328,4.8631,4.8763,5.1222,5.2507,5.2585,5.3483,5.4771,5.6372,5.7265,5.8532,6.013,6.0954,6.0838,6.0016,5.9977,5.9938,5.9799,5.8894,5.9056,5.9575,5.6984,5.5498,5.4658,5.3756,5.2376,5.0879,5.0226,4.9974,4.9787,4.9011,4.934,4.9846,4.913,4.9527,5.0197,5.0238,5.0879,5.1747,5.262,5.3444,5.4068,5.4068,5.4025,5.3752,5.2932,5.4006,5.4872,5.4009,5.5151,5.6226,5.6194,5.6149,5.6101,5.6051,5.7521,5.7985,5.6283,5.8368,5.9585,5.8699,5.8695,5.9431,6.0963,6.0383,6.0288,6.1036,6.2618,6.3053,6.2151,6.2891,6.2506,6.0742,5.9121,5.7525,5.5905,5.6809,5.7727,5.87,5.9629,6.0579,6.1479,6.1495,6.1495,6.1479,6.1495,6.1472,6.1472,6.1484,6.1472,6.1511,6.1562,6.1499,6.1707,0.0,0.0,0.0,0.0,0.0,0.0,0.0,0.0,0.0,0.0,0.0,0.0,0.0,0.0,0.0,0.0,0.0,0.0,3.3969,3.5907,3.8038,4.043,4.2811,4.4952,4.6928,4.8837,5.0126,5.075,5.2273,5.36,5.4654,5.5488,5.6458,5.7479,5.765,5.7605,5.7391,5.7947,5.8153,5.8091,5.782,5.8211,5.8656,5.6097,5.4901,5.4417,5.2966,5.1785,5.1022,5.1502,5.088,4.9897,4.9776,4.9862,5.0096,5.06,5.0894,5.1218,5.1865,5.2655,5.3557,5.4416,5.481,5.4962,5.4903,5.439,5.3832,5.3572,5.3869,5.4281,5.4694,5.508,5.5527,5.6117,5.6149,5.6295,5.6902,5.7907,5.8178,5.7095,0.0,6.0208,5.872,5.9202,6.0014,6.1002,6.0848,6.1039,6.1781,6.286,6.303,6.2127,6.2305,6.1636,5.9926,5.8294,5.6926,5.5807,5.6097,5.7061,5.8565,5.8845,5.9871,6.1342,6.1394,6.1408,6.1421,6.1447,6.1394,6.1366,6.1421,6.1383,6.1458,6.2199,6.2432,6.2523,0.0,0.0,0.0,0.0,0.0,0.0,0.0,0.0,0.0,0.0,0.0,0.0,0.0,0.0,0.0,0.0,0.0,0.0,0.0,3.4686,3.6431,3.8672,4.0741,4.2687,4.4543,4.6644,4.8123,4.8942,5.0313,5.141,5.2312,5.3152,5.3961,5.4807,5.5155,5.5249,5.5225,5.5644,5.5981,0.0,0.0,5.6366,5.7168,5.461,5.3801,5.3762,5.1713,5.0742,5.0519,5.149,5.0992,5.0033,5.0486,5.0633,5.0738,5.1235,5.1401,5.1523,5.1999,5.3029,5.405,5.4112,5.4732,5.5196,5.4752,5.4585,5.4339,5.3947,5.442,5.4938,5.5041,5.5306,5.5683,5.6117,5.6164,5.6388,5.7172,5.8062,5.8294,5.7404,5.9589,6.0479,5.8758,5.9744,6.0634,6.1003,6.0713,6.0807,6.1571,6.2397,6.2429,6.155,6.1897,6.1112,5.9061,5.7752,5.6673,5.5766,5.5807,5.656,5.7892,5.7985,5.9033,6.0769,6.0808,6.1056,6.1419,6.1352,6.1337,6.1306,6.1352,6.1352,6.1468,6.2432,6.2718,6.2873,0.0,0.0,0.0,0.0,0.0,0.0,0.0,0.0,0.0,0.0,0.0,0.0,0.0,0.0,0.0,0.0,0.0,0.0,0.0,0.0,0.0,3.703,3.957,4.1326,4.2197,4.4797,4.6465,4.7162,4.8045,4.8915,4.9774,5.0399,5.1196,5.2107,5.2762,5.3039,5.3016,5.3068,5.3441,5.3978,5.332,5.3978,5.5078,0.0,0.0,5.2605,5.04,4.9637,4.9868,5.0825,5.0724,5.0286,5.1078,5.1336,5.1406,5.1396,5.1391,5.1406,5.1391,5.2572,5.3632,5.2908,5.3912,5.4927,5.4142,5.4596,5.497,5.418,5.5249,5.6053,5.5306,5.5735,5.6223,5.6335,5.6373,5.6614,5.7383,5.8139,5.8294,5.7404,5.9529,6.0381,5.8758,6.0187,6.1137,6.1002,6.0345,6.0305,6.1092,6.1665,6.1582,6.0819,6.1343,6.0519,5.8329,5.7302,5.6395,5.5549,5.5707,5.6172,5.6946,5.7157,5.8303,6.0085,6.0095,6.0536,6.1211,6.1283,6.1213,6.1126,6.1242,6.133,6.1468,6.2376,6.2677,6.2938,0.0,0.0,0.0,0.0,0.0,0.0,0.0,0.0,0.0,0.0,3.0806,0.0,0.0,0.0,0.0,0.0,0.0,0.0,0.0,0.0,0.0,0.0,3.8709,4.0505,4.1303,4.3837,4.5221,4.5365,4.6206,4.7084,4.7939,4.7357,4.7957,4.9418,4.8807,4.8875,4.9504,5.0131,5.0448,5.0627,5.113,5.1547,5.1731,5.0511,0.0,0.0,4.976,4.9683,4.9924,5.0739,5.0972,5.0975,5.1271,5.138,5.1396,5.1398,5.1406,5.1406,5.1406,5.2148,5.289,5.2726,5.3455,5.4181,5.3961,5.4554,5.5061,5.4868,5.5578,5.6174,5.6015,5.6107,5.6417,5.7086,5.7188,5.7482,5.8325,5.8562,5.8294,5.7404,5.8952,5.9744,5.8681,6.0112,6.106,6.1002,6.0884,6.107,6.179,6.135,6.1004,6.0819,5.9595,5.8732,5.8291,5.6725,5.5511,5.4703,5.527,5.5676,5.5997,5.6831,5.8235,5.9924,6.0056,6.0134,6.0321,6.1003,6.0821,6.0132,6.0902,6.1191,6.125,6.2261,6.2633,6.2832,0.0,0.0,0.0,0.0,0.0,0.0,0.0,0.0,0.0,3.0622,3.081,3.0798,0.0,0.0,0.0,0.0,0.0,0.0,0.0,0.0,0.0,0.0,0.0,0.0,3.9741,4.1827,4.2939,4.2916,0.0,4.4836,4.4859,4.4848,4.5294,4.6066,4.5616,4.5833,4.6618,4.7404,4.797,4.8459,4.9272,4.9635,0.0,0.0,0.0,0.0,0.0,4.873,4.8604,4.9924,5.0622,5.0998,5.1239,5.1561,5.1927,5.1991,5.1711,5.1445,5.1914,5.2344,5.2578,5.2142,5.2677,5.3323,5.3264,5.3884,5.4528,5.4914,5.5605,5.6272,5.673,5.6823,5.7095,5.7899,5.8031,5.817,5.8526,5.899,5.8797,5.7482,5.9223,6.0035,5.872,6.0112,6.108,6.1,6.1018,6.1147,6.1405,6.1058,6.0612,6.0127,5.9342,5.8495,5.7588,5.6758,5.5654,5.4296,5.468,5.4917,5.4984,5.5537,5.6791,5.854,5.8661,5.9165,5.9913,6.0339,6.0499,6.046,6.0945,6.108,6.1195,6.2138,6.2826,6.3449,0.0,0.0,0.0,0.0,0.0,0.0,0.0,2.8778,2.8824,3.0586,3.0817,3.081,3.0806,3.0802,3.0784,0.0,0.0,0.0,0.0,0.0,0.0,0.0,0.0,0.0,0.0,0.0,0.0,4.1089,4.2247,0.0,0.0,0.0,0.0,0.0,4.3335,4.3761,4.4481,4.5091,4.5751,0.0,0.0,4.7337,0.0,0.0,0.0,0.0,0.0,4.7414,4.7129,4.9121,5.024,5.0906,5.1307,5.1979,5.264,5.2598,5.2116,5.1737,5.2421,5.2539,5.2265,5.1556,5.1896,5.2464,5.2645,5.326,5.4013,5.4824,5.5578,5.6304,5.6991,5.7108,5.7456,5.8484,5.8618,5.8579,5.8547,5.932,5.9261,5.7521,5.9416,6.0344,5.899,6.0228,6.1003,6.0727,6.0706,6.074,6.085,6.0627,6.0181,5.9511,5.9165,5.8296,5.6883,5.6537,5.5485,5.3836,5.3896,5.3866,5.3736,5.422,5.5384,5.6982,5.7246,5.8175,5.9552,5.9707,6.0152,6.0706,6.0899,6.1039,6.1157,6.1853,6.2874,6.3984,0.0,0.0,0.0,0.0,0.0,0.0,0.0,2.8792,2.8873,3.0562,3.0799,3.0794,3.0817,3.0798,3.0769,0.0,0.0,0.0,0.0,0.0,0.0,0.0,0.0,0.0,0.0,0.0,0.0,4.111,4.0454,0.0,0.0,0.0,0.0,0.0,0.0,4.2899,4.3692,4.3663,0.0,0.0,0.0,0.0,0.0,0.0,0.0,0.0,0.0,4.6087,4.6396,4.8871,5.0279,5.1121,5.1872,5.2719,5.3369,5.2708,5.2512,5.2499,5.2641,5.2109,5.1484,5.14,5.1467,5.1722,5.2434,5.3245,5.4022,5.475,5.5535,5.6101,5.6145,5.6162,5.6753,5.8412,5.8612,5.8612,5.8684,5.9392,5.9261,5.7521,5.8913,5.9957,5.9803,6.0576,6.0732,5.9899,5.9716,5.9996,6.0742,5.9931,5.947,5.9511,5.8011,5.7104,5.6883,5.5339,5.3981,5.2919,5.287,5.2513,5.1897,5.3574,5.4916,5.6001,5.6905,5.7812,5.8703,5.9476,5.9783,5.9793,6.0668,6.0997,6.1018,6.1157,6.2314,6.3834,0.0,0.0,0.0,0.0,0.0,0.0,0.0,2.8476,2.8915,3.0565,3.0799,3.0791,3.082,3.0789,3.0759,0.0,0.0,0.0,0.0,0.0,0.0,0.0,0.0,0.0,0.0,0.0,0.0,3.7954,3.8688,0.0,0.0,0.0,0.0,0.0,0.0,4.0874,4.1302,4.2227,0.0,0.0,0.0,0.0,0.0,0.0,0.0,0.0,0.0,0.0,4.5415,4.7506,4.9064,5.0233,5.0573,5.2361,5.4226,5.4012,5.3272,5.2665,5.3143,5.237,5.1406,5.14,5.1389,5.1757,5.3085,5.3554,5.4047,5.5345,5.5846,5.6188,5.6634,5.6803,5.7279,5.8463,5.8651,5.8651,5.8618,5.9392,5.9258,5.7521,5.8836,5.9687,5.9184,5.988,6.0191,5.9745,6.0041,5.9973,5.9319,5.9341,5.9187,5.8781,5.7604,5.6675,5.6069,5.4848,5.3694,5.2641,5.2158,5.1764,5.1572,5.2372,5.3541,5.4972,5.5422,5.6059,5.6925,5.8273,5.8809,5.8979,6.0349,6.0933,6.0997,6.1041,6.22,6.3834,0.0,0.0,0.0,0.0,0.0,2.61,2.7605,2.8083,2.8837,3.0253,3.0643,3.0791,3.0781,3.0798,3.0691,3.038,0.0,0.0,0.0,0.0,0.0,0.0,0.0,0.0,0.0,0.0,0.0,3.5889,3.7124,3.7534,0.0,0.0,3.8058,3.8167,0.0,0.0,0.0,0.0,0.0,0.0,0.0,0.0,0.0,0.0,0.0,0.0,0.0,0.0,0.0,0.0,0.0,4.9328,4.99,5.205,5.4353,5.4467,5.3901,5.331,5.3906,5.3108,5.2103,5.2112,5.2138,5.2506,5.3883,5.408,5.4375,5.5761,5.6012,5.6191,5.6752,5.694,5.7301,5.8097,5.8264,5.8396,5.8618,5.9121,5.9043,5.783,5.8758,5.9261,5.8642,5.9127,5.9418,5.932,5.9771,5.9435,5.795,5.8342,5.8381,5.7934,5.7005,5.6207,5.5523,5.4403,5.3416,5.2536,5.1471,5.0976,5.1028,5.1429,5.2334,5.359,5.4182,5.478,5.5451,5.7104,5.7989,5.8412,5.9858,6.0657,6.0976,6.1002,6.22,6.3796,0.0,0.0,0.0,0.0,0.0,0.0,0.0,2.7693,2.8603,2.9513,3.0294,3.0796,3.0788,3.0788,3.0459,2.9569,0.0,0.0,0.0,0.0,0.0,0.0,0.0,0.0,0.0,0.0,0.0,3.5889,3.5917,3.6372,3.719,3.7215,3.7209,3.724,0.0,0.0,0.0,0.0,0.0,0.0,0.0,0.0,0.0,0.0,0.0,0.0,0.0,0.0,0.0,0.0,0.0,0.0,0.0,5.2136,5.3553,5.36,5.4227,5.4901,5.4875,5.4351,5.3772,5.3789,5.3838,5.4051,5.4723,5.488,5.5059,5.5745,5.5938,5.5995,5.6018,5.6051,5.6404,5.7265,5.742,5.773,5.8583,5.8668,5.8618,5.8583,5.8604,5.8604,5.8604,5.8472,5.8412,5.8412,5.8346,5.7912,5.6982,5.6875,5.6898,5.7011,5.6121,5.5593,5.5485,5.379,5.278,5.2482,5.073,4.9917,4.9944,5.095,5.1484,5.172,5.3522,5.4342,5.4562,5.6191,5.742,5.8304,5.9181,6.0096,6.0933,6.106,6.2275,6.3834,0.0,0.0,0.0,0.0,0.0,0.0,0.0,2.7183,2.7702,2.8613,2.8925,2.9311,2.9851,2.9916,2.9576,2.8707,0.0,0.0,0.0,0.0,0.0,0.0,0.0,0.0,0.0,0.0,0.0,0.0,0.0,3.5464,3.632,3.6261,3.6239,3.6262,3.7083,0.0,0.0,0.0,0.0,0.0,0.0,0.0,0.0,0.0,0.0,0.0,0.0,0.0,0.0,0.0,0.0,0.0,0.0,0.0,0.0,5.2485,5.3691,5.489,5.4894,5.4347,5.3612,5.3067,5.3324,5.3647,5.3261,5.356,5.4008,5.4227,5.4697,5.5122,5.5105,5.5707,5.6272,5.6528,5.6611,5.6936,5.7692,5.7792,5.776,5.7714,5.7714,5.7714,5.7714,5.8162,5.8221,5.7622,5.8042,5.7649,5.6076,5.6529,5.6836,5.6906,5.6015,5.5278,5.468,5.3436,5.245,5.1657,5.0448,4.9862,4.9906,5.0342,5.1167,5.2412,5.3068,5.3368,5.3545,5.5844,5.629,5.58,5.8419,5.9642,6.0041,6.0769,6.2181,6.3744,0.0,0.0,0.0,0.0,0.0,0.0,0.0,2.675,2.7195,2.775,2.8103,2.8608,2.9425,2.9494,2.9152,2.8294,0.0,0.0,0.0,0.0,0.0,0.0,0.0,0.0,0.0,0.0,0.0,0.0,0.0,0.0,0.0,0.0,3.5795,3.581,3.6279,0.0,0.0,0.0,0.0,0.0,0.0,0.0,3.7366,0.0,0.0,0.0,0.0,0.0,0.0,0.0,0.0,0.0,0.0,0.0,0.0,0.0,5.2995,5.4448,5.4757,5.4735,5.4436,5.3582,5.3779,5.3895,5.2962,5.3126,5.3499,5.3475,5.3917,5.4281,5.4281,5.4823,5.537,5.5666,5.5719,5.616,5.728,5.7133,5.6837,5.6824,5.6807,5.6961,5.7288,5.7718,5.7776,5.7216,5.758,5.7148,5.5631,5.6045,5.6314,5.636,5.5815,5.5101,5.4296,5.3322,5.2247,5.1212,5.0213,4.9778,4.9835,4.9944,5.0608,5.1764,5.2513,5.27,0.0,5.5159,5.5605,5.5001,5.7834,5.911,5.9565,6.0552,6.2124,6.3689,0.0,0.0,0.0,0.0,0.0,0.0,0.0,0.0,0.0,2.6922,2.7593,2.8418,2.9235,2.9313,2.8973,2.8197,0.0,0.0,0.0,0.0,0.0,0.0,0.0,0.0,0.0,0.0,0.0,3.3295,3.4912,3.5762,3.5878,0.0,3.5795,3.5771,3.565,0.0,0.0,0.0,0.0,0.0,3.5718,3.5708,0.0,0.0,0.0,0.0,0.0,0.0,0.0,0.0,0.0,0.0,0.0,0.0,0.0,0.0,0.0,0.0,0.0,5.5249,5.5684,5.4829,5.4723,5.4506,5.3374,5.3271,0.0,5.3254,5.3375,5.3504,5.349,5.361,5.3961,5.4763,5.4929,5.5458,5.7077,5.6521,5.5935,5.6012,5.6016,5.6307,5.7116,5.7101,5.704,5.7101,5.696,5.6467,5.5446,5.5408,5.537,5.5331,5.5331,5.4948,5.4219,5.3283,5.2171,5.093,5.0118,4.9655,4.9646,4.9741,4.9917,5.0279,5.1917,5.2283,5.1944,5.4355,5.5287,5.5503,5.7378,5.8552,5.9344,6.0487,6.2043,6.3631,0.0,0.0,0.0,0.0,0.0,0.0,0.0,0.0,0.0,0.0,2.6183,2.6649,2.7504,2.7523,2.7415,0.0,0.0,0.0,0.0,0.0,0.0,0.0,0.0,0.0,0.0,0.0,0.0,3.3316,3.3718,3.4567,3.5818,3.5811,3.5795,3.5771,3.5094,0.0,0.0,0.0,0.0,0.0,3.5718,3.5718,0.0,0.0,0.0,0.0,3.8528,4.0255,0.0,0.0,0.0,0.0,0.0,0.0,0.0,0.0,5.1192,5.2531,5.2691,0.0,5.3812,5.2945,5.3254,5.3353,0.0,5.1927,0.0,0.0,0.0,5.2637,5.2679,5.3261,5.4035,5.4776,5.4971,5.5151,5.5461,5.5258,5.531,5.5935,5.5995,5.6093,5.6307,5.6233,5.6174,5.6115,5.6053,5.5583,5.4626,5.4649,5.4342,5.3606,5.3606,5.3491,5.3299,5.2953,5.1662,4.9352,4.958,4.9381,4.8871,4.9542,5.0258,5.1142,5.1574,5.2043,5.2564,5.3874,5.4371,5.4587,5.7047,5.8132,5.8502,6.0219,6.1951,6.3467,0.0,0.0,0.0,0.0,0.0,0.0,0.0,0.0,0.0,0.0,0.0,0.0,0.0,0.0,0.0,0.0,0.0,0.0,0.0,0.0,0.0,0.0,0.0,0.0,0.0,3.0432,3.1909,0.0,0.0,3.4505,3.5803,3.5795,3.5779,3.5801,3.5262,0.0,0.0,0.0,0.0,0.0,3.5697,0.0,0.0,0.0,0.0,0.0,3.8274,3.9913,0.0,4.3114,4.3978,4.4921,0.0,0.0,0.0,0.0,4.9722,5.1061,5.099,5.2172,5.3198,5.2331,5.245,5.2432,5.1064,5.1159,0.0,0.0,0.0,5.178,5.2211,5.2758,5.3365,5.4167,5.4362,5.4388,5.4308,5.4963,5.542,5.5393,5.5763,5.5998,5.6018,5.5924,5.5905,5.5905,5.5787,5.5318,5.4386,5.4386,5.398,5.3075,5.3015,5.2801,5.2456,5.2279,5.1231,4.934,4.958,4.9495,4.9164,4.9589,5.0117,5.0812,5.1282,5.1917,5.2781,5.3684,5.4459,5.5282,5.7118,5.8088,5.8639,6.0125,6.1785,6.3306,0.0,0.0,0.0,0.0,0.0,0.0,0.0,0.0,0.0,0.0,0.0,0.0,0.0,0.0,0.0,0.0,0.0,0.0,0.0,0.0,0.0,0.0,0.0,2.8218,2.8218,3.0496,3.2244,3.3304,3.3984,3.4831,3.5803,3.5779,3.5715,3.5572,3.5689,0.0,0.0,0.0,0.0,0.0,3.5637,0.0,0.0,0.0,0.0,0.0,0.0,0.0,0.0,4.2896,4.3761,4.4652,4.5441,0.0,0.0,0.0,0.0,0.0,4.9653,5.1206,5.264,5.191,5.1717,5.1468,5.0527,0.0,0.0,0.0,0.0,0.0,5.1896,5.2056,5.2433,5.3441,5.3624,5.3676,5.379,5.4876,5.5389,5.4791,5.5358,5.5882,5.598,5.5943,5.5924,5.5961,5.5769,5.5188,5.428,5.4084,5.364,5.2773,5.2631,5.2302,5.1634,5.1505,5.0939,4.986,4.9731,4.9674,4.9617,4.9712,4.9938,5.0355,5.1078,5.1967,5.2997,5.3696,5.489,5.6321,5.7273,5.813,5.8949,6.0081,6.1605,6.3168,0.0,0.0,0.0,0.0,0.0,0.0,0.0,0.0,0.0,0.0,0.0,0.0,0.0,0.0,0.0,0.0,0.0,0.0,0.0,0.0,0.0,0.0,2.7307,2.8189,2.8212,2.9952,3.1685,3.3301,3.3378,3.4232,3.5818,3.5801,3.5378,3.4643,3.5359,3.4874,3.3615,0.0,0.0,3.4662,3.5405,0.0,0.0,0.0,0.0,0.0,0.0,0.0,0.0,4.1944,4.2821,4.3737,4.4537,0.0,0.0,0.0,0.0,0.0,4.9324,4.9826,5.0057,5.0014,4.9958,4.9693,4.8866,0.0,0.0,0.0,0.0,0.0,5.123,5.1282,5.1812,5.3404,5.374,5.4024,5.4686,5.3741,5.343,5.4646,5.4885,5.5238,5.5941,5.6,5.5981,5.5905,5.521,5.4381,5.3415,5.2743,5.1953,5.1006,5.0905,5.0807,5.0692,5.1238,5.0697,4.9074,4.9549,4.9456,4.8894,4.9494,5.0296,5.1192,5.137,5.2336,5.3887,5.4002,5.4613,5.5618,5.7248,5.7936,5.8268,5.9917,6.1605,6.3322,0.0,0.0,0.0,0.0,0.0,0.0,0.0,0.0,0.0,0.0,0.0,0.0,0.0,0.0,0.0,0.0,0.0,0.0,0.0,0.0,0.0,2.6342,2.7546,2.8199,2.8184,2.9855,3.1545,3.3254,3.3239,3.4076,3.5736,3.5757,3.5495,3.5067,3.5493,3.525,3.4543,3.5356,3.5482,3.5145,0.0,0.0,0.0,0.0,0.0,0.0,0.0,0.0,0.0,0.0,4.2602,4.3505,4.4318,0.0,0.0,0.0,0.0,0.0,4.8121,4.8546,4.8794,4.8314,4.8877,4.9357,0.0,0.0,0.0,0.0,0.0,0.0,5.1554,0.0,5.2084,5.2919,0.0,5.323,5.358,5.3312,5.3521,5.4661,5.4785,5.4907,5.5284,5.5727,5.5611,5.4666,5.4648,5.4053,5.2685,5.2204,5.1588,5.0663,5.0542,5.05,5.05,5.0679,5.0342,4.9556,4.9728,4.9645,4.9349,4.9645,5.0399,5.1408,5.1408,5.2412,5.4053,5.4053,5.479,5.6022,5.7309,5.8099,5.8776,6.1054,6.2452,6.3463,0.0,0.0,0.0,0.0,0.0,0.0,0.0,0.0,0.0,0.0,0.0,0.0,0.0,0.0,0.0,0.0,0.0,0.0,0.0,0.0,2.5974,2.658,2.7624,2.8316,2.8501,2.9946,3.1513,3.3208,3.32,3.4068,3.5699,3.5718,3.5658,3.5626,3.5665,3.5588,3.5394,3.5626,3.5599,3.5405,0.0,0.0,0.0,0.0,0.0,0.0,0.0,0.0,0.0,0.0,0.0,0.0,0.0,0.0,0.0,4.58,4.6264,4.6844,4.7047,4.7618,4.7942,4.721,0.0,0.0,0.0,0.0,0.0,0.0,0.0,0.0,5.1474,5.2096,5.2496,5.2757,5.2785,5.2813,5.2806,5.3152,5.3702,5.4444,5.4545,5.4591,5.4723,5.5354,5.51,5.3614,5.3906,5.3546,5.218,5.1874,5.1395,5.0721,5.0563,5.05,5.05,5.0212,5.0089,5.0127,4.9917,4.9862,4.9879,4.9862,5.054,5.1675,5.1713,5.2717,5.4346,5.432,5.5057,5.6262,5.7374,5.8432,5.9682,6.2233,6.3207,6.3537,0.0,0.0,0.0,0.0,0.0,0.0,0.0,0.0,0.0,0.0,0.0,0.0,0.0,0.0,0.0,0.0,0.0,0.0,0.0,0.0,2.5743,2.5769,2.7359,2.8588,2.938,3.0263,3.1515,3.3184,3.3206,3.4071,3.5707,3.5707,3.5697,3.5704,3.5704,3.524,3.4543,3.5356,3.5222,3.4546,3.5366,0.0,0.0,0.0,0.0,0.0,0.0,0.0,0.0,0.0,0.0,0.0,0.0,0.0,4.58,4.58,4.5838,4.6071,4.6868,4.7184,4.7287,4.721,4.7273,0.0,0.0,0.0,0.0,4.836,0.0,0.0,0.0,5.1395,5.2757,5.3584,5.3701,5.3701,5.3701,5.3078,5.2869,5.3596,5.3726,5.4047,5.4735,5.4917,5.4584,5.3591,5.2872,5.2353,5.2116,5.1331,5.0833,5.0701,5.0584,5.05,5.05,5.0212,5.0089,5.0127,4.9933,4.9879,4.9879,4.9879,5.0886,5.259,5.2539,5.3595,5.5384,5.5312,5.5364,5.5632,5.7391,5.9064,6.07,6.2579,6.3281,6.3599,0.0,0.0,0.0,0.0,0.0,0.0,0.0,0.0,0.0,0.0,0.0,0.0,0.0,0.0,0.0,0.0,0.0,0.0,0.0,0.0,2.5938,2.647,2.7078,2.8033,2.9458,3.0296,3.1513,3.3184,3.4216,3.5029,3.5648,3.5626,3.5654,3.5643,3.5693,3.551,3.524,3.5549,3.551,3.519,3.5527,3.562,0.0,0.0,0.0,0.0,0.0,0.0,0.0,0.0,4.1893,4.3208,4.2667,4.402,4.5684,4.5181,4.5427,4.5905,4.6187,4.6358,4.6384,4.6341,0.0,0.0,0.0,0.0,0.0,0.0,4.9135,0.0,0.0,0.0,5.2047,5.2845,5.2534,5.2572,5.3662,5.3058,5.2974,5.4245,5.3973,5.3804,5.4041,5.4071,5.3296,5.133,5.1392,5.0975,4.9885,4.9473,4.9444,4.9931,4.9777,4.9963,5.05,5.0259,5.0139,5.0127,4.9959,4.9879,4.9879,4.9879,5.0897,5.2653,5.2627,5.3658,5.544,5.5415,5.5721,5.6384,5.8144,5.9574,6.0852,6.269,6.3353,6.3646,0.0,0.0,0.0,0.0,0.0,0.0,0.0,0.0,0.0,0.0,0.0,0.0,0.0,0.0,0.0,0.0,0.0,0.0,0.0,2.5704,2.598,2.6555,2.6801,2.7595,2.9069,2.9868,3.1241,3.3206,3.4845,3.5626,3.5637,3.5615,3.5643,3.5643,3.5974,3.5947,3.5704,3.5985,3.5897,3.5581,3.5581,3.5546,0.0,0.0,0.0,0.0,0.0,0.0,0.0,0.0,4.1738,4.2821,4.2512,4.3788,4.5374,4.5065,4.544,4.5932,4.5841,4.5906,4.5945,0.0,0.0,0.0,0.0,0.0,0.0,0.0,4.9147,0.0,0.0,0.0,0.0,0.0,5.2038,5.2154,5.3584,5.3058,5.2986,5.4336,5.3806,5.3249,5.3194,5.3208,5.2291,4.9976,5.0298,4.9959,4.8484,4.833,4.8557,4.9101,4.9182,4.9524,5.0078,5.0191,5.0188,5.0089,4.9758,4.9679,4.9879,4.9852,5.0871,5.2653,5.2601,5.3632,5.539,5.5415,5.6141,5.7364,5.8769,5.9893,6.0964,6.2737,6.3376,6.3669,0.0,0.0,0.0,0.0,0.0,0.0,0.0,0.0,0.0,0.0,0.0,0.0,0.0,0.0,0.0,0.0,0.0,0.0,2.5691,2.5704,2.571,2.571,2.6446,2.7312,2.8168,2.8981,3.0653,3.3188,3.4884,3.5676,3.5707,3.5715,3.5704,3.5742,3.6598,3.651,3.5742,3.6637,3.6461,3.5581,3.5581,3.5546,3.5496,0.0,0.0,0.0,0.0,0.0,0.0,0.0,4.1313,4.2164,4.3015,4.3866,4.4755,4.5529,4.588,4.5996,4.5905,4.6007,4.6046,0.0,0.0,0.0,0.0,0.0,4.7582,4.8188,0.0,5.0052,5.092,5.1197,0.0,5.2378,5.2553,5.2874,5.3662,5.3039,5.2813,5.3573,5.2926,5.2382,5.2316,5.2369,5.1644,4.9912,4.9782,4.9381,4.8449,4.8307,4.8265,4.8265,4.8933,4.9238,4.9196,4.9908,5.0212,5.0089,4.9214,4.92,4.9879,4.9835,5.0844,5.2666,5.2574,5.3632,5.5427,5.5499,5.6629,5.8373,5.9134,6.0003,6.1012,6.2775,6.3415,6.3646,0.0,0.0,0.0,0.0,0.0,0.0,0.0,0.0,0.0,0.0,0.0,0.0,0.0,0.0,0.0,0.0,0.0,0.0,2.5683,2.5687,2.5687,2.564,2.5853,2.669,2.8157,3.0125,3.1848,3.3214,3.4835,3.5665,3.5707,3.5643,3.567,3.5742,3.6598,3.651,3.5742,3.6637,3.6461,3.5581,3.5596,3.5572,3.5483,0.0,0.0,0.0,0.0,0.0,0.0,0.0,0.0,0.0,4.1583,4.2912,4.4511,4.415,4.4587,4.5287,4.582,4.5608,0.0,4.5911,0.0,0.0,0.0,4.7856,0.0,0.0,4.9652,4.992,5.0142,5.0286,0.0,5.2329,5.2065,5.1979,5.2767,5.2669,5.2558,5.2758,5.2537,5.2394,5.2382,5.1334,5.0181,4.9045,4.8322,4.7598,4.6668,4.6583,4.6793,4.7378,4.8084,4.8702,4.9196,4.9991,5.0283,5.0163,4.986,4.9758,4.9879,4.9906,5.0924,5.2653,5.3301,5.4256,5.5505,5.6778,5.7656,5.8318,5.9811,6.0503,6.0964,6.2737,6.3415,6.3646,0.0,0.0,0.0,0.0,0.0,0.0,0.0,0.0,0.0,0.0,2.5795,2.5605,0.0,0.0,0.0,0.0,0.0,0.0,0.0,0.0,2.5671,2.5619,2.5921,2.6912,2.8625,3.0801,3.215,3.2663,3.4322,3.5113,3.5214,3.5477,3.562,3.5742,3.6598,3.651,3.5742,3.6637,3.6461,3.5581,3.5596,3.556,3.5483,0.0,0.0,0.0,0.0,0.0,0.0,0.0,0.0,0.0,4.126,4.228,4.362,4.3763,4.4289,4.4968,4.5774,4.5657,0.0,4.5911,4.6629,4.7423,4.8149,0.0,0.0,0.0,4.9847,5.0222,4.987,5.0159,0.0,5.1852,5.1637,5.1559,5.2378,5.2202,5.2092,5.2382,5.2123,5.1928,5.1916,5.0685,4.9532,4.8654,4.7714,4.6823,4.5958,4.5838,4.5997,4.6452,4.7234,4.7972,4.8736,4.9537,5.0023,5.0188,4.9858,4.9759,4.9997,5.0339,5.1266,5.2665,5.3989,5.4893,5.5605,5.7426,5.8141,5.8357,6.0104,6.0988,6.1426,6.2844,6.3561,6.4085,0.0,0.0,2.5465,2.5597,0.0,0.0,0.0,0.0,0.0,0.0,2.6085,2.5585,0.0,0.0,0.0,0.0,0.0,0.0,0.0,0.0,2.5667,2.5605,2.6495,2.7744,2.935,3.0978,3.1792,3.1792,3.3383,3.4311,3.4497,3.5151,3.5593,3.5869,3.6626,3.6549,3.5858,3.6665,3.645,3.5581,3.5596,3.556,3.5522,3.552,0.0,0.0,0.0,0.0,0.0,0.0,0.0,0.0,4.1647,4.1944,4.2318,4.3904,4.4459,4.4743,4.5647,4.589,4.589,4.6025,4.6802,0.0,4.9459,4.9744,4.9428,4.8677,0.0,5.0583,4.9834,5.0342,5.0899,5.0977,5.1101,5.1421,5.2154,5.1639,5.1463,5.2212,5.163,5.1163,5.1086,5.027,4.9415,4.8561,4.761,4.6758,4.5944,4.5852,4.5765,4.568,4.648,4.7201,4.7778,4.8736,4.9455,4.9983,4.9411,4.9477,5.0127,5.0897,5.1809,5.2958,5.4664,5.5461,5.573,5.7497,5.8212,5.8473,6.0165,6.132,6.2204,6.3012,6.3858,6.4705,0.0,0.0,2.7292,2.7412,0.0,0.0,0.0,0.0,0.0,0.0,0.0,0.0,0.0,0.0,0.0,0.0,0.0,0.0,0.0,0.0,2.5629,2.5613,2.7032,2.8332,2.9389,3.038,3.0875,3.0875,3.2501,3.3661,3.4439,3.4488,3.5299,3.6714,3.6864,3.6814,3.6643,3.6848,3.64,3.5581,3.5596,3.5572,3.556,3.5534,3.615,0.0,0.0,0.0,0.0,0.0,0.0,0.0,4.0872,4.1428,4.206,4.2434,4.2648,4.3093,4.4559,4.4569,0.0,4.6653,4.8234,4.9147,4.8692,4.9659,5.0467,4.9742,4.9326,4.9093,4.8963,4.8555,4.8457,4.9136,4.9823,5.033,5.052,5.0938,5.1258,5.1372,5.1268,5.093,5.027,4.9376,4.8522,4.7667,4.6717,4.6087,4.5906,4.5827,4.5757,4.5696,4.6513,4.6694,4.6127,4.8163,4.8924,4.8422,4.9457,5.0035,5.0201,5.1053,5.2641,5.4842,5.5224,5.5476,5.5662,5.7474,5.8212,5.8473,6.0165,6.132,6.2204,6.3012,6.3858,6.4705,0.0,0.0,0.0,0.0,0.0,0.0,0.0,0.0,0.0,0.0,0.0,0.0,0.0,0.0,0.0,0.0,0.0,0.0,0.0,0.0,0.0,2.6817,2.8022,2.9078,2.997,3.038,3.0595,3.0616,3.1844,0.0,0.0,0.0,3.5631,3.6936,3.6903,3.6687,3.6288,3.6261,3.6006,3.5546,3.5584,3.5598,3.5599,3.5944,3.6367,3.692,3.8218,0.0,0.0,0.0,0.0,0.0,0.0,0.0,4.1455,4.1893,4.2055,4.2451,4.3782,4.4141,0.0,4.7408,0.0,4.9123,4.8991,4.934,4.9484,4.8722,4.8926,4.896,4.8176,4.804,4.8301,4.9184,4.9707,5.0135,5.052,5.0938,5.119,5.1136,5.0825,5.0409,4.9992,4.8798,4.7854,4.7377,4.648,4.5929,4.5893,4.5854,4.5993,4.6368,4.6761,4.7135,4.7432,4.8585,4.9175,4.9094,4.9862,5.0656,5.1457,5.1891,5.3339,5.5514,5.5476,5.5485,5.573,5.752,5.8296,5.8473,6.0165,6.155,6.2743,6.3166,6.4128,6.5282,0.0,0.0,0.0,0.0,0.0,0.0,0.0,0.0,0.0,0.0,0.0,0.0,0.0,0.0,0.0,0.0,0.0,0.0,0.0,0.0,0.0,2.8106,2.8745,2.9566,3.0582,3.0595,3.0577,3.0588,0.0,0.0,0.0,0.0,0.0,3.7351,3.734,3.6841,3.6047,3.6033,3.5854,3.5483,3.556,3.5637,3.5776,3.6469,3.6776,3.7123,3.8729,3.9283,3.9398,4.013,0.0,0.0,0.0,0.0,4.0783,4.1377,4.1722,4.2033,4.284,4.4015,4.5577,4.789,4.8642,0.0,4.9458,4.9046,4.8266,4.7323,4.8348,4.8938,4.7356,4.7826,4.8729,4.9417,4.9784,5.0213,5.0909,5.1094,5.1201,5.118,5.0431,4.9858,4.9771,4.8322,4.734,4.7213,4.6445,4.5975,4.5917,4.5919,4.6253,4.7071,4.7008,4.7636,4.8951,4.9143,4.9482,5.0013,5.0344,5.1314,5.2829,5.2908,5.3924,5.557,5.5523,5.5646,5.6006,5.7604,5.8373,5.8642,6.0358,6.1858,6.3128,6.3435,6.4436,6.5705,0.0,0.0,0.0,0.0,0.0,0.0,0.0,0.0,0.0,0.0,2.5661,2.5589,0.0,0.0,0.0,0.0,0.0,0.0,0.0,0.0,0.0,2.8029,2.814,2.8938,3.0543,3.052,3.052,3.052,0.0,0.0,0.0,0.0,0.0,3.9154,0.0,0.0,3.7784,3.7822,3.6922,3.5507,3.5522,3.5932,3.6546,3.6661,3.7161,3.7969,3.8945,3.9292,3.933,3.9446,3.9946,0.0,0.0,0.0,4.0521,3.9973,4.0319,4.0924,4.1098,0.0,4.6191,0.0,4.8711,4.9614,4.8848,4.9149,4.9149,4.752,4.7339,4.7223,4.6335,4.6941,4.7601,4.7743,4.9005,5.0026,5.0157,5.0753,5.1211,5.1201,5.0441,4.9635,4.8933,4.7971,4.7097,4.6346,4.6085,4.5991,4.5917,4.5919,4.6253,4.7071,4.7008,4.7092,4.7306,4.8644,4.8951,4.8355,5.0428,5.195,5.29,5.3642,5.4498,5.5454,5.5402,5.5834,5.6663,5.7781,5.8611,5.9442,6.1219,6.205,6.2435,6.3897,6.4589,6.4897,0.0,0.0,0.0,0.0,0.0,0.0,0.0,0.0,0.0,0.0,0.0,2.557,0.0,0.0,0.0,2.555,2.5518,2.5486,2.5518,2.5917,0.0,0.0,2.8241,2.9068,2.9851,3.0269,3.051,0.0,0.0,0.0,0.0,3.6903,3.8655,0.0,0.0,0.0,0.0,3.8878,3.7848,3.6104,3.6188,3.6406,3.6718,3.7194,3.7647,3.8238,4.0106,4.013,0.0,0.0,4.0631,4.0446,4.0149,0.0,0.0,0.0,3.9739,4.0138,4.0721,4.3083,4.557,4.6406,4.7515,4.8327,4.7805,4.7597,4.7284,4.6506,4.638,4.6293,4.6064,4.6785,4.757,4.8109,4.9208,5.0182,5.0607,5.0987,5.1016,5.0588,4.9761,4.8915,4.8109,4.7237,4.6558,4.6113,4.6085,4.6046,4.598,4.637,4.6991,4.7787,4.8199,4.8651,4.9114,4.974,5.0043,5.0095,5.1599,5.2777,5.358,5.3986,5.4661,5.5465,5.5476,5.5935,5.6816,5.7796,5.8688,5.9533,6.0873,6.1935,6.2858,6.3589,6.4474,6.5436,0.0,0.0,0.0,0.0,0.0,0.0,0.0,0.0,0.0,0.0,0.0,0.0,0.0,0.0,0.0,0.0,2.5483,2.5498,2.5498,2.6049,0.0,0.0,0.0,2.9089,2.9282,3.0105,3.05,0.0,0.0,0.0,3.4384,3.7614,3.9727,0.0,4.1474,0.0,0.0,0.0,0.0,3.6964,3.7577,3.7588,3.7379,3.8522,3.8859,3.8975,4.1412,0.0,0.0,0.0,0.0,0.0,0.0,4.0433,0.0,0.0,0.0,3.9503,4.0868,4.2656,4.4385,4.5424,4.6289,4.6896,4.6797,4.6433,4.6003,4.5765,4.5771,4.5854,4.5975,4.6785,4.7609,4.8351,4.9177,4.9901,5.049,5.0549,5.0354,4.9732,4.8915,4.8115,4.7533,4.6714,4.6154,4.6122,4.6113,4.6076,4.6003,4.6783,4.7559,4.8372,4.9142,4.9924,5.0773,5.0856,5.1195,5.1721,5.2732,5.3551,5.4153,5.4393,5.4901,5.5461,5.5461,5.6113,5.7148,5.7872,5.8803,5.984,6.0988,6.2089,6.3089,6.3743,6.4628,6.5705,0.0,0.0,0.0,0.0,0.0,0.0,0.0,0.0,0.0,0.0,0.0,0.0,0.0,2.5507,2.5484,2.5429,2.5445,2.5492,2.5492,2.553,2.5925,2.6769,0.0,0.0,2.9282,3.0085,0.0,0.0,0.0,0.0,3.4361,3.6974,3.9058,4.0717,4.3337,4.2976,4.0577,0.0,0.0,3.789,3.9805,3.9986,3.9246,4.1184,0.0,4.0717,0.0,0.0,0.0,0.0,0.0,0.0,0.0,0.0,0.0,0.0,0.0,0.0,4.1442,4.2208,4.2741,4.4452,4.5511,4.6124,4.5968,4.6564,4.6888,4.5969,4.5866,4.5932,4.5986,4.6785,4.7454,4.7533,4.828,4.8857,4.8833,4.8816,4.8798,4.8759,4.802,4.7445,4.7392,4.666,4.6177,4.6122,4.6095,4.6056,4.6003,4.6783,4.7559,4.8372,4.9142,4.9924,5.0773,5.1433,5.1774,5.1813,5.3368,5.4211,5.4334,5.5101,5.5399,5.5427,5.5427,5.6384,5.7953,5.8054,5.91,6.0825,6.2526,6.2743,6.2435,6.4859,6.5282,6.4897,0.0,0.0,0.0,0.0,0.0,0.0,0.0,0.0,0.0,0.0,0.0,0.0,0.0,2.5468,2.5484,2.5421,2.5956,2.6328,2.6343,2.6846,2.7319,2.7636,0.0,0.0,0.0,0.0,0.0,0.0,0.0,3.3133,3.348,3.664,3.8414,3.9028,4.179,4.2692,4.2225,4.3053,0.0,0.0,4.0367,4.0714,4.0745,0.0,0.0,0.0,0.0,0.0,0.0,0.0,0.0,0.0,0.0,0.0,0.0,0.0,0.0,3.8675,4.013,4.0946,4.1646,4.2839,4.3363,4.3743,4.4248,4.4605,4.4893,4.5066,4.5531,4.5917,4.5986,4.6785,4.7415,4.7494,4.8241,4.8779,4.8699,4.8681,4.8477,4.7923,4.7582,4.7163,4.6636,4.6349,4.5967,4.5351,4.5802,4.5861,4.525,4.7012,4.8167,4.8438,4.9707,5.0499,5.0738,5.203,5.27,5.2658,5.4303,5.5086,5.5063,5.5416,5.5485,5.5427,5.6098,5.6994,5.803,5.8642,5.9599,6.0825,6.2065,6.2666,6.3051,6.4561,6.5254,6.5667,0.0,0.0,0.0,0.0,0.0,2.7752,0.0,0.0,0.0,0.0,0.0,0.0,0.0,0.0,2.5592,2.587,2.6676,2.7203,2.7217,2.7768,2.8117,2.8117,2.8861,0.0,0.0,0.0,0.0,0.0,0.0,0.0,0.0,3.6292,3.7588,3.7661,3.9766,4.1258,0.0,0.0,0.0,4.0488,0.0,4.1899,4.1771,0.0,0.0,0.0,0.0,0.0,0.0,0.0,0.0,0.0,0.0,0.0,0.0,0.0,0.0,0.0,3.9043,0.0,4.0247,4.0788,4.1163,4.1521,4.2071,4.2412,4.2821,4.3303,4.43,4.5099,4.5152,4.6143,4.6995,4.7072,4.7547,4.7883,4.7834,4.7825,4.7621,4.7009,4.6951,4.6735,4.6152,4.6154,4.5935,4.536,4.581,4.584,4.5278,4.7306,4.8748,4.9276,5.0326,5.0808,5.0701,5.2376,5.3182,5.314,5.4809,5.5615,5.5593,5.5615,5.5723,5.5959,5.6936,5.7604,5.8119,5.8974,5.9893,6.0849,6.2026,6.282,6.3435,6.4677,6.5639,6.6563,0.0,2.7169,2.693,2.7821,2.7967,2.7709,2.6862,0.0,0.0,0.0,0.0,0.0,0.0,0.0,0.0,2.6761,2.7582,2.8055,2.8117,2.8155,2.8194,2.8194,2.8922,0.0,0.0,0.0,0.0,0.0,0.0,0.0,0.0,0.0,3.6685,0.0,3.7608,3.8846,4.0432,0.0,4.2094,4.0735,0.0,4.3621,4.2391,0.0,0.0,0.0,4.6352,4.624,0.0,4.4738,0.0,0.0,0.0,0.0,0.0,0.0,0.0,0.0,0.0,0.0,0.0,3.8415,3.9084,3.9686,3.9575,4.0276,4.0937,4.0926,4.2306,4.351,4.3527,4.4923,4.6115,4.6137,4.6196,4.6183,4.6122,4.6113,4.6104,4.6085,4.6104,4.6113,4.6113,4.6154,4.6162,4.6083,4.6074,4.6104,4.6085,4.7656,4.9278,5.0867,5.0863,5.0794,5.074,5.2376,5.3241,5.328,5.4831,5.566,5.5703,5.5638,5.6076,5.696,5.7805,5.8203,5.8193,5.9086,6.0003,6.1012,6.2666,6.332,6.3551,6.5282,6.6448,6.7306,2.6933,2.7236,2.7441,2.7116,2.7621,2.7978,0.0,0.0,0.0,0.0,0.0,0.0,0.0,0.0,2.6704,2.7605,2.8435,2.8954,2.9055,2.9644,2.9962,2.9977,3.0172,3.0255,0.0,0.0,0.0,0.0,0.0,0.0,0.0,0.0,0.0,0.0,3.7264,3.8098,3.8567,4.0454,0.0,0.0,4.3906,4.453,0.0,0.0,0.0,0.0,0.0,4.6332,4.6344,0.0,4.5597,4.628,0.0,0.0,0.0,0.0,0.0,0.0,3.8481,0.0,0.0,0.0,0.0,0.0,3.8683,3.8973,3.9629,4.1479,4.2752,4.3676,4.4333,4.5346,4.5928,4.5339,4.58,4.6169,4.6122,4.6104,4.6085,4.6115,4.6085,4.6085,4.6085,4.6169,4.592,4.5282,4.5771,4.6122,4.6083,4.8239,4.9937,5.1034,5.1509,5.1734,5.172,5.3321,5.4128,5.4164,5.5182,5.5682,5.5703,5.5682,5.6121,5.6921,5.7851,5.8558,5.9086,5.9994,6.0887,6.182,6.2897,6.3705,6.4359,6.5524,6.6497,6.7306,2.6618,2.6655,2.6805,2.6696,2.7141,2.7629,0.0,0.0,0.0,0.0,0.0,0.0,0.0,0.0,0.0,2.8487,2.9373,2.9901,2.9955,3.0436,3.0722,3.069,3.0653,3.0776,0.0,0.0,0.0,0.0,0.0,0.0,0.0,0.0,0.0,0.0,3.6819,0.0,0.0,0.0,0.0,0.0,4.4083,0.0,0.0,4.697,4.727,0.0,0.0,0.0,4.7585,4.6654,4.654,0.0,0.0,0.0,0.0,0.0,0.0,0.0,0.0,0.0,0.0,0.0,0.0,0.0,3.6882,3.6868,3.7269,3.8754,4.0018,4.1132,4.1993,4.3171,4.3877,4.3389,4.3746,4.4546,4.5888,4.6095,4.6115,4.6115,4.6115,4.6115,4.6115,4.616,4.599,4.5429,4.5849,4.6424,4.7115,4.881,5.0183,5.1062,5.1773,5.2116,5.2124,5.3687,5.4495,5.4511,5.5318,5.5703,5.5703,5.5703,5.6335,5.7505,5.8066,5.895,6.0042,6.0541,6.1296,6.2166,6.2974,6.382,6.4743,6.601,6.7061,6.7894,0.0,2.5729,2.563,2.6651,2.6859,2.7147,0.0,0.0,0.0,0.0,0.0,0.0,0.0,0.0,0.0,0.0,3.0186,3.0692,3.0692,3.0715,3.069,3.069,3.0653,3.1017,3.1878,0.0,0.0,0.0,0.0,0.0,0.0,0.0,0.0,0.0,3.6479,3.7264,0.0,0.0,0.0,4.331,4.4268,4.5153,0.0,0.0,4.8836,4.7674,4.9329,4.942,4.8774,4.8657,4.7504,0.0,0.0,0.0,0.0,0.0,3.913,0.0,0.0,0.0,0.0,0.0,3.5854,0.0,3.4747,3.4552,3.4627,3.4775,3.6005,3.7308,3.8205,3.9686,4.0822,4.0827,4.0881,4.2114,4.5351,4.5754,4.5774,4.6076,4.6008,4.6008,4.6076,4.616,4.6216,4.6238,4.6424,4.7145,4.8522,4.9458,5.0287,5.1101,5.192,5.2305,5.2239,5.3861,5.4649,5.4647,5.5357,5.5703,5.5703,5.5703,5.6665,5.8319,5.8319,5.9242,6.0781,6.0781,6.132,6.2166,6.2974,6.382,6.4782,6.6434,6.7702,6.8714,2.5513,2.5291,2.5734,2.7392,2.77,0.0,0.0,0.0,0.0,0.0,0.0,0.0,0.0,0.0,0.0,0.0,3.0424,3.0568,3.0629,3.0653,3.0715,3.069,3.0683,3.1064,3.1864,3.1891,0.0,0.0,0.0,0.0,0.0,0.0,0.0,0.0,3.7333,3.8115,0.0,0.0,0.0,4.4141,4.5093,0.0,4.7115,4.9668,5.007,4.9335,5.0341,5.0603,5.0336,4.9015,4.7514,4.5903,0.0,0.0,0.0,0.0,0.0,0.0,0.0,0.0,0.0,0.0,0.0,0.0,3.3857,3.3658,3.4044,3.5372,3.5949,3.6426,3.7279,3.8293,3.9009,3.9008,3.9579,4.0989,4.3693,4.3498,4.3794,4.5852,4.5472,4.5317,4.6047,4.6104,4.6394,4.7086,4.8448,4.9051,4.8599,5.0052,5.0908,5.1101,5.2492,5.3188,5.3142,5.4786,5.5596,5.5535,5.5647,5.5703,5.5703,5.5703,5.6665,5.8319,5.8319,5.9242,6.0781,6.0781,6.132,6.2166,6.2974,6.382,6.4705,6.5818,6.7239,6.8621,2.5297,2.5198,2.5677,2.7065,0.0,0.0,0.0,0.0,0.0,0.0,0.0,0.0,0.0,0.0,0.0,0.0,0.0,0.0,0.0,0.0,3.246,3.2025,3.153,3.1903,3.3184,3.3188,3.3838,0.0,0.0,0.0,0.0,0.0,0.0,0.0,0.0,0.0,0.0,0.0,4.2919,4.5673,4.5272,0.0,4.7287,4.9428,4.9714,4.9173,5.0426,5.0937,5.0815,4.9171,4.8097,0.0,0.0,4.3989,4.3579,0.0,3.9213,3.933,0.0,0.0,0.0,3.5463,0.0,0.0,0.0,3.3044,3.3001,3.3812,3.4007,3.4278,3.5147,3.5662,3.6111,3.6516,3.6623,3.75,4.0053,4.1844,4.3669,4.5794,4.4919,4.4656,4.5949,4.5326,4.5538,4.7289,4.8603,4.9323,4.9243,5.0452,5.1321,5.1748,5.2908,5.37,5.4044,5.5305,5.5905,5.5865,5.5766,5.5745,5.5745,5.6186,5.7049,5.8319,5.8704,5.9627,6.0781,6.0781,6.132,6.2166,6.2974,6.3844,6.4792,6.6136,6.7479,6.8706,2.5309,2.5362,2.5793,2.6757,0.0,0.0,0.0,0.0,0.0,0.0,0.0,0.0,0.0,0.0,0.0,0.0,0.0,0.0,0.0,0.0,0.0,3.3828,3.2742,3.2912,3.4481,3.4495,3.4912,0.0,0.0,0.0,0.0,0.0,0.0,0.0,0.0,0.0,0.0,0.0,0.0,4.6714,0.0,4.5843,4.7697,4.9467,4.9598,4.9019,5.0387,5.099,5.0843,4.9159,4.8633,4.8132,4.4777,4.4302,0.0,0.0,0.0,0.0,0.0,0.0,0.0,0.0,0.0,3.4258,0.0,0.0,0.0,3.1828,3.1752,3.1872,3.2773,3.2929,3.3201,3.4058,3.3621,3.4083,3.6811,3.9992,4.2649,4.4356,4.3216,4.2952,4.4628,4.405,4.4503,4.6744,4.802,4.8905,4.9391,5.0553,5.1579,5.2356,5.3169,5.3979,5.4713,5.5573,5.5961,5.5905,5.5865,5.5787,5.5825,5.6631,5.7473,5.8357,5.9165,6.0089,6.105,6.0858,6.1396,6.2397,6.3051,6.3869,6.4902,6.6453,6.7757,6.879,2.5133,2.5742,2.6591,2.7582,0.0,0.0,0.0,0.0,0.0,0.0,0.0,0.0,0.0,0.0,0.0,0.0,0.0,0.0,3.5524,0.0,0.0,3.5531,3.399,3.3602,3.4567,3.4544,3.4917,3.581,0.0,0.0,0.0,0.0,0.0,0.0,3.8901,0.0,0.0,0.0,4.3428,0.0,4.5626,4.7109,0.0,5.1354,5.147,5.0719,5.0828,5.0981,5.0843,0.0,4.8699,4.8191,0.0,4.4285,4.4298,4.0792,0.0,0.0,0.0,0.0,0.0,0.0,3.4763,0.0,0.0,0.0,3.0117,3.0897,0.0,3.0146,3.1015,0.0,0.0,3.2264,3.23,3.3424,3.6711,3.6967,3.7375,3.9052,3.8449,3.8578,4.0266,4.2337,4.4051,4.5087,4.7367,4.8409,4.7729,4.9904,5.1579,5.2356,5.3169,5.3979,5.48,5.559,5.6018,5.6,5.5885,5.5787,5.5825,5.6631,5.7473,5.8357,5.9165,6.0435,6.1897,6.1127,6.1743,6.3166,6.3281,6.3869,6.4802,6.5797,6.7216,6.8712,2.5168,2.5903,2.665,2.7072,0.0,0.0,0.0,0.0,0.0,0.0,0.0,0.0,0.0,0.0,0.0,0.0,0.0,4.0393,0.0,0.0,0.0,0.0,0.0,0.0,3.6759,3.5732,3.5396,3.5793,3.5775,0.0,0.0,0.0,0.0,0.0,3.9805,0.0,4.4202,0.0,4.5582,0.0,0.0,0.0,0.0,5.0666,5.0859,5.1005,5.0921,5.0952,5.0868,0.0,4.9362,0.0,0.0,0.0,0.0,0.0,0.0,0.0,0.0,0.0,0.0,0.0,0.0,0.0,3.3512,0.0,3.0463,0.0,0.0,0.0,0.0,0.0,0.0,0.0,3.1714,3.2055,3.3952,3.3519,3.4515,3.8669,3.7559,3.6913,3.811,4.0598,4.2493,4.335,4.4851,4.624,4.732,4.9342,5.1264,5.3093,5.392,5.4769,5.5606,5.5874,5.6016,5.6016,5.6425,5.6599,5.6598,5.7906,5.871,5.9088,6.0435,6.1127,6.1358,6.1512,6.2243,6.332,6.3368,6.3916,6.491,6.6306,6.7647,6.8812,2.5236,0.0,0.0,0.0,0.0,0.0,0.0,0.0,0.0,0.0,0.0,0.0,3.7597,3.8782,0.0,0.0,0.0,4.3491,0.0,0.0,4.0779,0.0,0.0,0.0,0.0,0.0,3.6569,3.685,0.0,0.0,0.0,0.0,0.0,0.0,0.0,4.2407,4.5144,0.0,4.6849,5.0416,5.0555,5.0671,5.0649,5.0147,5.0287,5.0704,5.0828,5.065,5.0308,4.9925,4.972,0.0,4.7657,0.0,0.0,0.0,0.0,0.0,3.9957,0.0,0.0,0.0,0.0,0.0,0.0,0.0,0.0,0.0,0.0,0.0,0.0,0.0,0.0,0.0,0.0,3.1164,3.1983,3.1392,3.2466,3.674,3.6055,3.5758,3.7084,3.8945,4.0577,4.1863,4.2763,4.4158,4.6255,4.8603,5.0869,5.2935,5.4245,5.5327,5.618,5.6062,5.6012,5.6012,5.6809,5.7159,5.7178,5.8852,5.9672,5.9935,6.1435,6.1858,6.155,6.219,6.2921,6.3666,6.3762,6.4486,6.565,6.693,6.7978,6.8872,2.5384,2.6512,0.0,0.0,0.0,0.0,0.0,0.0,0.0,0.0,0.0,0.0,0.0,0.0,0.0,0.0,0.0,4.6154,4.3558,0.0,4.2595,0.0,0.0,4.0019,0.0,0.0,3.8735,3.9582,0.0,0.0,0.0,0.0,0.0,0.0,0.0,4.1751,4.3347,4.4227,4.6056,4.8491,4.9335,4.9691,4.9843,0.0,5.0511,4.9908,5.0619,0.0,0.0,4.9562,4.9332,0.0,0.0,0.0,0.0,0.0,0.0,0.0,0.0,0.0,0.0,3.9805,0.0,0.0,0.0,0.0,2.986,0.0,0.0,0.0,0.0,0.0,0.0,0.0,0.0,0.0,0.0,3.14,3.0955,3.1064,3.2505,3.4456,3.6953,3.7315,3.845,4.0941,4.1939,4.2802,4.3684,4.765,5.0296,5.1268,5.3637,5.5327,5.618,5.6062,5.6012,5.6012,5.6809,5.7197,5.7255,5.8852,6.0019,6.0819,6.1704,6.2512,6.3243,6.3315,6.383,6.4576,6.4694,6.5743,6.7232,6.7354,6.7956,6.8828,2.7159,0.0,0.0,0.0,0.0,0.0,0.0,3.3945,0.0,0.0,0.0,0.0,0.0,4.5421,4.6221,0.0,0.0,4.697,4.613,4.4806,0.0,0.0,0.0,4.2187,0.0,0.0,4.026,4.0471,0.0,0.0,0.0,0.0,0.0,0.0,0.0,4.202,0.0,0.0,0.0,0.0,0.0,5.055,5.054,0.0,4.9945,4.9741,4.9364,4.9659,0.0,4.9912,4.9648,4.9382,4.8872,4.7951,4.6821,4.5685,4.4774,4.3859,0.0,0.0,4.1406,4.085,0.0,0.0,0.0,0.0,0.0,0.0,0.0,0.0,0.0,0.0,0.0,0.0,0.0,0.0,0.0,3.1364,3.1239,3.2402,3.3029,3.3729,3.4615,3.5732,3.679,3.7669,3.909,4.0498,4.1852,4.5435,4.8591,5.1125,5.3081,5.4788,5.618,5.6062,5.6012,5.6012,5.6845,5.7525,5.8027,5.9163,6.041,6.1666,6.1973,6.2551,6.332,6.3392,6.3869,6.4691,6.5357,6.6283,6.7268,6.7988,6.879,6.9684,2.8499,0.0,0.0,0.0,0.0,0.0,0.0,0.0,0.0,0.0,4.0859,0.0,4.6364,0.0,4.8046,0.0,4.8273,4.8175,4.7922,4.6317,0.0,4.8708,4.5567,0.0,0.0,4.4026,4.2914,4.3189,0.0,4.0994,0.0,0.0,0.0,0.0,0.0,4.2044,4.4202,4.5363,4.7129,0.0,0.0,5.1455,0.0,0.0,5.0231,4.9769,0.0,4.9674,5.0051,4.9536,4.9392,4.9401,4.9139,4.8358,4.7328,4.646,4.5867,4.5151,4.371,4.3085,0.0,4.1384,3.9855,0.0,3.9227,0.0,3.7113,0.0,0.0,0.0,0.0,0.0,0.0,0.0,0.0,0.0,0.0,3.1601,3.1677,3.2797,3.3192,3.3625,3.4248,3.535,3.6132,3.6441,3.7809,3.9211,4.0603,4.4441,4.7781,5.0226,5.277,5.4788,5.618,5.6062,5.6012,5.6012,5.7193,5.795,5.8451,5.9588,6.0834,6.2127,6.2421,6.2844,6.3358,6.4055,6.4479,6.4754,6.6058,6.7,6.7793,6.8806,6.9723,7.0595,2.9336,2.9175,0.0,0.0,3.1805,0.0,0.0,0.0,4.0687,0.0,4.5078,4.7067,4.9712,5.0725,5.0938,5.014,4.9993,4.9629,4.8925,4.7196,0.0,0.0,4.7167,4.7028,4.8839,4.7041,4.6519,0.0,0.0,0.0,0.0,0.0,0.0,0.0,4.0876,0.0,4.3401,4.5169,4.6883,4.8655,5.1238,5.2291,5.2361,5.2399,5.1392,5.0012,5.0573,4.993,4.8734,4.8528,4.8526,4.8448,4.766,4.7416,4.7279,4.6421,4.6261,4.6088,4.5195,4.4331,4.3297,4.1579,3.9937,0.0,0.0,0.0,3.7578,0.0,0.0,0.0,0.0,0.0,0.0,0.0,0.0,0.0,0.0,3.2186,3.2187,3.2214,3.2962,3.4101,3.578,3.5937,3.6288,3.7183,3.8046,3.8904,3.9783,4.445,4.754,4.8538,5.2433,5.4992,5.5962,5.5946,5.5935,5.5973,5.7698,5.8491,5.8528,6.0123,6.1312,6.2228,6.3007,6.3392,6.3575,6.5341,6.5572,6.5018,6.6791,6.8033,6.8944,6.9761,7.0595,7.1407,3.0304,2.967,2.9803,0.0,3.4369,3.6712,0.0,0.0,0.0,0.0,4.4338,4.5694,4.9646,5.0212,5.0502,5.0936,4.9789,0.0,0.0,0.0,0.0,4.9645,4.7479,4.7312,4.9697,4.7411,0.0,4.8253,0.0,0.0,4.4375,0.0,0.0,0.0,0.0,0.0,4.3401,4.5128,4.7511,5.0387,5.2376,5.3182,5.3236,0.0,5.3104,5.1431,4.9674,5.0051,5.097,4.8387,4.8044,4.8516,4.766,4.7019,4.6488,4.6265,4.6249,4.5961,4.4452,4.3862,4.3453,4.2321,4.1267,4.0795,0.0,0.0,0.0,0.0,0.0,0.0,0.0,0.0,0.0,0.0,0.0,0.0,0.0,0.0,0.0,3.3945,3.4219,3.4531,3.4995,3.5038,3.5382,3.6289,3.7148,3.8007,3.8905,4.135,4.3968,4.6746,4.8466,5.0335,5.2469,5.4217,5.5126,5.5126,5.7407,5.88,5.9377,5.9777,6.1103,6.3045,6.2683,6.3592,6.5311,6.5247,6.5749,6.6746,6.7978,6.9336,7.0651,7.0866,7.1098,7.1407,3.1311,3.0743,0.0,3.3325,0.0,0.0,3.9838,0.0,0.0,4.685,4.6391,0.0,5.0784,5.12,5.1218,5.1295,5.0447,0.0,5.001,0.0,0.0,5.1132,4.8728,4.8716,5.1687,4.9205,0.0,4.9751,0.0,0.0,4.4724,0.0,0.0,0.0,0.0,4.2625,4.3585,4.6371,4.9079,5.1657,5.3382,5.4288,0.0,5.5122,5.452,5.3104,5.0859,5.0555,5.079,4.8115,4.7617,4.7981,4.7125,4.6551,4.622,4.6214,4.6261,4.5994,4.4647,4.4254,4.4047,4.318,4.2591,4.2591,4.3954,4.4263,4.4142,0.0,4.4601,4.4943,0.0,0.0,0.0,0.0,0.0,0.0,0.0,0.0,0.0,0.0,3.4683,3.4837,3.5234,3.5268,3.5457,3.5971,3.6796,3.7695,3.8555,4.0543,4.3066,4.6098,4.8032,5.0228,5.278,5.489,5.6094,5.6504,5.8219,5.9321,5.9765,6.0453,6.1511,6.2882,6.3213,6.42,6.5473,6.5484,6.6218,6.7486,6.8812,7.0131,7.133,7.1717,7.1872,7.1988,3.2609,0.0,0.0,0.0,0.0,0.0,0.0,4.4642,0.0,4.9908,0.0,4.9814,5.2467,5.274,5.237,5.1529,0.0,5.1011,5.0069,4.9859,5.0581,5.2468,5.0126,5.0381,5.3832,5.1452,5.0555,0.0,0.0,0.0,0.0,0.0,0.0,0.0,0.0,0.0,0.0,4.8316,5.0907,5.2616,5.4288,5.5393,5.6012,5.6012,5.5432,5.4426,5.2917,5.1392,4.9821,4.7844,4.7345,4.7397,4.6424,4.6162,4.6181,4.6195,4.6239,4.6122,4.5234,4.4997,4.4796,4.3922,4.3684,4.3915,4.4649,4.4918,4.4996,4.4996,4.5655,4.6002,4.5304,0.0,0.0,0.0,0.0,0.0,0.0,0.0,0.0,0.0,0.0,0.0,3.6111,3.5962,3.5884,3.5994,3.6714,3.7578,3.8555,4.082,4.3356,4.6101,4.92,5.2014,5.4582,5.6466,5.7744,5.8484,5.9611,6.0133,6.0191,6.167,6.242,6.2639,6.4226,6.4921,6.5054,6.5874,6.6745,6.7746,6.9375,7.0518,7.1407,7.2297,7.2684,7.2877,3.5016,0.0,0.0,0.0,0.0,4.3335,4.4261,4.5449,4.7401,5.0756,4.9724,4.9991,5.3325,5.3033,5.2536,5.2403,5.1717,0.0,0.0,0.0,0.0,5.1518,4.9809,5.0413,5.3813,5.2052,5.1472,0.0,0.0,0.0,0.0,0.0,0.0,0.0,0.0,0.0,4.7761,4.9899,0.0,5.3436,5.5122,5.5857,5.6012,5.6012,5.5045,5.3691,5.3382,5.267,5.1372,4.8231,4.7772,4.8205,4.66,4.6138,4.6229,4.6281,4.628,4.6119,4.5255,4.4987,4.4796,4.3922,4.3716,4.3751,4.3876,4.4493,4.4996,4.5008,4.5672,4.6253,4.6089,0.0,0.0,0.0,0.0,0.0,0.0,0.0,0.0,0.0,0.0,3.8495,3.7204,3.5759,3.5213,3.5952,3.6152,3.6907,3.8516,3.9687,4.214,4.6092,4.8132,5.0399,5.2884,5.5954,5.7557,5.7746,6.0574,6.193,6.1891,6.2832,6.3681,6.4419,6.4749,6.5311,6.5972,6.6147,6.7152,6.864,6.9628,7.0518,7.1407,7.2297,7.3071,7.3806,0.0,0.0,0.0,0.0,0.0,0.0,0.0,4.784,5.0176,5.1865,5.0907,5.1245,5.4261,5.4209,5.3759,5.329,5.2894,5.2292,5.1466,5.1068,5.163,5.3357,5.1732,0.0,5.517,5.3096,5.2173,5.2553,0.0,0.0,0.0,0.0,0.0,4.2502,0.0,4.693,0.0,0.0,0.0,5.3646,5.5349,5.6029,5.5935,5.5526,5.4597,5.3459,5.3027,5.2375,5.1372,4.9278,4.8316,4.7894,4.7028,4.6512,4.6231,4.627,4.6286,4.6222,4.5792,4.5682,4.5567,4.5168,4.5043,4.5039,4.5051,4.5356,4.5664,4.5672,4.6027,4.6296,4.6288,4.5216,0.0,0.0,0.0,0.0,0.0,0.0,0.0,0.0,0.0,0.0,0.0,3.6813,3.6228,3.6657,3.6657,3.7448,3.9178,3.9687,4.1442,4.4805,4.6976,4.927,5.1793,5.603,5.8362,5.8832,6.1729,6.309,6.3051,6.3843,6.45,6.4984,6.5371,6.5817,6.6263,6.7191,6.8042,6.8932,7.017,7.1214,7.2065,7.2955,7.3806,7.4579,0.0,3.808,0.0,0.0,4.2849,0.0,4.6551,4.9958,5.2572,5.294,5.2533,5.3058,5.5243,5.5471,5.5138,5.4234,5.4164,5.3793,5.2968,5.3582,5.4303,5.5001,5.3889,5.417,5.6168,5.4372,5.3341,0.0,0.0,0.0,0.0,0.0,0.0,0.0,0.0,0.0,0.0,0.0,5.3776,5.4181,5.5536,5.6062,5.5913,5.5094,5.4281,5.3398,5.2578,5.177,5.0959,5.0106,4.886,4.766,4.7495,4.6852,4.6225,4.627,4.6289,4.6309,4.6303,4.63,4.63,4.63,4.6292,4.6284,4.6296,4.6292,4.6323,4.653,4.669,4.6846,4.6835,4.6236,0.0,0.0,0.0,0.0,0.0,0.0,0.0,0.0,0.0,0.0,3.9976,3.9,3.8297,3.8102,3.7594,3.8068,3.9797,4.0233,4.1757,4.4681,4.7039,4.9637,5.255,5.6931,5.949,6.0336,6.2881,6.4072,6.4038,6.4832,6.5258,6.5335,6.5935,6.6322,6.6572,6.7965,6.8738,6.9203,7.0518,7.1678,7.2723,7.3574,7.4425,7.516,0.0,0.0,0.0,0.0,0.0,0.0,4.8405,5.0225,5.2099,5.3661,5.4506,5.5309,5.6274,5.6374,5.601,5.5152,5.5081,5.4736,5.3933,5.3943,5.4025,5.4133,5.4663,5.506,5.5229,5.5784,5.5657,0.0,0.0,5.0607,0.0,0.0,0.0,0.0,0.0,0.0,0.0,5.3494,5.4474,5.5885,5.604,5.6117,5.6001,5.5149,5.4258,5.3391,5.2593,5.1784,5.0959,5.0105,4.9271,4.8448,4.7717,4.6898,4.6228,4.6287,4.6289,4.6287,4.6309,4.63,4.63,4.63,4.6245,4.6236,4.6296,4.6245,4.6431,4.7311,4.8057,4.8564,4.8564,4.8482,4.7619,0.0,0.0,0.0,0.0,0.0,4.1042,4.1835,0.0,0.0,4.439,4.2907,4.1579,4.0798,3.8609,3.8063,3.9825,4.1326,4.4061,4.8194,5.0094,5.298,5.7039,5.9075,6.0483,6.1304,6.3842,6.5041,6.4993,6.5851,6.626,6.6242,6.6283,6.669,6.7384,6.7539,6.8506,6.9899,7.0054,7.1137,7.2723,7.3574,7.4425,7.5353,0.0,0.0,0.0,0.0,0.0,0.0,0.0,5.1152,5.3025,5.321,5.442,5.5621,5.6419,5.6497,5.5939,5.4492,5.5347,5.4976,5.2545,5.4367,5.5079,5.4064,5.5288,5.5957,5.587,5.6232,5.5979,0.0,0.0,0.0,0.0,0.0,0.0,0.0,0.0,5.2678,5.4381,5.49,5.5559,5.6164,5.6141,5.618,5.6009,5.4667,5.3892,5.3398,5.207,5.136,5.0959,5.013,4.9332,4.8564,4.7747,4.6916,4.6205,4.6285,4.6317,4.6317,4.6303,4.63,4.63,4.63,4.6288,4.6284,4.6296,4.6639,4.7099,4.7506,4.8252,4.8798,4.879,4.8794,4.8283,4.6738,0.0,0.0,0.0,0.0,0.0,4.3925,0.0,4.4429,0.0,4.3414,4.2474,4.2662,4.0285,3.9156,3.9858,4.1482,4.3904,4.7215,4.9458,5.2434,5.6145,5.9434,6.1422,6.2211,6.4779,6.6023,6.5934,6.6306,6.67,6.7113,6.7096,6.7581,6.8374,6.8837,6.9396,7.0092,7.1137,7.2297,7.3496,7.4309,7.5508,7.6823,4.6972,0.0,4.5935,0.0,4.7851,4.8569,4.9379,5.2077,5.386,5.3513,5.4966,5.625,5.6803,5.6887,5.6173,5.4359,5.5372,5.4964,5.2259,5.4669,5.5621,5.4416,5.5717,0.0,5.5684,5.6134,5.595,5.5112,5.5103,0.0,0.0,0.0,0.0,0.0,5.3417,5.4452,5.5226,5.5893,5.618,5.6194,5.6185,5.6185,5.6001,5.4322,5.3663,5.3402,5.1722,5.1127,5.0984,4.9881,4.9148,4.8564,4.7738,4.6883,4.621,4.6273,4.63,4.63,4.63,4.63,4.63,4.63,4.6292,4.6288,4.63,4.6917,4.765,4.8209,4.8993,4.9575,4.9571,4.9575,4.9298,4.8415,0.0,0.0,0.0,4.5699,0.0,0.0,4.5207,4.5277,4.6378,4.4937,4.4309,4.5156,4.3092,4.1573,4.103,4.2612,4.4843,4.7725,5.0274,5.3259,5.6692,6.0223,6.2366,6.3164,6.5512,6.6606,6.6567,6.6538,6.692,6.767,6.7638,6.822,6.9305,6.9825,7.0131,7.0518,7.2026,7.3148,7.4038,7.5082,7.6436,7.7867,4.8842,4.796,4.7921,4.9637,4.8561,4.8304,5.0976,5.2863,5.4306,5.5148,5.6788,5.7832,5.7791,5.7779,5.7063,5.5333,5.5194,5.4812,5.3916,5.4697,5.521,0.0,0.0,5.5684,5.397,5.5541,5.596,5.5103,0.0,0.0,5.2572,0.0,5.2071,5.3715,5.4543,5.5341,5.6078,5.6164,5.6209,5.6199,5.6199,5.6199,5.6005,5.4336,5.3715,5.3482,5.1735,5.1139,5.093,4.9182,4.8652,4.8552,4.7747,4.6883,4.621,4.6273,4.63,4.63,4.63,4.63,4.63,4.63,4.6292,4.6288,4.63,4.6917,4.8001,4.9692,5.075,5.1375,5.1375,5.1375,5.1063,5.02,0.0,0.0,0.0,4.7484,0.0,4.7474,4.7537,4.8196,4.9895,4.8529,4.7904,4.8751,4.7221,4.5469,4.3762,4.5302,4.7812,5.1244,5.3877,5.687,6.0315,6.2017,6.3325,6.4201,6.5874,6.6691,6.6708,6.6646,6.7034,6.7811,6.767,6.8586,7.0176,7.0057,7.0518,7.1369,7.2258,7.3148,7.4115,7.5779,7.6939,7.7945,5.0533,5.0252,5.0213,5.0774,5.0416,5.0346,5.1278,5.2884,5.4112,5.4377,5.6454,5.7851,5.7804,5.7818,5.6836,0.0,5.5372,5.4964,0.0,5.4669,5.5616,5.444,5.575,5.623,5.5606,5.6182,5.6299,5.5987,0.0,0.0,0.0,5.3969,5.4038,5.4582,5.5423,5.5913,5.6156,5.617,5.6238,5.6278,5.6278,5.6278,5.6162,5.5035,5.422,5.356,5.2394,5.1268,5.0153,4.8988,4.8253,4.7648,4.6872,4.6459,4.6289,4.6273,4.63,4.63,4.63,4.63,4.63,4.63,4.63,4.6452,4.6991,4.8235,4.9606,5.0746,5.1219,5.1414,5.1414,5.1414,5.1297,5.1023,5.0746,0.0,5.02,0.0,4.9501,5.0107,4.8616,4.8226,4.9914,4.9602,4.917,4.8853,4.9423,4.8244,4.4781,4.6788,4.91,5.1327,5.5606,5.9261,6.2149,6.3812,6.5081,6.5901,6.6486,6.6732,6.6708,6.7241,6.7956,6.8773,6.9234,7.0076,7.1066,7.093,7.1407,7.2258,7.3148,7.4347,7.574,7.6862,7.8177,7.9492,5.1342,5.0789,5.0431,5.0796,5.0821,5.1055,5.1765,5.337,5.4594,5.4939,5.6688,5.7768,5.7343,5.7584,0.0,5.4489,5.5319,5.4957,5.2448,5.4663,5.5733,5.4987,5.6257,5.6666,5.5974,5.6636,0.0,5.6425,5.6766,5.6485,5.5599,5.5508,5.5462,5.5436,5.598,5.6213,5.6199,5.6213,5.6278,5.6291,5.6291,5.6291,5.6214,5.532,5.4465,5.3572,5.2717,5.1319,4.9776,4.8882,4.8069,4.7267,4.6449,4.6264,4.6287,4.6315,4.63,4.63,4.63,4.63,4.63,4.63,4.6534,4.7077,4.8235,4.9328,5.0343,5.121,5.141,5.1414,5.1414,5.1414,5.1414,5.1414,5.1414,5.1414,5.1414,0.0,5.0438,0.0,0.0,4.9524,5.093,5.1675,5.1833,5.1283,5.2248,5.1695,4.9007,5.0107,5.1753,5.3788,5.8194,6.1651,6.3945,6.5306,6.6226,6.6736,6.7087,6.7209,6.7236,6.8004,6.8888,6.9759,7.0153,7.0804,7.1581,7.1804,7.2169,7.2745,7.3906,7.5221,7.6552,7.7751,7.9052,8.0314,5.1375,5.003,4.9198,0.0,5.0205,5.0796,5.2596,5.4197,5.5528,5.6483,5.7291,5.746,5.6587,5.7239,5.701,5.5355,0.0,0.0,5.4125,5.4846,5.5678,5.6464,5.7271,5.6978,5.5404,5.6964,5.7385,5.6589,5.7264,5.7186,5.6386,5.6347,5.629,5.6291,5.6291,5.6278,5.6199,5.6278,5.6291,5.6291,5.6291,5.6291,5.6214,5.5398,5.4504,5.3572,5.2807,5.1369,4.9776,4.8904,4.8049,4.7276,4.6449,4.6236,4.628,4.6317,4.6303,4.6303,4.63,4.63,4.63,4.63,4.6999,4.8127,4.9718,5.0143,5.0421,5.124,5.1406,5.1414,5.1492,5.1492,5.1492,5.157,5.1531,5.1492,5.1488,5.0733,5.0494,5.1379,5.1472,5.1828,5.2716,5.4295,5.5312,5.5306,5.5419,5.5494,5.5494,5.4867,5.5573,5.7925,6.1287,6.3884,6.5585,6.6405,6.6829,6.6889,6.7703,6.8096,6.8115,6.895,6.9768,7.0609,7.0512,7.0961,7.1855,7.2496,7.2832,7.3041,7.4591,7.5747,7.6784,7.8409,7.9579,8.0516,0.0,0.0,5.1011,5.1863,5.2012,5.259,5.432,5.4948,5.5513,5.6411,5.6762,5.6797,5.6548,5.6698,5.6641,5.6207,5.6184,5.6081,5.5893,5.6118,5.6358,5.6491,5.6719,5.69,5.7096,5.7541,5.7705,5.7502,5.7026,5.6658,5.6398,5.6397,5.6364,5.629,5.6239,5.6226,5.6278,5.6226,5.6265,5.6291,5.6291,5.6291,5.6291,5.6083,5.5034,5.3701,5.3514,5.1919,4.977,4.8934,4.8106,4.7252,4.6449,4.6201,4.6222,4.6289,4.628,4.6315,4.6303,4.63,4.63,4.6292,4.7406,4.8794,4.9859,5.0595,5.1096,5.1357,5.1401,5.1601,5.2273,5.239,5.2624,5.3288,5.2819,5.2381,5.2406,5.163,5.1414,5.2292,5.2407,5.2728,5.3626,5.4674,5.531,5.5287,5.6528,5.727,5.727,5.8914,5.9546,5.8823,6.2178,6.4497,6.5585,6.6405,6.7136,6.7805,6.8622,6.8982,6.9011,6.9868,7.0375,7.0648,7.1161,7.1846,7.2617,7.2694,7.349,7.4629,7.5011,7.6436,7.8409,7.8834,7.9966,8.1329,5.1396,5.1391,5.1542,5.196,5.2688,5.3494,5.4461,5.5269,5.5951,5.6452,5.6553,5.6719,5.7055,5.6743,5.6659,5.707,5.6719,5.6485,5.6485,5.6899,5.7133,5.7109,5.7499,5.7875,5.8273,5.832,5.8172,5.7783,5.7307,5.6823,5.6446,5.6407,5.6375,5.6325,5.6291,5.6278,5.6317,5.6278,5.6291,5.6341,5.6304,5.6317,5.6341,5.6302,5.524,5.3751,5.3807,5.2124,4.978,4.8954,4.8124,4.7299,4.646,4.624,4.6253,4.6287,4.6289,4.6287,4.6317,4.6312,4.6387,4.6757,4.8137,4.9517,4.9997,5.0732,5.1317,5.1386,5.1391,5.1674,5.2546,5.2702,5.2858,5.3327,5.2667,5.1968,5.157,5.1449,5.1726,5.2599,5.3752,5.4822,5.5698,5.6554,5.707,5.7074,5.8319,5.9217,5.9607,6.133,6.1854,6.0896,6.3506,6.5481,6.6731,6.7576,6.8216,6.8656,6.9518,6.9879,6.9907,7.0765,7.1165,7.1214,7.1611,7.2237,7.3016,7.3317,7.4166,7.5314,7.5658,7.7086,7.8998,7.9037,8.0167,8.1646,5.1414,5.1523,5.1596,5.1591,5.2974,5.4086,5.4086,5.545,5.651,5.651,5.6665,5.6992,5.7568,5.706,5.6938,5.7562,5.6926,5.6563,5.668,5.7401,5.7791,5.7811,5.863,5.9053,5.8991,5.9147,5.8796,5.7977,5.7806,5.7282,5.6503,5.6417,5.6386,5.6386,5.6329,5.6317,5.6302,5.6317,5.6341,5.6386,5.6329,5.6341,5.6386,5.6325,5.5264,5.3786,5.3818,5.2144,4.979,4.898,4.8187,4.7359,4.6454,4.6236,4.6292,4.6319,4.6285,4.6287,4.6286,4.628,4.6507,4.7455,4.8794,4.9978,5.0212,5.0796,5.131,5.1369,5.1503,5.1869,5.2741,5.3014,5.3132,5.3253,5.2326,5.1433,5.0967,5.1307,5.2038,5.3162,5.5366,5.7143,5.8007,5.8789,5.9294,5.9577,6.0198,6.1013,6.2032,6.293,6.338,6.3398,6.484,6.6396,6.807,6.9093,6.9575,6.9522,7.0394,7.0795,7.0814,7.1516,7.1838,7.1906,7.2053,7.255,7.3375,7.4146,7.4933,7.5677,7.6342,7.7599,7.9028,7.9106,8.0213,8.1751,5.1414,5.1999,5.2498,5.2434,5.3832,5.4996,5.5014,5.5847,5.6485,5.6497,5.7143,5.7387,5.6836,5.7265,5.7338,5.6743,5.6581,5.6815,5.7557,5.7729,5.7807,5.7796,5.861,5.9066,5.8991,5.9715,5.9677,5.8796,5.8078,5.7282,5.6503,5.6417,5.6386,5.6386,5.6329,5.6317,5.6302,5.6302,5.6353,5.6386,5.6375,5.6386,5.6386,5.6368,5.5317,5.3818,5.3866,5.2191,4.9837,4.9044,4.821,4.7333,4.6454,4.6236,4.6288,4.6303,4.6315,4.6285,4.6288,4.627,4.6587,4.8203,4.8808,4.9379,5.0774,5.1211,5.1335,5.1408,5.2005,5.2757,5.3635,5.4381,5.513,5.5885,5.401,5.2953,5.4317,5.3358,5.3357,5.5737,5.7005,5.8045,5.8906,5.9101,5.9803,6.1196,6.1417,6.2189,6.3828,6.4726,6.5208,6.5188,6.5468,6.64,6.8088,6.9684,7.0492,7.0473,7.1308,7.169,7.169,7.1819,7.1906,7.1924,7.2686,7.3446,7.4272,7.5028,7.5798,7.6514,7.6575,7.762,7.9072,7.9072,8.0239,8.1892,5.1414,5.2117,5.2542,5.2044,5.3754,5.5035,5.4585,5.6042,5.7031,5.6569,5.7255,5.766,5.7299,5.7187,5.7187,5.7182,5.6792,5.6909,5.7768,5.8236,5.8504,5.8499,5.9357,5.9775,5.9693,6.0075,5.9871,5.9014,5.8148,5.7282,5.6503,5.6427,5.6407,5.6386,5.6364,5.6353,5.6325,5.5858,5.5969,5.6388,5.5891,5.6018,5.6437,5.6388,5.5337,5.3808,5.3875,5.2511,5.0516,4.9247,4.8535,4.7969,4.6616,4.624,4.6296,4.6315,4.6287,4.6288,4.6282,4.6608,4.7111,4.7879,4.8762,4.9644,5.0424,5.0977,5.1459,5.1993,5.2434,5.3113,5.4455,5.5044,5.5439,5.5837,5.447,5.3533,5.3842,5.4015,5.4568,5.5778,5.789,5.9414,5.9805,6.0698,6.159,6.2332,6.2822,6.3672,6.4921,6.539,6.6019,6.693,6.7419,6.8239,6.9507,7.0743,7.1396,7.1338,7.1706,7.1893,7.1893,7.1906,7.214,7.2635,7.3016,7.3934,7.5151,7.5468,7.6066,7.6793,7.669,7.7681,7.9135,7.9135,8.028,8.1931,5.1652,5.239,5.2733,5.1849,5.3793,5.5191,5.432,5.6088,5.7265,5.6608,5.7456,5.7929,5.7568,5.7304,5.727,5.7504,5.6957,5.6957,5.7738,5.8431,5.8816,5.8816,5.9631,6.0275,6.059,6.0387,5.9871,5.8996,5.8139,5.7282,5.6503,5.6446,5.6417,5.6397,5.6397,5.6397,5.6358,5.5696,5.5843,5.6425,5.5726,5.5852,5.6464,5.6212,5.5151,5.3788,5.365,5.2364,5.0525,4.9216,4.8542,4.7986,4.666,4.6245,4.6306,4.6284,4.6287,4.6306,4.6267,4.6865,4.7567,4.7756,4.8911,5.0034,5.0268,5.0984,5.1817,5.2539,5.298,5.3699,5.504,5.5474,5.5591,5.5591,5.4888,5.4193,5.3969,5.4906,5.5815,5.6429,5.8785,6.0547,6.0974,6.2209,6.3174,6.3575,6.4228,6.5077,6.6131,6.617,6.6951,6.8669,6.933,7.0038,7.0697,7.1573,7.1982,7.193,7.1916,7.1909,7.1909,7.1915,7.2383,7.3228,7.3415,7.4333,7.5718,7.5902,7.6364,7.6894,7.701,7.793,7.9291,7.9466,8.0631,8.2223,5.2433,5.3327,5.3591,5.2668,5.469,5.6095,5.5237,5.5939,5.6614,5.6602,5.8011,5.8402,5.6879,5.8011,5.8324,5.6801,5.6645,5.6957,5.7738,5.7855,5.7894,5.7894,5.8727,5.9911,6.1487,6.0729,5.9854,5.8996,5.8139,5.7282,5.6503,5.6446,5.6388,5.6388,5.6397,5.6407,5.6388,5.6349,5.6368,5.6503,5.6425,5.6425,5.6425,5.5606,5.4702,5.3775,5.2995,5.1094,4.8964,4.8854,4.778,4.6479,4.6323,4.6292,4.6306,4.6284,4.6284,4.6279,4.6231,4.6844,4.7678,4.8483,4.9372,5.0229,5.1008,5.1865,5.2536,5.2597,5.3904,5.5048,5.5182,5.5933,5.6489,5.6489,5.5786,5.5762,5.7304,5.6912,5.7379,5.9726,6.0234,6.1012,6.2662,6.2908,6.3653,6.5277,6.5468,6.6209,6.7849,6.7927,6.8708,7.0465,7.0582,7.0625,7.0703,7.1542,7.1987,7.1987,7.1987,7.1982,7.1982,7.1948,7.237,7.3243,7.3991,7.4821,7.5746,7.6582,7.6897,7.6975,7.7719,7.8582,7.9498,8.0222,8.1582,8.3136,5.255,5.3405,5.3865,5.3487,5.5126,5.6218,5.5315,5.6413,5.7322,5.7343,5.7933,5.8089,5.7426,5.7465,5.7309,5.6645,5.6606,5.6723,5.7035,5.7074,5.7773,5.9329,5.8676,5.9077,6.0746,5.9941,5.9074,5.8178,5.7866,5.7282,5.6503,5.6455,5.6446,5.6388,5.6437,5.6437,5.6349,5.5861,5.5987,5.6464,5.5918,5.5684,5.5645,5.5333,5.432,5.3034,5.2723,5.1289,4.9517,4.8971,4.8014,4.6947,4.644,4.6292,4.6309,4.6288,4.6264,4.6348,4.685,4.7267,4.7834,4.9184,4.9761,5.0385,5.1787,5.2395,5.2955,5.4001,5.4775,5.5577,5.6626,5.7104,5.7504,5.805,5.7867,5.7882,5.8593,5.8867,5.9335,6.0273,6.1367,6.2262,6.293,6.3989,6.4891,6.5546,6.6561,6.742,6.8083,6.9137,7.0035,7.0699,7.1236,7.1523,7.1519,7.1822,7.2002,7.1987,7.1987,7.1987,7.2026,7.247,7.3197,7.4047,7.4897,7.5728,7.6543,7.6866,7.7272,7.7728,7.8051,7.898,8.0176,8.0509,8.1639,8.3213,5.2862,5.3596,5.4055,5.4312,5.5555,5.6296,5.5717,5.662,5.7406,5.7426,5.7699,5.7738,5.7473,5.7157,5.6879,5.6606,5.6606,5.6723,5.6957,5.7226,5.8036,5.9508,5.8428,5.8445,5.988,5.9053,5.8304,5.7711,5.7438,5.7048,5.6503,5.6503,5.6494,5.6446,5.6503,5.6455,5.6407,5.5831,5.5957,5.6464,5.584,5.545,5.5178,5.4905,5.3892,5.2528,5.199,5.0913,4.9562,4.8671,4.783,4.703,4.6483,4.6303,4.6282,4.6284,4.6456,4.6816,4.7669,4.8125,4.8574,4.973,5.0424,5.1125,5.2333,5.3058,5.3813,5.4975,5.5438,5.6123,5.7523,5.7807,5.8089,5.8948,5.9312,5.9522,5.957,6.0273,6.082,6.082,6.1874,6.2807,6.3373,6.4497,6.5507,6.6327,6.7459,6.8357,6.8903,7.0309,7.1128,7.1128,7.169,7.1988,7.1986,7.2017,7.2006,7.1987,7.1987,7.2143,7.2417,7.2945,7.3829,7.4944,7.5521,7.6235,7.7011,7.7295,7.7751,7.8287,7.8819,7.9686,8.0692,8.0931,8.2064,8.36,5.3643,5.4021,5.4279,5.5137,5.5978,5.6485,5.6523,5.6514,5.6548,5.6602,5.7309,5.7473,5.6708,5.7321,5.7465,5.6684,5.6606,5.6957,5.7777,5.8621,5.8688,5.785,5.7804,5.818,5.8957,5.8203,5.7775,5.7672,5.6892,5.6503,5.6503,5.6503,5.6503,5.6503,5.6503,5.6503,5.6503,5.6503,5.6503,5.6503,5.6503,5.5957,5.51,5.4203,5.3346,5.2372,5.0719,4.9523,4.8683,4.7801,4.6956,4.63,4.63,4.628,4.6289,4.6289,4.6864,4.7684,4.8566,4.9451,5.0095,5.0041,5.132,5.2606,5.2606,5.397,5.5178,5.5202,5.5886,5.6764,5.764,5.7807,5.8128,5.8987,5.9846,6.0409,6.0429,6.1133,6.1719,6.1719,6.1715,6.2412,6.4128,6.431,6.539,6.7927,6.8122,6.8864,7.0621,7.1519,7.1987,7.1987,7.1987,7.201,7.1992,7.201,7.1987,7.1987,7.2026,7.2456,7.3315,7.3257,7.4148,7.5787,7.5737,7.6186,7.7082,7.7946,7.8285,7.848,8.0156,8.0779,8.0922,8.1625,8.3009,8.4504,5.285,5.3582,5.4279,5.5074,5.5928,5.6692,5.7309,5.6939,5.6981,5.8211,5.7543,5.7113,5.7469,5.7192,5.6879,5.6606,5.7113,5.7816,5.8675,5.8387,5.807,5.783,5.8403,5.8811,5.8983,5.8211,5.7502,5.6853,5.6619,5.6503,5.6503,5.6503,5.6503,5.6503,5.6503,5.6503,5.6464,5.584,5.5957,5.6394,5.5155,5.4539,5.4188,5.333,5.2434,5.1537,5.0485,4.9523,4.8683,4.7801,4.6956,4.63,4.63,4.6315,4.6287,4.6289,4.6864,4.7693,4.856,4.9393,5.0158,5.0774,5.1749,5.2762,5.3385,5.4406,5.5358,5.5989,5.6797,5.7674,5.8538,5.9212,5.989,6.0764,6.1143,6.1307,6.1327,6.1523,6.1914,6.2539,6.3154,6.3954,6.5091,6.6292,6.7264,6.8044,6.9215,7.0426,7.1558,7.187,7.1987,7.1987,7.1987,7.2006,7.1989,7.2017,7.1987,7.2026,7.2612,7.3041,7.3354,7.448,7.5293,7.5826,7.6379,7.6761,7.7073,7.7958,7.8648,7.9322,8.0389,8.1143,8.1675,8.1905,8.3026,8.4509,5.3049,5.3933,5.478,5.562,5.6163,5.6813,5.7681,5.714,5.7103,5.8465,5.7441,5.6805,5.7343,5.6918,5.6606,5.6606,5.7348,5.7894,5.8041,5.8236,5.8148,5.7779,5.8637,5.878,5.8016,5.7517,5.7042,5.6503,5.6503,5.6503,5.6503,5.6503,5.6503,5.6503,5.6503,5.6503,5.6425,5.5567,5.5684,5.6363,5.4609,5.3884,5.3819,5.2916,5.2097,5.1206,4.9997,4.9268,4.8616,4.7416,4.6687,4.63,4.63,4.6312,4.6362,4.6719,4.7375,4.8213,4.9073,4.9907,5.0704,5.1593,5.2489,5.3346,5.4203,5.5342,5.6332,5.6893,5.7694,5.8571,5.9441,6.0037,6.0675,6.155,6.1707,6.1709,6.1718,6.1992,6.2422,6.293,6.3779,6.4774,6.6014,6.699,6.8005,6.9059,7.0426,7.1441,7.1987,7.1987,7.1987,7.1987,7.1987,7.2158,7.2494,7.2497,7.2514,7.2534,7.3393,7.3978,7.433,7.5345,7.6002,7.634,7.6833,7.7207,7.7589,7.8436,7.9322,8.014,8.0986,8.1597,8.2052,8.2039,8.3088,8.4543,5.3728,5.4645,5.5561,5.6335,5.6485,5.6826,5.7849,5.7215,5.6937,5.789,5.7182,5.6582,5.6606,5.6606,5.6606,5.6606,5.7348,5.7499,5.6782,5.8158,5.8582,5.7758,5.8428,5.8116,5.6535,5.6588,5.6581,5.6503,5.6503,5.6503,5.6503,5.6503,5.6503,5.6503,5.6503,5.6511,5.6433,5.5489,5.5584,5.6223,5.4414,5.3728,5.3715,5.2805,5.2025,5.1185,4.944,4.8816,4.8547,4.6882,4.63,4.63,4.63,4.6312,4.6479,4.7344,4.816,4.9,4.9864,5.0738,5.1615,5.2489,5.3385,5.4203,5.5022,5.6503,5.7728,5.7804,5.8552,5.9463,6.0232,6.0471,6.0792,6.159,6.1716,6.1719,6.1797,6.25,6.3047,6.3203,6.3941,6.5098,6.6834,6.7107,6.8161,7.0621,7.1558,7.2026,7.2104,7.2104,7.2143,7.2221,7.2221,7.2622,7.3423,7.3475,7.3472,7.3437,7.429,7.5071,7.5813,7.5891,7.636,7.7101,7.7199,7.7614,7.8378,7.9315,8.0152,8.0896,8.1766,8.2089,8.2112,8.2128,8.3182,8.4621,5.2928,5.4236,5.5371,5.5543,5.6074,5.7049,5.8687,5.761,5.7147,5.8711,5.7575,5.6585,5.6606,5.6606,5.6606,5.6606,5.7348,5.8011,5.8514,5.8246,5.8007,5.7807,5.7317,5.6907,5.6496,5.7104,5.7135,5.6503,5.6503,5.6503,5.6503,5.6503,5.6503,5.6503,5.6503,5.6511,5.641,5.4851,5.4671,5.5269,5.2902,5.2361,5.2874,5.1977,5.1547,5.1157,4.944,4.8816,4.8547,4.6882,4.63,4.63,4.63,4.6312,4.6441,4.7265,4.8116,4.8986,4.9848,5.1186,5.2536,5.3385,5.4281,5.4983,5.5178,5.6503,5.7728,5.7804,5.902,6.0165,6.0388,6.0978,6.149,6.1662,6.1716,6.1953,6.2617,6.289,6.3515,6.4877,6.5185,6.5996,6.7693,6.9059,7.0342,7.154,7.1864,7.2294,7.2906,7.2996,7.3315,7.3939,7.4017,7.414,7.4301,7.4995,7.5,7.4333,7.513,7.5618,7.5813,7.6516,7.6906,7.714,7.7824,7.8214,7.8494,8.0016,8.0739,8.0963,8.1821,8.2162,8.2112,8.2172,8.3192,8.4805,5.3867,5.4995,5.5921,5.5918,5.6263,5.6996,5.8363,5.745,5.7068,5.8396,5.7417,5.6588,5.6606,5.6606,5.661,5.6614,5.6962,5.7426,5.7894,5.7465,5.7226,5.7172,5.6712,5.6449,5.6464,5.6816,5.6855,5.6446,5.6446,5.6455,5.6503,5.6503,5.6503,5.6503,5.6503,5.6285,5.5794,5.4468,5.417,5.4429,5.2283,5.1904,5.2616,5.1713,5.1401,5.1171,4.9415,4.8283,4.7463,4.6612,4.63,4.6378,4.6807,4.6937,4.7144,4.8398,4.9055,4.9614,5.0477,5.1622,5.2816,5.3697,5.4554,5.5411,5.623,5.7399,5.846,5.8882,6.0067,6.0984,6.1002,6.1403,6.1686,6.1701,6.2058,6.2495,6.2929,6.3711,6.457,6.5498,6.5966,6.6898,6.8552,7.0309,7.1474,7.1884,7.2372,7.2801,7.3172,7.3615,7.4056,7.4486,7.4564,7.4809,7.5208,7.5688,7.5894,7.5859,7.6238,7.6414,7.6438,7.6906,7.7335,7.7765,7.8188,7.8845,7.9665,8.0532,8.1138,8.1568,8.1987,8.2133,8.2133,8.2201,8.3274,8.4947,5.5117,5.6015,5.6601,5.6598,5.6595,5.69,5.7781,5.7168,5.6903,5.7801,5.7137,5.6585,5.6606,5.6606,5.661,5.6582,5.6614,5.6606,5.6606,5.6606,5.6597,5.653,5.6449,5.6416,5.6398,5.6336,5.6325,5.6388,5.6388,5.6437,5.6464,5.6503,5.6503,5.6503,5.6503,5.6012,5.5138,5.4281,5.3871,5.3621,5.2049,5.1826,5.239,5.1679,5.1406,5.118,4.9423,4.7705,4.63,4.63,4.6417,4.6651,4.7357,4.7679,4.8121,4.9648,5.0111,5.0324,5.1341,5.2214,5.3019,5.3892,5.4866,5.6035,5.7555,5.849,5.9239,6.0114,6.0995,6.1602,6.1693,6.171,6.1764,6.1893,6.2549,6.3099,6.3396,6.4687,6.5663,6.581,6.6706,6.7949,6.945,7.105,7.2021,7.2119,7.2834,7.3381,7.3641,7.4317,7.4798,7.4954,7.4993,7.536,7.6082,7.6102,7.6466,7.7187,7.7145,7.7091,7.7101,7.7257,7.7726,7.8429,7.8702,7.9633,8.0946,8.1234,8.1694,8.2201,8.2299,8.2377,8.2474,8.2764,8.377,8.5234,5.5117,5.6015,5.6601,5.6598,5.6601,5.69,5.7781,5.7157,5.6922,5.7781,5.7157,5.661,5.6606,5.6606,5.6606,5.661,5.6606,5.6606,5.6606,5.6606,5.6602,5.6602,5.6464,5.6386,5.6386,5.6325,5.6329,5.6397,5.6417,5.6388,5.6398,5.6455,5.6503,5.6503,5.6503,5.602,5.5152,5.4255,5.3493,5.278,5.18,5.1488,5.157,5.1453,5.1414,5.118,4.9423,4.7705,4.63,4.63,4.6807,4.7435,4.7567,4.8077,4.8824,4.9799,5.0097,5.0434,5.1993,5.3058,5.3931,5.4827,5.6191,5.7633,5.8607,5.8918,5.9239,6.0114,6.0995,6.1602,6.1693,6.171,6.1954,6.2701,6.293,6.3521,6.5048,6.5463,6.5898,6.663,6.8101,6.9455,7.0426,7.1402,7.2294,7.2977,7.3133,7.3875,7.5358,7.5553,7.5957,7.6711,7.675,7.6805,7.6941,7.7005,7.7091,7.7187,7.7187,7.7142,7.714,7.7882,7.8272,7.8468,7.999,8.0771,8.1083,8.256,8.2787,8.2265,8.3022,8.3327,8.3514,8.5036,8.5738,8.6033,5.514,5.6012,5.6601,5.6595,5.6601,5.6714,5.7118,5.684,5.6723,5.7113,5.684,5.6606,5.6606,5.6618,5.6618,5.6606,5.6606,5.6606,5.6606,5.6606,5.6563,5.6558,5.6464,5.6386,5.6407,5.6314,5.6304,5.6341,5.6325,5.6358,5.6388,5.6446,5.6455,5.6503,5.6503,5.5747,5.4456,5.406,5.3147,5.1921,5.1531,5.1414,5.1414,5.1414,5.1414,5.118,4.9472,4.7754,4.63,4.63,4.6885,4.767,4.8145,4.8861,4.9687,5.0584,5.0845,5.1089,5.2272,5.3221,5.4103,5.4983,5.6464,5.7944,5.8802,5.9386,5.9971,6.0846,6.1339,6.1602,6.1648,6.2056,6.254,6.293,6.3837,6.47,6.5481,6.6039,6.663,6.7536,6.8691,6.9723,7.0621,7.1903,7.2828,7.3172,7.4109,7.5006,7.5748,7.6262,7.6705,7.7101,7.7101,7.7117,7.7097,7.7178,7.7458,7.793,7.793,7.7887,7.7825,7.82,7.8936,7.9912,8.0654,8.1513,8.245,8.3185,8.3568,8.3646,8.3529,8.349,8.3724,8.5442,8.6098,8.6276]},{"header":{"parameterUnit":"m.s-1","parameterCategory":1,"la1":30.6,"la2":28.766,"lo1":-90.7593,"lo2":-88.6598,"dy":0.0162,"dx":0.0183,"nx":116,"ny":114,"refTime":"2024-03-23T12:00:00:Z","depth":0,"parameterNumber":3,"parameterNumberName":"V-component_of_WINDS"},"data":[0.0,0.0,0.0,0.0,0.0,0.0,0.0,0.0,0.0,0.0,0.0,0.0,0.0,0.0,0.0,0.0,0.0,0.0,0.0,0.0,0.0,0.0,0.0,0.0,0.0,0.0,0.0,0.0,0.0,0.0,0.0,0.0,0.0,0.0,0.0,0.0,0.0,0.0,0.0,0.0,0.0,0.0,0.0,0.0,0.0,0.0,0.0,0.0,0.0,0.0,0.0,0.0,0.0,0.0,0.0,0.0,0.0,0.0,0.0,0.0,0.0,0.0,0.0,0.0,0.0,0.0,0.0,0.0,0.0,0.0,0.0,0.0,0.0,0.0,0.0,0.0,0.0,0.0,0.0,0.0,0.0,0.0,0.0,0.0,0.0,0.0,0.0,0.0,0.0,0.0,0.0,0.0,0.0,0.0,0.0,0.0,0.0,0.0,0.0,0.0,0.0,0.0,0.0,0.0,0.0,0.0,0.0,0.0,0.0,0.0,0.0,0.0,0.0,0.0,0.0,0.0,0.0,0.0,0.0,0.0,0.0,0.0,0.0,0.0,0.0,0.0,0.0,0.0,0.0,0.0,0.0,0.0,0.0,0.0,0.0,0.0,0.0,0.0,0.0,0.0,0.0,0.0,0.0,0.0,0.0,0.0,0.0,0.0,0.0,0.0,0.0,0.0,0.0,0.0,0.0,0.0,0.0,0.0,0.0,0.0,0.0,0.0,0.0,0.0,0.0,0.0,0.0,0.0,0.0,0.0,0.0,0.0,0.0,0.0,0.0,0.0,0.0,0.0,0.0,0.0,0.0,0.0,0.0,0.0,0.0,0.0,0.0,0.0,0.0,0.0,0.0,0.0,0.0,0.0,0.0,0.0,0.0,0.0,0.0,0.0,0.0,0.0,0.0,0.0,0.0,0.0,0.0,0.0,0.0,0.0,0.0,0.0,0.0,0.0,0.0,0.0,0.0,0.0,0.0,0.0,0.0,0.0,0.0,0.0,0.0,0.0,0.0,0.0,0.0,0.0,0.0,0.0,0.0,0.0,0.0,0.0,0.0,0.0,0.0,0.0,0.0,0.0,0.0,0.0,0.0,0.0,0.0,0.0,0.0,0.0,0.0,0.0,0.0,0.0,0.0,0.0,0.0,0.0,0.0,0.0,0.0,0.0,0.0,0.0,0.0,0.0,0.0,0.0,0.0,0.0,0.0,0.0,0.0,0.0,0.0,0.0,0.0,0.0,0.0,0.0,0.0,0.0,0.0,0.0,0.0,0.0,0.0,0.0,0.0,0.0,0.0,0.0,0.0,0.0,0.0,0.0,0.0,0.0,0.0,0.0,0.0,0.0,0.0,0.0,0.0,0.0,0.0,0.0,0.0,0.0,0.0,0.0,0.0,0.0,0.0,0.0,0.0,0.0,0.0,0.0,0.0,0.0,0.0,0.0,0.0,0.0,0.0,0.0,0.0,0.0,0.0,0.0,0.0,0.0,0.0,0.0,0.0,0.0,0.0,0.0,0.0,0.0,0.0,0.0,0.0,0.0,0.0,0.0,0.0,0.0,0.0,0.0,0.0,0.0,0.0,0.0,0.0,0.0,0.0,0.0,0.0,0.0,0.0,0.0,0.0,0.0,0.0,0.0,0.0,0.0,0.0,0.0,0.0,0.0,0.0,0.0,0.0,0.0,0.0,0.0,0.0,0.0,0.0,0.0,0.0,0.0,0.0,0.0,0.0,0.0,0.0,0.0,0.0,0.0,0.0,0.0,0.0,0.0,0.0,0.0,0.0,0.0,0.0,0.0,0.0,0.0,0.0,0.0,0.0,0.0,0.0,0.0,0.0,0.0,0.0,0.0,0.0,0.0,0.0,0.0,0.0,0.0,0.0,0.0,0.0,0.0,0.0,0.0,0.0,0.0,0.0,0.0,0.0,0.0,0.0,0.0,0.0,0.0,0.0,0.0,0.0,0.0,0.0,0.0,0.0,0.0,0.0,0.0,0.0,0.0,0.0,0.0,0.0,0.0,0.0,0.0,0.0,0.0,0.0,0.0,0.0,0.0,0.0,0.0,0.0,0.0,0.0,0.0,0.0,0.0,0.0,0.0,0.0,0.0,0.0,0.0,0.0,0.0,0.0,0.0,0.0,0.0,0.0,0.0,0.0,0.0,0.0,0.0,0.0,0.0,0.0,0.0,0.0,0.0,0.0,0.0,0.0,0.0,0.0,0.0,0.0,0.0,0.0,0.0,0.0,0.0,0.0,0.0,0.0,0.0,0.0,0.0,0.0,0.0,0.0,0.0,0.0,0.0,0.0,0.0,0.0,0.0,0.0,0.0,0.0,0.0,0.0,0.0,0.0,0.0,0.0,0.0,0.0,0.0,0.0,0.0,0.0,0.0,0.0,0.0,0.0,0.0,0.0,0.0,0.0,0.0,0.0,0.0,0.0,0.0,0.0,0.0,0.0,0.0,0.0,0.0,0.0,0.0,0.0,0.0,0.0,0.0,0.0,0.0,0.0,0.0,0.0,0.0,0.0,0.0,0.0,0.0,0.0,0.0,0.0,0.0,0.0,0.0,0.0,0.0,0.0,0.0,0.0,0.0,0.0,0.0,0.0,0.0,0.0,0.0,0.0,0.0,0.0,0.0,0.0,0.0,0.0,0.0,0.0,0.0,0.0,0.0,0.0,0.0,0.0,0.0,0.0,0.0,0.0,0.0,0.0,0.0,0.0,0.0,0.0,0.0,0.0,0.0,0.0,0.0,0.0,0.0,0.0,0.0,0.0,0.0,0.0,0.0,0.0,0.0,0.0,0.0,0.0,0.0,0.0,0.0,0.0,0.0,0.0,0.0,0.0,0.0,0.0,0.0,0.0,0.0,0.0,0.0,0.0,0.0,0.0,0.0,0.0,0.0,0.0,0.0,0.0,0.0,0.0,0.0,0.0,0.0,0.0,0.0,0.0,0.0,0.0,0.0,0.0,0.0,0.0,0.0,0.0,0.0,0.0,0.0,0.0,0.0,0.0,0.0,0.0,0.0,0.0,0.0,0.0,0.0,0.0,0.0,0.0,0.0,0.0,0.0,0.0,0.0,0.0,0.0,0.0,0.0,0.0,0.0,0.0,0.0,0.0,0.0,0.0,0.0,0.0,0.0,0.0,0.0,0.0,0.0,0.0,0.0,0.0,0.0,0.0,0.0,0.0,0.0,0.0,0.0,0.0,0.0,0.0,0.0,0.0,0.0,0.0,0.0,0.0,0.0,0.0,0.0,0.0,0.0,0.0,0.0,0.0,0.0,0.0,0.0,0.0,0.0,0.0,0.0,0.0,0.0,0.0,0.0,0.0,0.0,0.0,0.0,0.0,0.0,0.0,0.0,0.0,0.0,0.0,0.0,0.0,0.0,0.0,0.0,0.0,0.0,0.0,0.0,0.0,0.0,0.0,0.0,0.0,0.0,0.0,0.0,0.0,0.0,0.0,0.0,0.0,0.0,0.0,0.0,0.0,0.0,0.0,0.0,0.0,0.0,0.0,0.0,0.0,0.0,0.0,0.0,0.0,0.0,0.0,0.0,0.0,0.0,0.0,0.0,0.0,0.0,0.0,0.0,0.0,0.0,0.0,0.0,0.0,0.0,0.0,0.0,0.0,0.0,0.0,0.0,0.0,0.0,0.0,0.0,0.0,0.0,0.0,0.0,0.0,0.0,0.0,0.0,0.0,0.0,0.0,0.0,0.0,0.0,0.0,0.0,0.0,0.0,0.0,0.0,0.0,0.0,0.0,0.0,0.0,0.0,0.0,0.0,0.0,0.0,0.0,0.0,0.0,0.0,0.0,0.0,0.0,0.0,0.0,0.0,0.0,0.0,0.0,0.0,0.0,0.0,0.0,0.0,0.0,0.0,0.0,0.0,0.0,0.0,0.0,0.0,0.0,0.0,0.0,0.0,0.0,0.0,0.0,0.0,0.0,0.0,0.0,0.0,0.0,0.0,0.0,0.0,0.0,0.0,0.0,0.0,0.0,0.0,0.0,0.0,0.0,0.0,0.0,0.0,0.0,0.0,0.0,0.0,0.0,0.0,0.0,0.0,0.0,0.0,0.0,0.0,0.0,0.0,0.0,0.0,0.0,0.0,0.0,0.0,0.0,0.0,0.0,0.0,0.0,0.0,0.0,0.0,0.0,0.0,0.0,0.0,0.0,0.0,0.0,0.0,0.0,0.0,0.0,0.0,0.0,0.0,0.0,0.0,0.0,0.0,0.0,0.0,0.0,0.0,0.0,0.0,0.0,0.0,0.0,0.0,0.0,0.0,0.0,0.0,0.0,0.0,0.0,0.0,0.0,0.0,0.0,0.0,0.0,0.0,0.0,0.0,0.0,0.0,0.0,0.0,0.0,0.0,0.0,0.0,0.0,0.0,0.0,0.0,0.0,0.0,0.0,0.0,0.0,0.0,0.0,0.0,0.0,0.0,0.0,0.0,0.0,0.0,0.0,0.0,0.0,0.0,0.0,0.0,0.0,0.0,0.0,0.0,0.0,0.0,0.0,0.0,0.0,0.0,0.0,0.0,0.0,0.0,0.0,0.0,0.0,0.0,0.0,0.0,0.0,0.0,0.0,0.0,0.0,0.0,0.0,0.0,0.0,0.0,0.0,0.0,0.0,0.0,0.0,0.0,0.0,0.0,0.0,0.0,0.0,0.0,0.0,0.0,0.0,0.0,0.0,0.0,0.0,0.0,0.0,0.0,0.0,0.0,0.0,0.0,0.0,0.0,0.0,0.0,0.0,0.0,0.0,0.0,0.0,0.0,0.0,0.0,0.0,0.0,0.0,0.0,0.0,0.0,0.0,0.0,0.0,0.0,0.0,0.0,0.0,0.0,0.0,0.0,0.0,0.0,0.0,0.0,0.0,0.0,0.0,0.0,0.0,0.0,0.0,0.0,0.0,0.0,0.0,0.0,0.0,0.0,0.0,0.0,0.0,0.0,0.0,0.0,0.0,0.0,0.0,0.0,0.0,0.0,0.0,0.0,0.0,0.0,0.0,0.0,0.0,0.0,0.0,0.0,0.0,0.0,0.0,0.0,0.0,0.0,0.0,0.0,0.0,0.0,0.0,0.0,0.0,0.0,0.0,0.0,0.0,0.0,0.0,0.0,0.0,0.0,0.0,0.0,0.0,0.0,0.0,0.0,0.0,0.0,0.0,0.0,0.0,0.0,0.0,0.0,0.0,0.0,0.0,0.0,0.0,0.0,0.0,0.0,0.0,0.0,0.0,0.0,0.0,0.0,0.0,0.0,0.0,0.0,0.0,0.0,0.0,0.0,0.0,0.0,0.0,0.0,0.0,0.0,0.0,0.0,0.0,0.0,0.0,0.0,0.0,0.0,0.0,0.0,0.0,0.0,0.0,0.0,0.0,0.0,0.0,0.0,0.0,0.0,0.0,0.0,0.0,0.0,0.0,0.0,0.0,0.0,0.0,0.0,0.0,0.0,0.0,0.0,0.0,0.0,0.0,0.0,0.0,0.0,0.0,0.0,0.0,0.0,0.0,0.0,0.0,0.0,0.0,0.0,0.0,0.0,0.0,0.0,0.0,0.0,0.0,0.0,0.0,0.0,0.0,0.0,0.0,0.0,0.0,0.0,0.0,0.0,0.0,0.0,0.0,0.0,0.0,0.0,0.0,0.0,0.0,0.0,0.0,0.0,0.0,0.0,0.0,0.0,0.0,0.0,0.0,0.0,0.0,0.0,0.0,0.0,0.0,0.0,0.0,0.0,0.0,0.0,0.0,0.0,0.0,0.0,0.0,0.0,0.0,0.0,0.0,0.0,0.0,0.0,0.0,0.0,0.0,0.0,0.0,0.0,0.0,0.0,0.0,0.0,0.0,0.0,0.0,0.0,0.0,0.0,0.0,0.0,0.0,0.0,0.0,0.0,0.0,0.0,0.0,0.0,0.0,0.0,0.0,0.0,0.0,0.0,0.0,0.0,0.0,0.0,0.0,0.0,0.0,0.0,0.0,0.0,0.0,0.0,0.0,0.0,0.0,0.0,0.0,0.0,0.0,0.0,0.0,0.0,0.0,0.0,0.0,0.0,0.0,0.0,0.0,0.0,0.0,0.0,0.0,0.0,0.0,0.0,-0.1495,0.0,0.0,0.0,0.0,0.0,0.0,0.0,0.0,0.0,0.0,0.0,0.0,0.0,0.0,0.0,0.0,0.0,0.0,0.0,0.0,0.0,0.0,0.0,0.0,0.0,0.0,0.0,0.0,0.0,0.0,0.0,0.0,0.0,0.0,0.0,0.0,0.0,0.0259,0.0707,0.1124,0.1325,0.1218,0.1501,0.1319,0.0,0.0,0.0,0.0,0.0,0.0,0.0,0.0,0.0,0.0,0.0,0.0,0.0,0.0,0.0,0.0,0.0,0.0,0.0,0.0,0.0,0.0,0.0,0.0,0.0,0.0,0.0,0.0,0.0,0.0,0.0,0.0,0.0,0.0,0.0,0.0,0.0,0.0,0.0,0.0,0.0,0.0,0.0,0.0,0.0,0.0,0.0,0.0,0.0,0.0,0.0,0.0,0.0,0.0,0.0,0.0,0.0,0.0,0.0,0.0,0.0,0.0,0.0,0.0,0.0,0.0,0.0,0.0,0.0,0.0,0.0,0.0,-0.198,0.0,0.0,0.0,0.0,0.0,0.0,0.0,0.0,0.0,0.0,0.0,0.0,0.0,0.0,0.0,0.0,0.0,0.0,0.0,0.0,0.0,0.0,0.0,-0.1262,-0.1277,-0.1307,-0.0836,-0.0427,-0.0,0.0,0.0,0.0,0.0,0.0,0.0,0.0,0.0352,0.1175,0.1279,0.1419,0.1397,0.1423,0.0,0.0,0.0,0.0,0.0,0.0,0.0,0.0,0.0,0.0,0.0,0.0,0.0,0.0,0.0,0.0,0.0,0.0,0.0,0.0,0.0,0.0,0.0,0.0,0.0,0.0,0.0,0.0,0.0,0.0,0.0,0.0,0.0,0.0,0.0,0.0,0.0,0.0,0.0,0.0,0.0,0.0,0.0,0.0,0.0,0.0,0.0,0.0,0.0,0.0,0.0,0.0,0.0,0.0,0.0,0.0,0.0,0.0,0.0,0.0,0.0,0.0,0.0,0.0,0.0,0.0,-0.6184,-0.5689,-0.5061,-0.4121,-0.3651,-0.3523,-0.3114,-0.2736,-0.2435,-0.2386,0.0,0.0,0.0,0.0,0.0,0.0,0.0,0.0,0.0,0.0,0.0,0.0,0.0,0.0,0.0,0.0,0.0,0.0,0.0,0.0,0.0,-0.1281,-0.1309,-0.1422,-0.0942,-0.0437,-0.0,0.0,0.0,0.0,0.0,0.0,0.0,0.0,0.0089,0.0184,0.0971,0.122,0.0845,0.0322,0.0109,0.011,0.0,0.0,0.0,0.0,0.0,0.0,0.0,0.0,0.0,0.0,0.0,0.0,0.0,0.0,0.0,0.0,0.0,0.0,0.0,0.0,0.0,0.0,0.0,0.0,0.0,0.0,0.0,0.0,0.0,0.0,0.0,0.0,0.0,0.0,0.0,0.0,0.0,0.0,0.0,0.0,0.0,0.0,0.0,0.0,-0.6789,-0.7333,0.0,0.0,0.0,0.0,0.0,0.0,0.0,0.0,0.0,0.0,0.0,0.0,0.0,-0.7388,-0.7737,-0.7985,-0.758,-0.6541,-0.6201,-0.5631,-0.4708,-0.3766,-0.3178,-0.2941,-0.2569,0.0,-0.2329,-0.2259,0.0,0.0,0.0,0.0,0.0,0.0,0.0,0.0,0.0,0.0,0.0,0.0,0.0,0.0,0.0,0.0,0.0,0.0,0.0,0.0,0.0,-0.131,-0.1347,-0.1393,-0.1247,-0.0818,-0.0093,0.0,-0.0277,-0.0731,-0.0822,-0.0546,-0.0,0.0,0.0,-0.0,-0.0309,-0.0107,0.065,-0.0111,-0.0674,-0.1008,-0.0979,-0.0743,-0.0208,0.1112,0.0,0.0,0.0,0.0,0.0,0.0,0.0,0.0,0.0,0.0,0.0,0.0,0.0,0.0,0.0,0.0,0.0,0.0,0.0,0.0,0.0,0.0,0.0,0.0,0.0,0.0,0.0,0.0,0.0,0.0,0.0,0.0,0.0,0.0,0.0,0.0,0.0,0.0,0.0,-0.6566,-0.7214,-0.7431,-0.7801,-0.8126,0.0,0.0,0.0,0.0,0.0,0.0,0.0,0.0,0.0,-0.7731,-0.7967,-0.7979,-0.787,-0.8289,-0.7959,-0.676,-0.6275,-0.5553,-0.4834,-0.3628,-0.3022,-0.2901,-0.2299,-0.2179,-0.2175,-0.2223,-0.2433,-0.2554,0.0,0.0,0.0,0.0,-0.3361,-0.4079,0.0,0.0,0.0,0.0,0.0,0.0,0.0,0.0,0.0,0.0,0.0,0.0,-0.1309,-0.1355,-0.1403,-0.1455,-0.1486,-0.1232,-0.0483,-0.0289,-0.0476,-0.1026,-0.1299,-0.11,-0.036,-0.0093,0.0,-0.0,-0.097,-0.0995,-0.0,-0.0572,-0.1264,-0.1819,-0.1819,-0.1227,-0.0324,0.0841,0.1424,0.0,0.0,0.0,0.0,0.0,0.0,0.0,0.0,0.0,0.0,0.0,0.0,0.0,0.0,0.0,0.0,0.0,0.0,0.0,0.0,0.0,0.0,0.0,0.0,0.0,0.0,0.0,0.0,0.0,0.0,0.0,0.0,0.0,0.0,0.0,0.0,0.0,0.0,-0.6954,-0.7576,-0.7644,-0.8066,-0.8425,0.0,0.0,0.0,0.0,0.0,0.0,-0.7662,-0.7737,-0.791,-0.8307,-0.8408,-0.84,-0.8161,-0.8535,-0.8033,-0.6898,-0.628,-0.554,-0.481,-0.3579,-0.296,-0.2962,-0.2231,-0.2112,-0.2355,-0.2523,-0.2607,-0.2601,-0.2795,-0.3125,-0.3469,-0.3651,-0.4017,-0.4435,0.0,0.0,0.0,0.0,0.0,0.0,0.0,0.0,0.0,0.0,0.0,-0.1065,-0.1341,-0.1422,-0.1487,-0.1519,-0.155,-0.158,-0.1509,-0.1089,-0.0583,-0.0095,-0.0935,-0.1375,-0.135,-0.0476,0.0,-0.0,-0.0111,-0.0683,-0.1879,-0.1176,-0.1176,-0.1764,-0.1764,-0.1501,-0.0783,-0.0223,0.0766,0.1799,0.0,0.0,0.0,0.0,0.0,0.0,0.0,0.0,0.0,0.0,0.0,0.0,0.0,0.0,0.0,0.0,0.0,0.0,0.0,0.0,0.0,0.0,0.0,0.0,0.0,0.0,0.0,0.0,0.0,0.0,0.0,0.0,0.0,0.0,0.0,0.0,0.0,0.0,0.0,-0.7898,-0.8366,0.0,0.0,0.0,0.0,-0.8005,-0.8023,-0.8027,-0.7939,-0.7735,-0.8089,-0.931,-0.8471,-0.829,-0.9032,-0.8415,-0.7738,-0.6898,-0.628,-0.554,-0.481,-0.3579,-0.296,-0.2964,-0.2254,-0.2394,-0.302,-0.3171,-0.277,-0.2047,-0.3315,-0.3411,-0.2939,-0.3526,-0.4033,-0.4337,0.0,0.0,0.0,0.0,0.0,0.0,0.0,0.0,-0.1132,-0.1236,-0.1168,-0.1321,-0.1712,-0.1658,-0.1648,-0.178,-0.1731,-0.1662,-0.1673,-0.1221,-0.0992,-0.107,-0.124,-0.1429,-0.1359,-0.0513,0.0,-0.0,-0.0462,-0.0706,-0.0707,-0.1309,-0.1666,-0.1885,-0.165,-0.1288,-0.0926,-0.1145,-0.0448,0.0649,0.0209,0.0297,0.0,0.0,0.0,0.0,0.0,0.0,0.0,0.0,0.0,0.0,0.0,0.0,0.0,0.0,0.0,0.0,0.0,0.0,0.0,0.0,0.0,0.0,0.0,0.0,0.0,0.0,0.0,0.0,0.0,0.0,0.0,0.0,0.0,0.0,0.0,0.0,0.0,-0.795,-0.8523,0.0,-0.9123,-0.9001,-0.8772,-0.8286,-0.8499,-0.8592,-0.8455,-0.8257,-0.8512,-0.9477,-0.9062,-0.8878,-0.8925,-0.8925,-0.8232,-0.6998,-0.6432,-0.5678,-0.488,-0.3665,-0.3048,-0.305,-0.2299,-0.2176,-0.243,-0.2785,-0.2882,-0.2732,-0.3334,-0.3307,-0.3034,-0.3643,-0.4169,-0.4595,0.0,0.0,0.0,0.0,0.0,0.0,0.0,0.0,-0.1072,-0.1237,-0.1431,-0.1622,-0.1769,-0.1815,-0.1814,-0.185,-0.1797,-0.1719,-0.1719,-0.1457,-0.1318,-0.1503,-0.1172,-0.0888,-0.0934,-0.0323,0.0,-0.0,-0.0475,-0.0724,-0.0724,-0.1577,-0.1941,-0.1932,-0.1681,-0.1552,-0.1662,-0.1997,-0.1492,-0.0555,-0.0536,-0.0103,0.0391,0.0,0.0,0.0,0.0,0.0,0.0,0.0,0.0,0.0,0.0,0.0,0.0,0.0,0.0,0.0,0.0,0.0,0.0,0.0,0.0,0.0,0.0,0.0,0.0,0.0,0.0,0.0,0.0,0.0,0.0,0.0,0.0,0.0,0.0,-0.7393,-0.7962,-0.8097,-0.8495,-0.8937,-0.9361,-0.9178,-0.8948,-0.8617,-0.8828,-0.8904,-0.8714,-0.8559,-0.8699,-0.95,-0.9209,-0.902,-0.8811,-0.902,-0.8441,-0.7103,-0.6536,-0.5766,-0.4826,-0.3596,-0.3097,-0.2839,-0.2334,-0.2079,-0.234,-0.2483,-0.2726,-0.2945,-0.3295,-0.3126,-0.2958,-0.3436,-0.382,-0.4108,0.0,0.0,0.0,0.0,0.0,0.0,0.0,-0.0916,-0.0947,-0.1167,-0.1656,-0.19,-0.157,-0.1887,-0.1988,-0.1703,-0.1734,-0.175,-0.1748,-0.1693,-0.166,-0.1452,-0.0502,0.0,0.0,0.0,-0.0,-0.0121,-0.0,-0.0736,-0.2022,-0.1992,-0.1993,-0.202,-0.199,-0.2329,-0.3022,-0.2658,-0.2255,-0.1723,-0.0555,-0.0643,-0.1451,0.0,0.0,0.0,0.0,0.0,0.0,0.0,0.0,0.0,0.0,0.0,0.0,0.0,0.0,0.0,0.0,0.0,0.0,0.0,0.0,0.0,0.0,0.0,0.0,0.0,0.0,0.0,0.0,0.0,0.0,0.0,0.0,0.0,-0.6991,-0.7535,-0.8109,-0.8249,-0.8384,-0.8696,-0.9395,-0.9162,-0.8987,-0.9116,-0.8778,-0.872,-0.8854,-0.8369,-0.8494,-0.9246,-0.8875,-0.8811,-0.8932,-0.8817,-0.8242,-0.7212,-0.6571,-0.5672,-0.4517,-0.3615,-0.297,-0.2586,-0.2229,-0.2242,-0.2509,-0.2277,-0.2405,-0.2631,-0.3069,-0.3005,-0.2589,-0.3037,-0.3142,-0.3162,0.0,0.0,0.0,0.0,0.0,0.0,0.0,-0.1268,-0.1459,-0.1459,-0.1594,-0.184,-0.222,-0.2238,-0.2268,-0.2388,-0.2207,-0.1984,-0.1719,-0.1662,-0.162,-0.1397,-0.052,0.0,0.0,0.0,-0.0475,-0.1448,-0.0987,-0.1002,-0.1389,-0.176,-0.2011,-0.2019,-0.2011,-0.2239,-0.2576,-0.2574,-0.2425,-0.2252,-0.1929,-0.176,-0.1716,0.0,0.0,0.0,0.0,0.0,0.0,0.0,0.0,0.0,0.0,0.0,0.0,0.0,0.0,0.0,0.0,0.0,0.0,0.0,0.0,0.0,0.0,0.0,0.0,0.0,0.0,0.0,0.0,0.0,0.0,0.0,-0.7338,-0.7662,-0.7442,-0.7743,-0.8268,-0.8877,-0.8691,-0.8872,-0.9566,-0.934,-0.9118,-0.8914,-0.8891,-0.8835,-0.8617,-0.8458,-0.8676,-0.9252,-0.9447,-0.9258,-0.8938,-0.9258,-0.871,-0.7322,-0.6671,-0.5758,-0.458,-0.3537,-0.2901,-0.2663,-0.2273,-0.2275,-0.2277,-0.2286,-0.2284,-0.2406,-0.2626,-0.2841,-0.2931,-0.3297,-0.3825,-0.4391,0.0,0.0,0.0,0.0,0.0,0.0,0.0,-0.148,-0.1544,-0.1576,-0.1609,-0.185,-0.2298,-0.2377,-0.2395,-0.2429,-0.2344,-0.2101,-0.1708,-0.1453,-0.1225,-0.0814,0.0,0.0,0.0,-0.0593,-0.1214,-0.2093,-0.1754,-0.1526,-0.1543,-0.1916,-0.2173,-0.2313,-0.2157,-0.2261,-0.2738,-0.2598,-0.2701,-0.3034,-0.2815,-0.2395,-0.178,-0.1716,-0.135,-0.0907,-0.1767,-0.2383,-0.2687,-0.1638,0.0,0.0,0.0,0.0,0.0,0.0,0.0,0.0,0.0,0.0,0.0,0.0,0.0,0.0,0.0,0.0,0.0,0.0,0.0,0.0,0.0,0.0,0.0,0.0,-0.7298,-0.7832,-0.7829,-0.82,-0.8561,-0.8997,-0.8702,-0.8763,-0.9572,-0.9335,-0.9098,-0.9098,-0.8983,-0.8806,-0.8545,-0.8414,-0.8513,-0.8957,-0.9419,-0.9359,-0.875,-0.9353,-0.8955,-0.7436,-0.6771,-0.5708,-0.4513,-0.3587,-0.2939,-0.2425,-0.229,-0.2155,-0.2155,-0.2155,-0.2155,-0.2151,0.0,0.0,0.0,0.0,-0.3997,-0.4841,0.0,0.0,0.0,0.0,0.0,0.0,0.0,-0.1687,-0.1551,-0.1549,-0.1697,-0.1939,-0.2082,-0.2394,-0.2488,-0.2225,-0.2232,-0.209,-0.1699,-0.1148,-0.0627,-0.0,0.0,0.0,0.0,-0.1319,-0.2087,-0.2148,-0.2152,-0.2184,-0.2241,-0.2082,-0.2343,-0.2766,-0.2181,-0.2405,-0.3154,-0.2746,-0.3098,-0.3822,-0.3288,-0.2735,-0.1963,-0.1813,-0.1782,-0.1748,-0.1688,-0.2163,-0.3027,-0.3017,0.0,0.0,0.0,0.0,0.0,0.0,0.0,0.0,0.0,0.0,0.0,0.0,0.0,0.0,0.0,0.0,0.0,0.0,0.0,0.0,0.0,0.0,0.0,0.0,-0.7107,-0.769,-0.8164,-0.8803,-0.9042,-0.8791,-0.8551,-0.8628,-0.922,-0.8976,-0.8983,-0.9239,-0.9001,-0.883,-0.8466,0.0,0.0,0.0,0.0,-0.9267,-0.8701,-0.9267,-0.8867,-0.7507,-0.6706,-0.5633,-0.4292,-0.3488,-0.2821,-0.2155,-0.2155,-0.2155,-0.2155,-0.2155,-0.2155,-0.2287,-0.2258,-0.2491,-0.2718,-0.3067,-0.3842,-0.4668,0.0,0.0,0.0,0.0,0.0,0.0,0.0,-0.2144,-0.2212,-0.1991,-0.1997,-0.2091,-0.244,-0.2575,-0.2605,-0.2478,-0.2477,-0.2227,-0.1637,-0.1017,-0.0516,-0.0,0.0,0.0,0.0,-0.1333,-0.1986,-0.2148,-0.2045,-0.2074,-0.2109,-0.2104,-0.2235,-0.2636,-0.2228,-0.2581,-0.3413,-0.3099,-0.3315,-0.3948,-0.3859,-0.3684,-0.3336,-0.22,-0.1813,-0.1778,-0.161,-0.1782,-0.1954,-0.1913,-0.1777,-0.165,-0.1837,-0.2387,0.0,0.0,0.0,0.0,0.0,0.0,0.0,0.0,0.0,0.0,0.0,0.0,0.0,0.0,0.0,0.0,0.0,0.0,0.0,-0.6679,-0.747,-0.8158,-0.8308,-0.9032,-0.9303,-0.8952,-0.8441,-0.8352,-0.8867,-0.8732,-0.8529,-0.8629,-0.8758,-0.8625,-0.8469,-0.8481,-0.8646,-0.8807,-0.9157,-0.918,-0.8841,-0.9175,-0.8773,-0.7398,-0.674,0.0,-0.4232,-0.3441,-0.2798,-0.2155,-0.2155,-0.2155,-0.2155,-0.2155,-0.2425,-0.2692,-0.2952,-0.321,-0.3604,-0.3993,-0.4262,-0.4406,0.0,0.0,0.0,0.0,0.0,0.0,0.0,-0.2273,-0.2357,-0.2256,-0.228,-0.2444,-0.2854,-0.2951,-0.2854,-0.2727,-0.2502,-0.2208,-0.1637,-0.1016,-0.052,-0.0,0.0,0.0,0.0,-0.0976,-0.1748,-0.2044,-0.2057,-0.2087,-0.2132,-0.2132,-0.2399,-0.2929,-0.2512,-0.2877,-0.3613,-0.3509,-0.3461,-0.3745,-0.415,-0.4108,-0.377,-0.3063,-0.2419,-0.1921,-0.2405,-0.2135,-0.1575,-0.1666,-0.1641,-0.1721,-0.1837,-0.2225,-0.2674,0.0,0.0,0.0,0.0,0.0,0.0,0.0,0.0,0.0,0.0,0.0,0.0,0.0,0.0,-0.4739,-0.5185,0.0,-0.5815,-0.6584,-0.7296,-0.7784,-0.8094,-0.8652,-0.898,-0.8717,-0.8568,-0.85,-0.8812,-0.8682,-0.858,-0.8638,-0.8765,-0.8768,-0.8497,-0.869,-0.9018,-0.9221,-0.9478,-0.9585,-0.9389,-0.9449,-0.8844,-0.7626,-0.6758,-0.5569,-0.4218,-0.3452,-0.2809,-0.2155,-0.2155,-0.2155,-0.2155,-0.2155,-0.2558,-0.2961,-0.2961,-0.3365,-0.3902,-0.4174,-0.4459,-0.4623,0.0,0.0,0.0,0.0,0.0,0.0,0.0,-0.2333,-0.2352,-0.2439,-0.2452,-0.2662,-0.3045,-0.3161,-0.3027,-0.2826,-0.2414,-0.2092,-0.174,-0.1122,-0.0422,0.0344,0.0117,0.0,0.0,-0.0613,-0.1376,-0.2056,-0.2061,-0.2093,-0.2146,-0.2151,-0.2558,-0.3226,-0.2794,-0.3039,-0.3818,-0.3784,-0.3863,-0.3928,-0.4434,-0.4395,-0.42,-0.3953,-0.3162,-0.2299,-0.3117,-0.2713,-0.1917,-0.1811,-0.1786,-0.1866,-0.2109,-0.2199,-0.226,-0.3027,-0.288,0.0,0.0,0.0,0.0,0.0,0.0,0.0,0.0,-0.3456,-0.3278,-0.3532,-0.3865,-0.4232,-0.4691,-0.5076,-0.5618,-0.6425,-0.6965,-0.7293,-0.7845,-0.8438,-0.8666,-0.8563,-0.8684,-0.8642,-0.862,-0.8614,-0.8753,-0.8648,-0.875,-0.8738,-0.8617,-0.9001,-0.9232,-0.9637,-0.992,-1.0129,-0.9992,-0.9716,-0.9041,-0.8018,-0.7071,-0.5871,-0.435,-0.3608,-0.2961,-0.2423,-0.2289,-0.229,-0.2155,-0.2155,-0.2558,-0.3228,-0.2961,-0.323,-0.3902,-0.4171,-0.4479,-0.4806,0.0,0.0,0.0,0.0,0.0,0.0,0.0,0.0,-0.2597,-0.2476,-0.2571,-0.255,-0.255,-0.2662,-0.2583,-0.2264,-0.2255,-0.2222,-0.2167,-0.1222,0.0,0.172,0.0592,0.0,0.0,-0.0613,-0.1369,-0.2026,-0.2052,-0.2082,-0.2114,-0.2142,-0.2558,-0.3228,-0.2823,-0.3201,-0.4086,-0.4267,-0.4484,-0.5013,-0.4759,-0.4846,-0.514,-0.4258,-0.3693,-0.3274,-0.2832,-0.2741,-0.2877,-0.2023,-0.1876,-0.2136,-0.1865,-0.2057,-0.2519,-0.3262,-0.2651,-0.1954,-0.3158,-0.293,-0.232,-0.2566,-0.2815,-0.3048,0.0,-0.3244,-0.3601,-0.3395,-0.3865,-0.4365,-0.4453,-0.5146,-0.5843,-0.6457,-0.6975,-0.7479,-0.7867,-0.8487,-0.8824,-0.8551,-0.8765,-0.8739,-0.8247,-0.8614,-0.8665,-0.8388,-0.841,-0.8513,-0.8736,-0.9046,-0.9367,-1.0052,-1.0058,-1.0129,-1.0393,-1.0129,-0.9449,-0.841,-0.773,-0.6531,-0.5007,-0.4145,-0.3497,-0.3094,-0.2827,-0.2425,-0.2155,-0.2155,-0.2558,-0.3228,-0.3094,-0.3633,-0.4174,-0.3902,-0.4075,-0.4398,0.0,0.0,0.0,0.0,0.0,0.0,0.0,0.0,0.0,-0.2583,-0.2668,-0.2747,-0.2819,-0.2692,-0.2613,-0.2576,-0.2527,-0.2468,-0.2498,-0.1213,0.0323,0.1977,0.1431,0.0848,0.0,-0.0615,-0.1369,-0.2022,-0.205,-0.2079,-0.211,-0.2408,-0.2692,-0.3228,-0.3365,-0.3622,-0.427,-0.4562,-0.4787,-0.4962,-0.5223,-0.5151,-0.491,-0.4726,-0.4243,-0.3758,-0.3327,-0.299,0.0,-0.3017,-0.266,-0.2197,-0.2341,-0.2535,-0.2806,-0.3506,-0.3347,-0.3086,-0.3457,-0.3218,-0.2783,-0.2833,-0.2881,-0.2921,-0.2496,-0.2623,-0.2745,-0.2635,-0.3091,-0.3556,-0.4142,-0.4683,-0.535,-0.6453,-0.6827,-0.719,-0.7861,-0.8415,-0.8793,-0.8408,-0.8892,-0.9127,-0.861,-0.8598,-0.8519,-0.8508,-0.8519,-0.8622,-0.8861,-0.9302,-0.9656,-0.9995,-1.0277,-1.0442,-1.0522,-1.0085,-0.9466,-0.8694,-0.7898,-0.6714,-0.5465,-0.449,-0.3739,-0.3228,-0.2827,-0.2694,-0.2827,-0.2558,-0.2961,-0.3499,-0.3228,-0.3633,-0.4308,-0.4174,-0.4229,-0.4447,0.0,0.0,0.0,0.0,0.0,0.0,0.0,0.0,0.0,0.0,-0.2649,-0.2759,-0.2835,-0.2623,-0.2521,-0.2557,-0.2542,-0.2529,-0.2518,-0.1193,0.032,0.1958,0.2021,0.1577,0.0614,-0.0493,-0.1366,-0.2009,-0.2038,-0.2067,-0.2097,-0.2527,-0.2816,-0.3228,-0.3633,-0.4037,-0.4308,-0.4842,-0.4948,-0.4904,-0.5544,-0.5451,-0.5073,-0.4797,-0.441,-0.3878,-0.3601,-0.3474,-0.3337,-0.3504,-0.3137,-0.2651,-0.2806,-0.2884,-0.315,-0.3695,-0.3943,-0.3964,-0.3459,-0.3197,-0.3045,-0.2886,-0.2826,-0.2539,-0.2237,-0.2132,-0.2132,-0.2132,-0.2365,-0.2937,-0.3726,-0.4364,-0.5253,-0.6495,-0.6832,-0.717,-0.7861,-0.8426,-0.8551,-0.8265,-0.8963,-0.9211,-0.8886,-0.8688,-0.8629,-0.8579,-0.859,-0.8677,-0.9027,-0.9632,-1.0022,-1.0102,-1.0455,-1.0612,-1.0744,-1.0153,-0.9637,-0.8928,-0.8199,-0.7163,-0.5835,-0.487,-0.3998,-0.3228,-0.3096,-0.3096,-0.3228,-0.2961,-0.323,-0.3768,-0.3497,-0.3768,-0.444,-0.444,-0.4518,-0.4482,0.0,0.0,0.0,0.0,0.0,0.0,0.0,0.0,0.0,0.0,0.0,0.0,0.0,-0.2335,-0.2212,-0.1893,-0.2093,-0.2208,-0.2147,-0.1065,0.031,0.1969,0.1984,0.1932,0.1933,0.0,-0.1359,-0.1978,-0.2007,-0.2035,-0.2065,-0.249,-0.2789,-0.3228,-0.3633,-0.4037,-0.4308,-0.5114,-0.5245,-0.4967,-0.543,-0.5877,-0.605,-0.4563,-0.3918,-0.3875,-0.3411,-0.4221,-0.5045,-0.2899,-0.2925,-0.3641,-0.2757,-0.281,-0.3349,-0.3924,-0.4043,-0.3937,-0.3006,-0.2626,-0.2566,-0.2613,-0.2213,-0.1906,-0.2132,-0.202,-0.1795,-0.1795,-0.2271,-0.2871,-0.3561,-0.4594,-0.565,-0.6616,-0.7064,-0.7505,-0.7872,-0.8223,-0.8511,-0.8395,-0.8487,-0.8614,-0.8736,-0.8967,-0.8978,-0.8584,-0.859,-0.8773,-0.9307,-0.9721,-1.0116,-1.0684,-1.0689,-1.075,-1.1165,-1.047,-0.999,-0.9447,-0.8934,-0.8033,-0.6705,-0.5338,-0.4166,-0.3228,-0.3633,-0.3499,-0.3228,-0.3228,-0.3362,-0.3768,-0.3768,-0.4171,-0.4839,-0.4839,-0.4652,-0.4482,0.0,0.0,0.0,0.0,0.0,0.0,0.0,0.0,0.0,0.0,0.0,0.0,0.0,0.0,0.0,0.0,-0.2243,-0.2376,-0.2397,-0.1396,-0.0,0.1793,0.1215,0.1144,0.1987,-0.0356,-0.1686,-0.1947,-0.1994,-0.2034,-0.2064,-0.275,-0.3054,-0.3228,-0.3902,-0.4174,-0.4308,-0.4842,-0.4977,-0.5104,-0.543,-0.5908,-0.6381,-0.572,-0.554,-0.5475,0.0,-0.5017,-0.4818,-0.4679,-0.4256,-0.3803,-0.3931,-0.3909,-0.3979,-0.4316,-0.4218,-0.381,-0.3318,-0.2721,-0.2326,-0.2367,-0.2046,-0.1825,-0.1939,-0.1809,-0.1795,-0.1795,-0.1915,-0.2383,-0.3556,-0.4208,-0.5115,-0.6607,-0.7195,-0.7505,-0.7872,-0.842,-0.8632,-0.8256,-0.862,-0.8779,-0.8485,-0.8408,-0.8587,-0.8967,-0.8984,-0.9175,-0.9573,-1.0166,-1.0404,-1.0265,-1.077,-1.0842,-1.0613,-1.0452,-1.0104,-0.9319,-0.8425,-0.7409,-0.661,-0.6054,-0.5331,-0.4708,-0.4571,-0.4437,-0.4303,-0.4037,-0.4171,-0.444,-0.4171,-0.4574,-0.5111,-0.4839,-0.4928,-0.5184,0.0,0.0,0.0,0.0,0.0,0.0,0.0,0.0,0.0,0.0,0.0,0.0,0.0,0.0,0.0,0.0,0.0,-0.2281,-0.2289,-0.1505,-0.0378,0.1096,0.0527,0.0329,0.0672,-0.1036,-0.1879,-0.1899,-0.1947,-0.1992,-0.2033,-0.2578,-0.3017,-0.3339,-0.4029,-0.4428,-0.4675,-0.4803,-0.4936,-0.5192,-0.5777,-0.628,-0.681,-0.7093,-0.7011,0.0,-0.674,-0.6175,-0.5288,-0.5316,-0.4924,-0.4293,-0.4372,-0.4276,-0.4186,-0.4159,-0.3956,-0.3665,-0.327,-0.2658,-0.2253,-0.2063,-0.1964,-0.1857,-0.1857,-0.1842,-0.1824,-0.1813,-0.2057,-0.2536,-0.359,-0.4245,-0.5159,-0.6543,-0.7099,-0.7505,-0.7872,-0.8329,-0.8425,-0.8132,-0.843,-0.8607,-0.8361,-0.8082,-0.8247,-0.8828,-0.8944,-0.9111,-0.9777,-1.0316,-1.0544,-1.0266,-1.0724,-1.0796,-1.047,-1.0176,-0.98,-0.9111,-0.8193,-0.7355,-0.6819,-0.6402,-0.5837,-0.5245,-0.5111,-0.4973,-0.4839,-0.4708,-0.4842,-0.4977,-0.4842,-0.498,-0.5379,-0.5111,-0.5305,-0.567,0.0,0.0,0.0,0.0,0.0,0.0,0.0,0.0,0.0,0.0,0.0,0.0,0.0,0.0,0.0,0.0,0.0,0.0,-0.1948,-0.1335,-0.0705,-0.0,0.0,-0.0424,-0.1596,-0.1677,-0.1834,-0.1836,-0.1868,-0.1913,-0.1969,-0.2125,-0.2684,-0.3546,-0.4129,-0.4655,-0.5119,-0.5116,-0.5112,-0.5363,-0.619,-0.6859,-0.7447,-0.8516,-0.8418,-0.7682,-0.7914,-0.7361,-0.6473,-0.4947,-0.4702,-0.5013,-0.4072,-0.3883,-0.3923,-0.3543,-0.3463,-0.34,-0.2743,-0.2444,-0.2259,-0.1952,-0.1866,-0.1888,-0.1888,-0.2005,-0.1994,-0.1964,-0.2476,-0.3116,-0.3777,-0.4704,-0.5786,-0.6775,-0.7143,-0.751,-0.7877,-0.8084,-0.8149,-0.791,-0.7944,-0.7977,-0.8119,-0.7858,-0.7956,-0.8568,-0.8486,-0.8876,-0.9667,-0.9918,-1.041,-1.0819,-1.0665,-1.06,-1.0711,-0.9761,-0.9111,-0.8854,-0.8364,-0.7728,-0.7207,-0.6662,-0.5833,-0.4973,-0.5245,-0.5245,-0.4973,-0.5245,-0.5513,-0.5513,-0.5379,-0.5513,-0.5517,-0.5386,-0.5651,-0.5942,0.0,0.0,0.0,0.0,0.0,0.0,0.0,0.0,0.0,0.0,0.0,0.0,0.0,0.0,0.0,0.0,0.0,0.0,-0.1929,-0.1489,-0.083,-0.0,-0.0374,-0.0883,-0.1536,-0.1705,-0.175,-0.1772,-0.1825,-0.1872,-0.1909,-0.2544,-0.2712,-0.2635,-0.3779,-0.4407,-0.4643,-0.5452,-0.5344,-0.4699,-0.595,-0.7019,-0.7852,-0.8634,-0.8696,-0.8254,-0.7916,-0.7624,-0.7171,-0.621,-0.546,-0.4695,-0.3808,-0.3705,-0.3723,-0.2541,-0.289,-0.3357,-0.2264,-0.2069,-0.1987,-0.2019,-0.1914,-0.2039,-0.2517,-0.2613,-0.2821,-0.3277,-0.3531,-0.3796,-0.4545,-0.5061,-0.5714,-0.6766,-0.7143,-0.7536,-0.7997,-0.8138,-0.8176,-0.8024,0.0,-0.8328,-0.8253,-0.8189,-0.8301,-0.8573,-0.8823,-0.9395,-1.02,-1.0378,-1.0548,-1.0955,-1.0846,-1.0591,-1.0163,-0.9494,-0.9144,-0.9214,-0.8885,-0.8528,-0.8231,-0.7617,-0.6954,-0.6447,-0.6317,-0.6183,-0.6049,-0.6187,-0.6317,-0.6585,-0.6049,-0.6046,-0.646,-0.5715,-0.5737,-0.602,0.0,0.0,0.0,0.0,0.0,0.0,0.0,0.0,0.0,0.0,0.0,0.0,0.0,0.0,0.0,0.0,0.0,0.0,0.0,-0.1666,-0.1034,-0.0084,-0.0267,-0.0838,-0.1555,-0.1833,-0.1996,-0.203,-0.1977,-0.1908,-0.1827,-0.2321,-0.2592,-0.2872,-0.3615,-0.4469,-0.5196,-0.5726,-0.5884,0.0,0.0,-0.7296,-0.778,-0.8283,-0.8401,-0.8395,-0.7844,-0.747,-0.71,-0.598,-0.5135,-0.4487,-0.3752,-0.3319,-0.2881,-0.2349,-0.2132,-0.2024,-0.1816,-0.1389,-0.1179,-0.1771,-0.1911,-0.2048,-0.2391,-0.2622,-0.2848,-0.3536,-0.4044,-0.4444,-0.5058,-0.5569,-0.6098,-0.6766,-0.7021,-0.7424,-0.8035,-0.816,-0.8193,-0.8068,-0.8242,-0.8365,-0.8258,-0.8264,-0.8387,-0.8845,-0.8938,-0.9359,-1.0028,-1.0302,-1.0587,-1.0853,-1.0914,-1.0638,-0.9883,-0.9664,-0.9484,-0.9457,-0.9214,-0.8958,-0.8781,-0.8149,-0.7379,-0.6655,-0.666,-0.6552,-0.6455,-0.6719,-0.6853,-0.7121,-0.6719,-0.6719,-0.6732,-0.6149,-0.6039,-0.6054,0.0,0.0,0.0,0.0,0.0,0.0,0.0,0.0,0.0,0.0,0.0,0.0,0.0,0.0,0.0,0.0,0.0,0.0,0.0,0.0,0.0,-0.0242,-0.0086,-0.0451,-0.1566,-0.2054,-0.2333,-0.2472,-0.1993,-0.1708,-0.1738,-0.176,-0.2347,-0.3529,-0.3689,-0.464,-0.604,-0.5929,-0.6443,-0.7466,-0.7375,-0.7466,-0.7496,0.0,0.0,-0.8214,-0.7645,-0.7197,-0.6676,-0.523,-0.4661,-0.4289,-0.3684,-0.269,-0.202,-0.2244,-0.1234,-0.0224,-0.1234,-0.0803,-0.0234,-0.1501,-0.1883,-0.1918,-0.2009,-0.2384,-0.2761,-0.3551,-0.4469,-0.5151,-0.5569,-0.5981,-0.653,-0.6917,-0.6922,-0.7202,-0.7937,-0.8171,-0.8193,-0.8068,-0.8102,-0.8217,-0.8258,-0.8191,-0.8456,-0.9117,-0.9019,-0.9282,-0.9813,-1.0181,-1.0443,-1.0724,-1.0678,-1.0399,-0.9761,-0.9975,-0.9944,-0.9795,-0.9572,-0.94,-0.9019,-0.8415,-0.7546,-0.6448,-0.6714,-0.663,-0.6569,-0.6982,-0.7245,-0.7641,-0.7655,-0.7259,-0.6732,-0.6694,-0.6449,-0.6199,0.0,0.0,0.0,0.0,0.0,0.0,0.0,0.0,0.0,0.0,-0.1817,0.0,0.0,0.0,0.0,0.0,0.0,0.0,0.0,0.0,0.0,0.0,-0.0422,-0.0442,-0.1442,-0.1627,-0.2172,-0.3073,-0.2017,-0.1541,-0.1674,-0.155,-0.2199,-0.3347,-0.4163,-0.4706,-0.5094,-0.6155,-0.6754,-0.689,-0.6959,-0.6786,-0.6581,-0.6874,0.0,0.0,-0.7437,-0.6872,-0.624,-0.6005,-0.5695,-0.4908,-0.3136,-0.258,-0.2244,-0.0897,-0.0224,-0.0,-0.0224,-0.0114,-0.0115,-0.092,-0.1516,-0.201,-0.2592,-0.3217,-0.385,-0.48,-0.5596,-0.6276,-0.663,-0.6517,-0.6553,-0.6883,-0.7022,-0.7185,-0.7679,-0.797,-0.8193,-0.8068,-0.8285,-0.8264,-0.8247,-0.8448,-0.8717,-0.9117,-0.9371,-0.9946,-1.0617,-1.0404,-1.0345,-1.0724,-1.024,-0.996,-0.9755,-0.9875,-0.9788,-0.9646,-1.0244,-1.0193,-0.9496,-0.8747,-0.8055,-0.7491,-0.671,-0.6718,-0.7139,-0.7355,-0.7872,-0.8585,-0.8153,-0.8056,-0.82,-0.7369,-0.6859,-0.6465,0.0,0.0,0.0,0.0,0.0,0.0,0.0,0.0,0.0,-0.1605,-0.1749,-0.1951,0.0,0.0,0.0,0.0,0.0,0.0,0.0,0.0,0.0,0.0,0.0,0.0,-0.1388,-0.2009,-0.2438,-0.2813,0.0,-0.2056,-0.1469,-0.1762,-0.2275,-0.312,-0.3891,-0.4514,-0.49,-0.5926,-0.6422,-0.6595,-0.6706,-0.6645,0.0,0.0,0.0,0.0,0.0,-0.6632,-0.6399,-0.624,-0.6328,-0.6149,-0.4145,-0.3493,-0.329,-0.2043,-0.0903,0.0,0.0,0.0,-0.0115,-0.0796,-0.1379,-0.1979,-0.2442,-0.3296,-0.4172,-0.5167,-0.609,-0.6785,-0.7217,-0.7103,-0.7137,-0.7623,-0.7511,-0.7658,-0.8225,-0.8291,-0.8263,-0.8079,-0.8323,-0.8437,-0.8253,-0.8448,-0.8856,-0.9389,-0.9528,-0.9958,-1.0551,-1.0492,-1.0551,-1.0602,-1.033,-1.0183,-1.0154,-1.0136,-1.0315,-1.0554,-1.0629,-1.0426,-1.0067,-0.9169,-0.8487,-0.7837,-0.7203,-0.7265,-0.7888,-0.7944,-0.8503,-0.9306,-0.8972,-0.8856,-0.86,-0.8043,-0.7575,-0.6949,0.0,0.0,0.0,0.0,0.0,0.0,0.0,-0.1697,-0.1574,-0.1536,-0.1615,-0.1749,-0.1817,-0.1884,-0.2153,0.0,0.0,0.0,0.0,0.0,0.0,0.0,0.0,0.0,0.0,0.0,0.0,-0.2603,-0.2862,0.0,0.0,0.0,0.0,0.0,-0.3506,-0.4021,-0.4675,-0.5536,-0.5922,0.0,0.0,-0.6442,0.0,0.0,0.0,0.0,0.0,-0.6453,-0.6519,-0.6358,-0.6837,-0.7154,-0.5506,-0.4662,-0.4258,-0.3793,-0.2731,-0.1468,-0.0343,0.0,-0.0114,-0.0787,-0.1359,-0.1947,-0.2299,-0.3258,-0.4251,-0.5279,-0.6332,-0.7163,-0.763,-0.7645,-0.7692,-0.7959,-0.7847,-0.7842,-0.8359,-0.8469,-0.8329,-0.8084,-0.835,-0.8481,-0.8291,-0.8465,-0.8845,-0.9618,-0.9751,-1.0028,-1.0319,-1.069,-1.0747,-1.0493,-1.0432,-1.041,-1.0543,-1.0479,-1.0785,-1.1443,-1.0965,-1.0715,-1.0567,-0.9683,-0.8896,-0.8262,-0.7791,-0.7917,-0.8502,-0.8524,-0.899,-0.9751,-0.9782,-0.9395,-0.8867,-0.8693,-0.8138,-0.7431,0.0,0.0,0.0,0.0,0.0,0.0,0.0,-0.1446,-0.1387,-0.1201,-0.1143,-0.1277,-0.1615,-0.1951,-0.2354,0.0,0.0,0.0,0.0,0.0,0.0,0.0,0.0,0.0,0.0,0.0,0.0,-0.2875,-0.274,0.0,0.0,0.0,0.0,0.0,0.0,-0.3565,-0.3919,-0.4975,0.0,0.0,0.0,0.0,0.0,0.0,0.0,0.0,0.0,-0.6067,-0.6108,-0.676,-0.6843,-0.673,-0.6714,-0.589,-0.4904,-0.4843,-0.5983,-0.6098,-0.1264,0.0,-0.0112,-0.0785,-0.1348,-0.1919,-0.2633,-0.349,-0.4608,-0.5634,-0.6696,-0.751,-0.7766,-0.7643,-0.7346,-0.7302,-0.7586,-0.7586,-0.7335,-0.7951,-0.8329,-0.8084,-0.828,-0.8426,-0.8405,-0.8513,-0.8806,-0.9353,-0.9993,-1.0444,-1.0711,-1.1243,-1.1156,-1.0493,-1.0229,-1.0198,-1.0543,-1.0507,-1.0738,-1.1248,-1.1479,-1.1282,-1.0795,-1.0171,-0.956,-0.8995,-0.8251,-0.8254,-0.8642,-0.8756,-0.9335,-1.0006,-0.9745,-0.9661,-0.9528,-0.8867,-0.8204,-0.7697,0.0,0.0,0.0,0.0,0.0,0.0,0.0,-0.1492,-0.1326,-0.1134,-0.1143,-0.1344,-0.1548,-0.2085,-0.2488,0.0,0.0,0.0,0.0,0.0,0.0,0.0,0.0,0.0,0.0,0.0,0.0,-0.2654,-0.279,0.0,0.0,0.0,0.0,0.0,0.0,-0.3846,-0.3886,-0.4811,0.0,0.0,0.0,0.0,0.0,0.0,0.0,0.0,0.0,0.0,-0.5778,-0.636,-0.6786,-0.7172,-0.6995,-0.6893,-0.6778,-0.6273,-0.6541,-0.635,-0.325,-0.1143,-0.0112,-0.0785,-0.1346,-0.2034,-0.2898,-0.4097,-0.5204,-0.6306,-0.7352,-0.8022,-0.8212,-0.7857,-0.7541,-0.7827,-0.7591,-0.7591,-0.7847,-0.7951,-0.8065,-0.8084,-0.8269,-0.8388,-0.8318,-0.8416,-0.8727,-0.9329,-1.0182,-1.0575,-1.046,-1.0998,-1.097,-1.0365,-1.0287,-1.0376,-1.0645,-1.0786,-1.1168,-1.1791,-1.1802,-1.1594,-1.1197,-1.0417,-0.9923,-0.9693,-0.8902,-0.8879,-0.9398,-0.9621,-0.9973,-1.0134,-1.0234,-1.006,-0.9661,-0.9123,-0.8465,-0.7697,0.0,0.0,0.0,0.0,0.0,-0.194,-0.1688,-0.1533,-0.1322,-0.1123,-0.1137,-0.1344,-0.1546,-0.1951,-0.2348,-0.2792,0.0,0.0,0.0,0.0,0.0,0.0,0.0,0.0,0.0,0.0,0.0,-0.251,-0.2759,-0.3036,0.0,0.0,-0.333,-0.3423,0.0,0.0,0.0,0.0,0.0,0.0,0.0,0.0,0.0,0.0,0.0,0.0,0.0,0.0,0.0,0.0,0.0,-0.7152,-0.7013,-0.7431,-0.7881,-0.705,-0.6857,-0.6546,-0.4598,-0.2435,-0.0796,-0.1934,-0.2276,-0.2752,-0.3886,-0.485,-0.5835,-0.7094,-0.7872,-0.8273,-0.8482,-0.8002,-0.7671,-0.7907,-0.7541,-0.7429,-0.7847,-0.7915,-0.7904,-0.8127,-0.8258,-0.8329,-0.8242,-0.8441,-0.888,-0.9263,-1.0136,-1.048,-1.0349,-1.0813,-1.082,-1.0215,-1.0308,-1.0544,-1.0793,-1.0821,-1.1354,-1.225,-1.2001,-1.1886,-1.1663,-1.0932,-1.041,-1.0296,-0.9676,-0.9659,-0.9902,-1.0198,-1.0355,-1.0431,-1.0555,-1.0287,-0.9794,-0.9117,-0.8465,-0.7692,0.0,0.0,0.0,0.0,0.0,0.0,0.0,-0.1512,-0.1311,-0.1031,-0.1058,-0.121,-0.1412,-0.1412,-0.173,-0.2652,0.0,0.0,0.0,0.0,0.0,0.0,0.0,0.0,0.0,0.0,0.0,-0.251,-0.2669,-0.2863,-0.2927,-0.3092,-0.3174,-0.3258,0.0,0.0,0.0,0.0,0.0,0.0,0.0,0.0,0.0,0.0,0.0,0.0,0.0,0.0,0.0,0.0,0.0,0.0,0.0,-0.7095,-0.7407,-0.7057,-0.738,-0.735,-0.5163,-0.3324,-0.2465,-0.4588,-0.4474,-0.4254,-0.551,-0.5889,-0.6395,-0.8083,-0.8111,-0.7994,-0.8372,-0.7877,-0.7301,-0.7031,-0.705,-0.7088,-0.7193,-0.7463,-0.7847,-0.8103,-0.8236,-0.8236,-0.8236,-0.8869,-0.9252,-0.9252,-0.9895,-1.0342,-1.0433,-1.0798,-1.0674,-1.0053,-1.0148,-1.0429,-1.0785,-1.0699,-1.1339,-1.2479,-1.2413,-1.2446,-1.2337,-1.1997,-1.1414,-1.0876,-1.0646,-1.0317,-0.9989,-1.0414,-1.0642,-1.0806,-1.0568,-1.0326,-1.006,-0.8989,-0.8199,-0.7697,0.0,0.0,0.0,0.0,0.0,0.0,0.0,-0.1544,-0.1331,-0.1062,-0.1073,-0.1216,-0.1369,-0.1633,-0.2068,-0.2638,0.0,0.0,0.0,0.0,0.0,0.0,0.0,0.0,0.0,0.0,0.0,0.0,0.0,-0.2947,-0.3018,-0.3252,-0.3489,-0.3651,-0.4061,0.0,0.0,0.0,0.0,0.0,0.0,0.0,0.0,0.0,0.0,0.0,0.0,0.0,0.0,0.0,0.0,0.0,0.0,0.0,0.0,-0.7143,-0.7546,-0.7714,-0.7105,-0.6432,-0.599,-0.5578,-0.5369,-0.5284,-0.5598,-0.6102,-0.6631,-0.738,-0.7687,-0.7747,-0.7867,-0.721,-0.6785,-0.6941,-0.6575,-0.6487,-0.7084,-0.7224,-0.7476,-0.8111,-0.8111,-0.8111,-0.8111,-0.8563,-0.8961,-0.8998,-0.9583,-1.0035,-1.0393,-1.0732,-1.0791,-1.0418,-1.0508,-1.062,-1.0629,-1.0872,-1.1388,-1.2402,-1.2578,-1.2663,-1.2327,-1.1854,-1.1578,-1.138,-1.0917,-1.0616,-1.0529,-1.0982,-1.0942,-1.0594,-1.0827,-1.0651,-1.0182,-0.9353,-0.8601,-0.8109,0.0,0.0,0.0,0.0,0.0,0.0,0.0,-0.1578,-0.1306,-0.1151,-0.1104,-0.1187,-0.1285,-0.1481,-0.1975,-0.2849,0.0,0.0,0.0,0.0,0.0,0.0,0.0,0.0,0.0,0.0,0.0,0.0,0.0,0.0,0.0,0.0,-0.3604,-0.3843,-0.4214,0.0,0.0,0.0,0.0,0.0,0.0,0.0,-0.434,0.0,0.0,0.0,0.0,0.0,0.0,0.0,0.0,0.0,0.0,0.0,0.0,0.0,-0.7448,-0.7773,-0.7817,-0.7693,-0.7288,-0.6579,-0.6246,-0.626,-0.6503,-0.6759,-0.6925,-0.7397,-0.7338,-0.7267,-0.7267,-0.6731,-0.6431,-0.6589,-0.6472,-0.6399,-0.6906,-0.7142,-0.7609,-0.7986,-0.811,-0.8132,-0.8051,-0.8626,-0.9022,-0.9062,-0.9506,-0.9948,-1.0436,-1.0767,-1.0819,-1.0573,-1.0723,-1.0711,-1.0554,-1.0848,-1.1583,-1.2413,-1.2869,-1.2989,-1.2772,-1.2337,-1.1917,-1.1594,-1.1282,-1.0962,0.0,-1.1222,-1.1187,-1.0816,-1.098,-1.0955,-1.0637,-0.9726,-0.9008,-0.8526,0.0,0.0,0.0,0.0,0.0,0.0,0.0,0.0,0.0,-0.1293,-0.1144,-0.1054,-0.1149,-0.1152,-0.1709,-0.3026,0.0,0.0,0.0,0.0,0.0,0.0,0.0,0.0,0.0,0.0,0.0,-0.262,-0.2978,-0.3129,-0.3139,0.0,-0.3604,-0.3839,-0.4219,0.0,0.0,0.0,0.0,0.0,-0.4307,-0.4384,0.0,0.0,0.0,0.0,0.0,0.0,0.0,0.0,0.0,0.0,0.0,0.0,0.0,0.0,0.0,0.0,0.0,-0.7396,-0.7084,-0.7584,-0.7204,-0.7055,-0.8096,-0.7724,0.0,-0.784,-0.7264,-0.657,-0.6686,-0.6345,-0.6029,-0.6239,-0.6501,-0.6687,-0.6629,-0.7316,-0.7861,-0.7872,-0.8122,-0.829,-0.8154,-0.9044,-0.9417,-0.9044,-0.966,-1.0211,-1.0778,-1.077,-1.0763,-1.0755,-1.0755,-1.0681,-1.0539,-1.0841,-1.1566,-1.258,-1.3078,-1.3305,-1.3186,-1.298,-1.2446,-1.1608,-1.1629,-1.1232,-1.0568,-1.1059,-1.1374,-1.1292,-1.1283,-1.1381,-1.1401,-1.0122,-0.9549,-0.9226,0.0,0.0,0.0,0.0,0.0,0.0,0.0,0.0,0.0,0.0,-0.12,-0.128,-0.1381,-0.1744,-0.2158,0.0,0.0,0.0,0.0,0.0,0.0,0.0,0.0,0.0,0.0,0.0,0.0,-0.2842,-0.3172,-0.3328,-0.337,-0.3448,-0.3604,-0.3839,-0.3921,0.0,0.0,0.0,0.0,0.0,-0.4623,-0.4623,0.0,0.0,0.0,0.0,-0.4816,-0.4854,0.0,0.0,0.0,0.0,0.0,0.0,0.0,0.0,-0.7081,-0.7383,-0.764,0.0,-0.7802,-0.7795,-0.784,-0.7974,0.0,-0.7992,0.0,0.0,0.0,-0.658,-0.6235,-0.5598,-0.5322,-0.612,-0.5778,-0.5553,-0.6319,-0.703,-0.7527,-0.7861,-0.7994,-0.8133,-0.829,-0.8781,-0.9148,-0.9265,-0.9632,-1.0051,-1.0495,-1.0375,-1.0317,-1.042,-1.042,-1.0398,-1.036,-1.0894,-1.1335,-1.1962,-1.2822,-1.3116,-1.2753,-1.2812,-1.2531,-1.169,-1.1552,-1.1419,-1.1413,-1.1451,-1.1557,-1.1852,-1.1736,-1.1695,-1.1637,-1.0754,-1.0367,-1.0052,0.0,0.0,0.0,0.0,0.0,0.0,0.0,0.0,0.0,0.0,0.0,0.0,0.0,0.0,0.0,0.0,0.0,0.0,0.0,0.0,0.0,0.0,0.0,0.0,0.0,-0.3064,-0.3213,0.0,0.0,-0.3551,-0.3526,-0.3604,-0.3761,-0.3921,-0.4173,0.0,0.0,0.0,0.0,0.0,-0.4779,0.0,0.0,0.0,0.0,0.0,-0.4954,-0.5078,0.0,-0.5294,-0.5302,-0.5317,0.0,0.0,0.0,0.0,-0.6877,-0.7176,-0.7393,-0.7681,-0.7951,-0.7938,-0.819,-0.8304,-0.8202,-0.8103,0.0,0.0,0.0,-0.6817,-0.6526,-0.5894,-0.5727,-0.6291,-0.5954,-0.5716,-0.6428,-0.687,-0.7296,-0.7785,-0.7961,-0.8244,-0.8372,-0.8732,-0.8854,-0.8854,-0.9335,-0.9754,-1.008,-1.008,-1.0126,-1.0077,-1.0185,-1.0263,-1.0196,-1.0874,-1.1475,-1.1846,-1.2822,-1.3146,-1.2715,-1.294,-1.2612,-1.1731,-1.1604,-1.1629,-1.1701,-1.1779,-1.2073,-1.2509,-1.2532,-1.248,-1.2331,-1.1687,-1.1312,-1.102,0.0,0.0,0.0,0.0,0.0,0.0,0.0,0.0,0.0,0.0,0.0,0.0,0.0,0.0,0.0,0.0,0.0,0.0,0.0,0.0,0.0,0.0,0.0,-0.2407,-0.2407,-0.3205,-0.3389,-0.2987,-0.3647,-0.3815,-0.3526,-0.3761,-0.399,-0.421,-0.454,0.0,0.0,0.0,0.0,0.0,-0.4929,0.0,0.0,0.0,0.0,0.0,0.0,0.0,0.0,-0.5457,-0.547,-0.5582,-0.5882,0.0,0.0,0.0,0.0,0.0,-0.7089,-0.7539,-0.7985,-0.8106,-0.8076,-0.8152,-0.8342,0.0,0.0,0.0,0.0,0.0,-0.6832,-0.6507,-0.6322,-0.6443,-0.6228,-0.6116,-0.6485,-0.6616,-0.6924,-0.7578,-0.8027,-0.8227,-0.8366,-0.861,-0.8732,-0.8488,-0.8958,-0.9359,-0.9571,-0.978,-0.9821,-0.9781,-1.0111,-1.0167,-0.992,-1.0948,-1.1526,-1.1855,-1.2861,-1.3078,-1.2832,-1.3088,-1.2683,-1.1625,-1.1792,-1.1759,-1.1628,-1.1904,-1.2294,-1.2873,-1.3091,-1.302,-1.2934,-1.2497,-1.2254,-1.1993,0.0,0.0,0.0,0.0,0.0,0.0,0.0,0.0,0.0,0.0,0.0,0.0,0.0,0.0,0.0,0.0,0.0,0.0,0.0,0.0,0.0,0.0,-0.2029,-0.228,-0.2468,-0.3148,-0.347,-0.3427,-0.3803,-0.39,-0.3765,-0.3921,-0.4187,-0.4407,-0.4655,-0.4746,-0.4724,0.0,0.0,-0.4563,-0.4897,0.0,0.0,0.0,0.0,0.0,0.0,0.0,0.0,-0.5802,-0.5733,-0.5661,-0.5863,0.0,0.0,0.0,0.0,0.0,-0.7702,-0.778,-0.7816,-0.7586,-0.7689,-0.7871,-0.7849,0.0,0.0,0.0,0.0,0.0,-0.6177,-0.573,-0.556,-0.5731,-0.553,-0.544,-0.5868,-0.5886,-0.6206,-0.7194,-0.7469,-0.7763,-0.836,-0.8494,-0.8616,-0.8854,-0.8744,-0.8978,-0.9298,-0.9063,-0.9044,-0.9453,-0.978,-0.9876,-0.9853,-1.0891,-1.1355,-1.1442,-1.2469,-1.2675,-1.2191,-1.2685,-1.254,-1.1819,-1.1742,-1.1722,-1.1577,-1.1602,-1.1733,-1.2076,-1.2299,-1.2447,-1.2385,-1.2326,-1.2254,-1.2022,0.0,0.0,0.0,0.0,0.0,0.0,0.0,0.0,0.0,0.0,0.0,0.0,0.0,0.0,0.0,0.0,0.0,0.0,0.0,0.0,0.0,-0.1842,-0.1987,-0.2157,-0.2342,-0.2941,-0.3316,-0.3495,-0.364,-0.3883,-0.4151,-0.4311,-0.4516,-0.4772,-0.483,-0.4876,-0.4855,-0.4969,-0.4908,-0.4783,0.0,0.0,0.0,0.0,0.0,0.0,0.0,0.0,0.0,0.0,-0.5893,-0.5921,-0.6031,0.0,0.0,0.0,0.0,0.0,-0.7299,-0.7364,-0.7292,-0.7328,-0.7523,-0.7487,0.0,0.0,0.0,0.0,0.0,0.0,-0.576,0.0,-0.5589,-0.5096,0.0,-0.5125,-0.5159,-0.5486,-0.6098,-0.7075,-0.7334,-0.7595,-0.8262,-0.8204,-0.8187,-0.817,-0.8289,-0.8561,-0.8698,-0.8736,-0.8864,-0.9161,-0.9596,-0.9816,-0.9816,-1.0888,-1.1507,-1.1441,-1.2398,-1.2724,-1.2304,-1.2724,-1.2449,-1.175,-1.175,-1.174,-1.1736,-1.1736,-1.2021,-1.242,-1.2574,-1.2615,-1.2627,-1.2422,-1.1998,-1.1476,0.0,0.0,0.0,0.0,0.0,0.0,0.0,0.0,0.0,0.0,0.0,0.0,0.0,0.0,0.0,0.0,0.0,0.0,0.0,0.0,-0.1475,-0.18,-0.1992,-0.2166,-0.2306,-0.2818,-0.3243,-0.3564,-0.3636,-0.3957,-0.4462,-0.4623,-0.4774,-0.5007,-0.5012,-0.5002,-0.4974,-0.5007,-0.4924,-0.4897,0.0,0.0,0.0,0.0,0.0,0.0,0.0,0.0,0.0,0.0,0.0,0.0,0.0,0.0,0.0,-0.6437,-0.6502,-0.6584,-0.6821,-0.6692,-0.6631,-0.7056,0.0,0.0,0.0,0.0,0.0,0.0,0.0,0.0,-0.541,-0.5475,-0.5402,-0.4732,-0.485,-0.4969,-0.462,-0.5118,-0.5881,-0.6926,-0.706,-0.7308,-0.8056,-0.778,-0.7621,-0.7535,-0.7696,-0.8002,-0.8148,-0.8332,-0.8601,-0.883,-0.9485,-0.9816,-0.9816,-1.1017,-1.1564,-1.1573,-1.2446,-1.2663,-1.2436,-1.2663,-1.2367,-1.1811,-1.182,-1.1808,-1.1676,-1.1794,-1.208,-1.2602,-1.2457,-1.2553,-1.2686,-1.2097,-1.1572,-1.106,0.0,0.0,0.0,0.0,0.0,0.0,0.0,0.0,0.0,0.0,0.0,0.0,0.0,0.0,0.0,0.0,0.0,0.0,0.0,0.0,-0.1405,-0.1633,-0.1853,-0.2187,-0.257,-0.3181,-0.3591,-0.3781,-0.393,-0.4259,-0.4701,-0.4701,-0.4779,-0.5018,-0.5018,-0.4953,-0.4855,-0.4969,-0.4794,-0.4548,-0.4892,0.0,0.0,0.0,0.0,0.0,0.0,0.0,0.0,0.0,0.0,0.0,0.0,0.0,-0.6437,-0.6437,-0.6442,-0.6475,-0.6691,-0.6107,-0.5597,-0.6215,-0.6329,0.0,0.0,0.0,0.0,-0.6152,0.0,0.0,0.0,-0.4609,-0.4732,-0.4688,-0.4698,-0.4698,-0.4698,-0.4644,-0.5207,-0.6462,-0.6359,-0.6636,-0.7693,-0.723,-0.7065,-0.7413,-0.7196,-0.7241,-0.7789,-0.8015,-0.8165,-0.8484,-0.9375,-0.9816,-0.9816,-1.1017,-1.1564,-1.1573,-1.2219,-1.2436,-1.2436,-1.2436,-1.2099,-1.1659,-1.1888,-1.1637,-1.0891,-1.1253,-1.139,-1.1445,-1.1416,-1.1615,-1.1799,-1.1316,-1.1158,-1.0928,0.0,0.0,0.0,0.0,0.0,0.0,0.0,0.0,0.0,0.0,0.0,0.0,0.0,0.0,0.0,0.0,0.0,0.0,0.0,0.0,-0.1416,-0.1677,-0.1953,-0.2268,-0.2577,-0.285,-0.3243,-0.3781,-0.4353,-0.4767,-0.4851,-0.5007,-0.509,-0.5168,-0.5096,-0.4991,-0.4953,-0.4996,-0.4991,-0.5024,-0.5151,-0.5323,0.0,0.0,0.0,0.0,0.0,0.0,0.0,0.0,-0.5888,-0.6072,-0.5996,-0.6187,-0.642,-0.635,-0.6283,-0.6247,-0.6491,-0.6103,-0.5901,-0.6513,0.0,0.0,0.0,0.0,0.0,0.0,-0.5598,0.0,0.0,0.0,-0.4325,-0.4623,-0.4596,-0.4599,-0.4695,-0.4875,-0.5334,-0.63,-0.6269,-0.6368,-0.6995,-0.6759,-0.6662,-0.6644,-0.6766,-0.6937,-0.7122,-0.7504,-0.7942,-0.8356,-0.9226,-0.9712,-0.9816,-1.0798,-1.1345,-1.1573,-1.211,-1.2436,-1.2436,-1.2436,-1.2219,-1.1914,-1.2029,-1.1896,-1.1405,-1.1526,-1.159,-1.1471,-1.1434,-1.1445,-1.1416,-1.0913,-1.0744,-1.0651,0.0,0.0,0.0,0.0,0.0,0.0,0.0,0.0,0.0,0.0,0.0,0.0,0.0,0.0,0.0,0.0,0.0,0.0,0.0,-0.1403,-0.1362,-0.1566,-0.1992,-0.2354,-0.2543,-0.281,-0.3215,-0.393,-0.4665,-0.5007,-0.4929,-0.5085,-0.5168,-0.5168,-0.5056,-0.4972,-0.5018,-0.4977,-0.5045,-0.5318,-0.5318,-0.555,0.0,0.0,0.0,0.0,0.0,0.0,0.0,0.0,-0.5866,-0.6018,-0.5975,-0.6154,-0.6377,-0.6333,-0.6184,-0.6047,-0.6137,-0.5942,-0.5947,0.0,0.0,0.0,0.0,0.0,0.0,0.0,-0.5491,0.0,0.0,0.0,0.0,0.0,-0.4438,-0.4448,-0.4688,-0.4875,-0.5219,-0.6191,-0.6012,-0.6067,-0.6531,-0.6415,-0.6189,-0.6136,-0.6399,-0.6577,-0.6706,-0.7223,-0.7799,-0.8107,-0.9004,-0.9514,-0.9734,-1.0554,-1.1126,-1.1564,-1.1946,-1.2271,-1.2436,-1.2545,-1.233,-1.1914,-1.2144,-1.2013,-1.1647,-1.1526,-1.1294,-1.115,-1.1291,-1.1236,-1.1024,-1.0639,-1.0606,-1.0512,0.0,0.0,0.0,0.0,0.0,0.0,0.0,0.0,0.0,0.0,0.0,0.0,0.0,0.0,0.0,0.0,0.0,0.0,-0.1628,-0.1403,-0.1291,-0.1291,-0.2023,-0.245,-0.2526,-0.3046,-0.356,-0.4075,-0.467,-0.4935,-0.4701,-0.494,-0.5018,-0.5023,-0.4818,-0.4888,-0.5023,-0.4823,-0.4962,-0.5318,-0.5318,-0.555,-0.586,0.0,0.0,0.0,0.0,0.0,0.0,0.0,-0.5806,-0.5926,-0.6045,-0.6165,-0.629,-0.6399,-0.6142,-0.5851,-0.5636,-0.5445,-0.545,0.0,0.0,0.0,0.0,0.0,-0.4686,-0.6558,0.0,-0.5482,-0.6139,-0.5043,0.0,-0.4582,-0.4367,-0.4277,-0.4695,-0.464,-0.4969,-0.5985,-0.5796,-0.5737,-0.6308,-0.5851,-0.5656,-0.6018,-0.6112,-0.6173,-0.6378,-0.7112,-0.7644,-0.7644,-0.8628,-0.9348,-0.9563,-1.0381,-1.1017,-1.1564,-1.1702,-1.1926,-1.2436,-1.2772,-1.2441,-1.1676,-1.2259,-1.2013,-1.1277,-1.0914,-1.0623,-1.0424,-1.0826,-1.085,-1.0758,-1.0646,-1.0612,-1.0651,0.0,0.0,0.0,0.0,0.0,0.0,0.0,0.0,0.0,0.0,0.0,0.0,0.0,0.0,0.0,0.0,0.0,0.0,-0.174,-0.1684,-0.1684,-0.1793,-0.2091,-0.2394,-0.2649,-0.3366,-0.3769,-0.3858,-0.4741,-0.5012,-0.4701,-0.5168,-0.5251,-0.5023,-0.4818,-0.4888,-0.5023,-0.4823,-0.4962,-0.5318,-0.5479,-0.5634,-0.5938,0.0,0.0,0.0,0.0,0.0,0.0,0.0,0.0,0.0,-0.6122,-0.5935,-0.5761,-0.6107,-0.5475,-0.486,-0.5018,-0.4794,0.0,-0.4522,0.0,0.0,0.0,-0.577,0.0,0.0,-0.5547,-0.5247,-0.5381,-0.4731,0.0,-0.4233,-0.4098,-0.4205,-0.4617,-0.484,-0.5177,-0.5894,-0.5754,-0.5622,-0.6084,-0.5622,-0.5385,-0.5696,-0.5826,-0.595,-0.6144,-0.6754,-0.7202,-0.7504,-0.8262,-0.9026,-0.9563,-1.0171,-1.0688,-1.1236,-1.1511,-1.1946,-1.2436,-1.2327,-1.2108,-1.1914,-1.2061,-1.1904,-1.1671,-1.1294,-1.1077,-1.094,-1.0816,-1.0941,-1.1024,-1.0639,-1.0612,-1.0651,0.0,0.0,0.0,0.0,0.0,0.0,0.0,0.0,0.0,0.0,-0.2313,-0.224,0.0,0.0,0.0,0.0,0.0,0.0,0.0,0.0,-0.1908,-0.2073,-0.2211,-0.2532,-0.3072,-0.3645,-0.3876,-0.3866,-0.4747,-0.5013,-0.4558,-0.5223,-0.5323,-0.5023,-0.4818,-0.4888,-0.5023,-0.4823,-0.4962,-0.5318,-0.5479,-0.5712,-0.5938,0.0,0.0,0.0,0.0,0.0,0.0,0.0,0.0,0.0,-0.6166,-0.5942,-0.5646,-0.6053,-0.534,-0.4528,-0.471,-0.4698,0.0,-0.4522,-0.4798,-0.5089,-0.5273,0.0,0.0,0.0,-0.59,-0.5722,-0.5352,-0.483,0.0,-0.4309,-0.4064,-0.4058,-0.4582,-0.4797,-0.5131,-0.5737,-0.5593,-0.5572,-0.5686,-0.5439,-0.5206,-0.5329,-0.5647,-0.5853,-0.5847,-0.6442,-0.6977,-0.7357,-0.7904,-0.8675,-0.9473,-0.9854,-1.0405,-1.1126,-1.1167,-1.1602,-1.2119,-1.2202,-1.219,-1.2038,-1.1846,-1.1543,-1.1187,-1.1033,-1.1038,-1.0948,-1.0733,-1.0891,-1.1108,-1.094,-1.0922,-1.0868,0.0,0.0,-0.472,-0.394,0.0,0.0,0.0,0.0,0.0,0.0,-0.2569,-0.2464,0.0,0.0,0.0,0.0,0.0,0.0,0.0,0.0,-0.1964,-0.224,-0.2376,-0.2855,-0.3604,-0.3804,-0.3904,-0.3904,-0.4692,-0.4822,-0.4312,-0.5018,-0.524,-0.4961,-0.4903,-0.4893,-0.504,-0.4908,-0.5042,-0.5318,-0.5479,-0.5712,-0.5944,-0.6183,0.0,0.0,0.0,0.0,0.0,0.0,0.0,0.0,-0.6224,-0.6082,-0.5947,-0.617,-0.5557,-0.4801,-0.4798,-0.4722,-0.4722,-0.4939,-0.5022,0.0,-0.4762,-0.6108,-0.7277,-0.6733,0.0,-0.6323,-0.5678,-0.4958,-0.4453,-0.446,-0.391,-0.3821,-0.4448,-0.4518,-0.4729,-0.5488,-0.5426,-0.5377,-0.5369,-0.5284,-0.5194,-0.5104,-0.553,-0.5741,-0.5641,-0.6342,-0.6942,-0.7235,-0.7674,-0.8323,-0.9287,-0.9473,-1.0062,-1.0967,-1.0841,-1.1082,-1.1573,-1.2219,-1.2438,-1.1983,-1.1495,-1.0906,-1.0329,-1.0656,-1.0658,-1.031,-1.0609,-1.0812,-1.0968,-1.1111,-1.126,-1.1409,0.0,0.0,-0.4935,-0.4219,0.0,0.0,0.0,0.0,0.0,0.0,0.0,0.0,0.0,0.0,0.0,0.0,0.0,0.0,0.0,0.0,-0.2411,-0.2579,-0.2901,-0.3228,-0.3608,-0.3865,-0.3996,-0.3996,-0.4785,-0.4956,-0.4458,-0.5231,-0.5354,-0.4834,-0.5181,-0.5256,-0.5068,-0.5015,-0.5116,-0.5318,-0.5479,-0.5634,-0.5712,-0.6106,-0.6212,0.0,0.0,0.0,0.0,0.0,0.0,0.0,-0.6382,-0.6099,-0.5818,-0.5964,-0.5237,-0.4434,-0.4683,-0.4193,0.0,-0.3672,-0.4432,-0.5491,-0.6627,-0.6758,-0.6308,-0.5448,-0.5293,-0.5268,-0.4607,-0.4355,-0.4133,-0.3975,-0.3703,-0.374,-0.4309,-0.4457,-0.4823,-0.5626,-0.5502,-0.5353,-0.5284,-0.519,-0.51,-0.501,-0.5426,-0.5761,-0.5942,-0.6237,-0.6736,-0.7135,-0.7471,-0.7814,-0.8341,-0.9144,-0.9732,-0.9852,-1.0625,-1.1093,-1.1244,-1.1552,-1.1791,-1.1782,-1.1487,-1.1035,-1.0694,-1.0782,-1.0658,-1.031,-1.0609,-1.0812,-1.0968,-1.1111,-1.126,-1.1409,0.0,0.0,0.0,0.0,0.0,0.0,0.0,0.0,0.0,0.0,0.0,0.0,0.0,0.0,0.0,0.0,0.0,0.0,0.0,0.0,0.0,-0.27,-0.3193,-0.357,-0.368,-0.3865,-0.4028,-0.4167,-0.4688,0.0,0.0,0.0,-0.5246,-0.4945,-0.5186,-0.5319,-0.5342,-0.5258,-0.5381,-0.555,-0.5556,-0.5718,-0.5957,-0.6257,-0.6331,-0.6344,-0.6396,0.0,0.0,0.0,0.0,0.0,0.0,0.0,-0.5918,-0.5888,-0.5257,-0.4555,-0.4602,-0.4153,0.0,-0.3523,0.0,-0.5705,-0.645,-0.6496,-0.6295,-0.5767,-0.5358,-0.5038,-0.4639,-0.4414,-0.412,-0.3871,-0.3694,-0.3726,-0.4309,-0.4457,-0.4704,-0.5262,-0.523,-0.5076,-0.4924,-0.4699,-0.4713,-0.4771,-0.509,-0.5436,-0.5737,-0.6037,-0.6464,-0.7137,-0.7406,-0.7782,-0.8364,-0.9224,-0.967,-0.9877,-1.0599,-1.0998,-1.1172,-1.1385,-1.1338,-1.1042,-1.1035,-1.0785,-1.0329,-1.0531,-1.041,-1.031,-1.0609,-1.0853,-1.1063,-1.1138,-1.1307,-1.1511,0.0,0.0,0.0,0.0,0.0,0.0,0.0,0.0,0.0,0.0,0.0,0.0,0.0,0.0,0.0,0.0,0.0,0.0,0.0,0.0,0.0,-0.2768,-0.3402,-0.3761,-0.3823,-0.4028,-0.4161,-0.4367,0.0,0.0,0.0,0.0,0.0,-0.5083,-0.5165,-0.5342,-0.5629,-0.5466,-0.5599,-0.5938,-0.5712,-0.5964,-0.6308,-0.643,-0.6485,-0.6546,-0.6655,-0.6662,-0.6681,-0.6806,0.0,0.0,0.0,0.0,-0.6186,-0.5907,-0.54,-0.4789,-0.4597,-0.4238,-0.3887,-0.3874,-0.4684,0.0,-0.5526,-0.6022,-0.6569,-0.6546,-0.5936,-0.5252,-0.4977,-0.4605,-0.4156,-0.3889,-0.37,-0.3731,-0.4342,-0.447,-0.4592,-0.4815,-0.4856,-0.4691,-0.4354,-0.4334,-0.435,-0.4442,-0.4677,-0.5035,-0.5536,-0.5842,-0.6295,-0.693,-0.734,-0.7865,-0.8521,-0.9219,-0.973,-1.0062,-1.0586,-1.0907,-1.1109,-1.1487,-1.1216,-1.055,-1.0793,-1.0565,-1.0127,-1.0287,-1.0424,-1.0472,-1.0643,-1.0907,-1.1131,-1.1185,-1.1362,-1.1586,0.0,0.0,0.0,0.0,0.0,0.0,0.0,0.0,0.0,0.0,-0.2867,-0.2802,0.0,0.0,0.0,0.0,0.0,0.0,0.0,0.0,0.0,-0.3132,-0.3518,-0.3746,-0.3818,-0.4289,-0.4561,-0.4561,0.0,0.0,0.0,0.0,0.0,-0.5155,0.0,0.0,-0.59,-0.5653,-0.5848,-0.6261,-0.5944,-0.6094,-0.6444,-0.6464,-0.6552,-0.6695,-0.678,-0.684,-0.6847,-0.6867,-0.6954,0.0,0.0,0.0,-0.6599,-0.5796,-0.5577,-0.5479,-0.5046,0.0,-0.4041,0.0,-0.4369,-0.4777,-0.535,-0.5817,-0.6144,-0.6256,-0.6127,-0.5798,-0.4972,-0.4417,-0.406,-0.3757,-0.3642,-0.3608,-0.3947,-0.4329,-0.448,-0.4592,-0.4746,-0.4561,-0.4066,-0.4302,-0.4431,-0.4055,-0.4742,-0.524,-0.5536,-0.5842,-0.6295,-0.693,-0.734,-0.7564,-0.7704,-0.8687,-0.9183,-0.918,-1.0374,-1.0924,-1.0763,-1.1036,-1.1336,-1.1534,-1.1398,-1.1233,-1.1271,-1.084,-1.0863,-1.0883,-1.0932,-1.0941,-1.1009,-1.1267,-1.1389,-1.1443,0.0,0.0,0.0,0.0,0.0,0.0,0.0,0.0,0.0,0.0,0.0,-0.297,0.0,0.0,0.0,-0.3137,-0.3077,-0.3016,-0.3077,-0.3354,0.0,0.0,-0.3655,-0.3956,-0.3996,-0.4389,-0.4628,0.0,0.0,0.0,0.0,-0.5186,-0.5347,0.0,0.0,0.0,0.0,-0.5724,-0.5995,-0.6691,-0.6218,-0.6337,-0.6805,-0.681,-0.6723,-0.6742,-0.6711,-0.6806,0.0,0.0,-0.689,-0.7041,-0.6449,0.0,0.0,0.0,-0.5497,-0.5463,-0.491,-0.4528,-0.4388,-0.4264,-0.4575,-0.5079,-0.587,-0.6266,-0.654,-0.6743,-0.6518,-0.5992,-0.4943,-0.4402,-0.3953,-0.3575,-0.3549,-0.3619,-0.4205,-0.4349,-0.4463,-0.4426,-0.4463,-0.4279,-0.3575,-0.3718,-0.3869,-0.4034,-0.4336,-0.4738,-0.534,-0.5694,-0.6082,-0.661,-0.7311,-0.7706,-0.7779,-0.8771,-0.9501,-0.9851,-1.0498,-1.0978,-1.1145,-1.1106,-1.1121,-1.1285,-1.1035,-1.1126,-1.1301,-1.0973,-1.0877,-1.1034,-1.0871,-1.0921,-1.1084,-1.1212,-1.1369,-1.1538,0.0,0.0,0.0,0.0,0.0,0.0,0.0,0.0,0.0,0.0,0.0,0.0,0.0,0.0,0.0,0.0,-0.3355,-0.3244,-0.3244,-0.3545,0.0,0.0,0.0,-0.4088,-0.4115,-0.4432,-0.4694,0.0,0.0,0.0,-0.5139,-0.5454,-0.5583,0.0,-0.5184,0.0,0.0,0.0,0.0,-0.7185,-0.6204,-0.6374,-0.7097,-0.6706,-0.659,-0.661,-0.6466,0.0,0.0,0.0,0.0,0.0,0.0,-0.6404,0.0,0.0,0.0,-0.5201,-0.4656,-0.4483,-0.4469,-0.4274,-0.4661,-0.5239,-0.6057,-0.6422,-0.667,-0.6942,-0.6637,-0.6037,-0.5035,-0.4402,-0.3956,-0.3487,-0.3439,-0.3708,-0.4195,-0.4422,-0.4405,-0.4351,-0.4279,-0.3998,-0.3428,-0.3369,-0.3531,-0.3934,-0.4034,-0.4437,-0.514,-0.5537,-0.5945,-0.6368,-0.7344,-0.7907,-0.8042,-0.8967,-0.972,-1.0288,-1.0609,-1.0895,-1.1264,-1.1066,-1.092,-1.0906,-1.0906,-1.1034,-1.1238,-1.0987,-1.0899,-1.1091,-1.0891,-1.0948,-1.1124,-1.124,-1.1396,-1.1586,0.0,0.0,0.0,0.0,0.0,0.0,0.0,0.0,0.0,0.0,0.0,0.0,0.0,-0.3471,-0.3638,-0.3744,-0.3633,-0.3583,-0.3583,-0.3588,-0.3586,-0.3465,0.0,0.0,-0.4115,-0.4563,0.0,0.0,0.0,0.0,-0.5289,-0.5773,-0.6099,-0.6358,-0.5705,-0.604,-0.6972,0.0,0.0,-0.7537,-0.586,-0.5976,-0.7097,-0.588,0.0,-0.6358,0.0,0.0,0.0,0.0,0.0,0.0,0.0,0.0,0.0,0.0,0.0,0.0,-0.4447,-0.425,-0.4021,-0.4182,-0.4182,-0.434,-0.5441,-0.5717,-0.5965,-0.6358,-0.6242,-0.5741,-0.4935,-0.4402,-0.3943,-0.3428,-0.3376,-0.3524,-0.3843,-0.4056,-0.4269,-0.4266,-0.4201,-0.4047,-0.373,-0.357,-0.3736,-0.3934,-0.4236,-0.4638,-0.514,-0.5537,-0.5945,-0.6368,-0.7344,-0.7907,-0.8042,-0.9069,-0.9596,-0.9603,-1.0616,-1.0783,-1.0562,-1.0711,-1.102,-1.1277,-1.1277,-1.1471,-1.1791,-1.1285,-1.1221,-1.1136,-1.1166,-1.1063,-1.1009,-1.1436,-1.1511,-1.1443,0.0,0.0,0.0,0.0,0.0,0.0,0.0,0.0,0.0,0.0,0.0,0.0,0.0,-0.3749,-0.3638,-0.3799,-0.3648,-0.3525,-0.341,-0.3475,-0.3475,-0.3455,0.0,0.0,0.0,0.0,0.0,0.0,0.0,-0.5545,-0.5603,-0.5885,-0.617,-0.6531,-0.578,-0.6095,-0.7066,-0.6051,0.0,0.0,-0.6574,-0.6631,-0.7368,0.0,0.0,0.0,0.0,0.0,0.0,0.0,0.0,0.0,0.0,0.0,0.0,0.0,0.0,-0.4236,-0.4218,-0.4304,-0.4377,-0.4219,-0.408,-0.4212,-0.4651,-0.4984,-0.5214,-0.5733,-0.5792,-0.5536,-0.4935,-0.4402,-0.394,-0.3425,-0.3373,-0.3518,-0.4047,-0.4259,-0.4348,-0.4404,-0.4268,-0.4126,-0.3875,-0.3546,-0.3416,-0.3768,-0.4007,-0.4214,-0.4457,-0.5252,-0.5807,-0.6162,-0.6986,-0.7773,-0.8263,-0.9057,-0.953,-0.976,-1.031,-1.0583,-1.0703,-1.0521,-1.0785,-1.1277,-1.0904,-1.1208,-1.1806,-1.1532,-1.1315,-1.1136,-1.1083,-1.105,-1.1118,-1.1094,-1.1213,-1.1579,0.0,0.0,0.0,0.0,0.0,-0.3777,0.0,0.0,0.0,0.0,0.0,0.0,0.0,0.0,-0.3711,-0.3693,-0.3571,-0.3461,-0.3342,-0.3348,-0.339,-0.339,-0.3736,0.0,0.0,0.0,0.0,0.0,0.0,0.0,0.0,-0.6073,-0.6374,-0.6641,-0.6121,-0.6442,0.0,0.0,0.0,-0.7687,0.0,-0.6636,-0.7177,0.0,0.0,0.0,0.0,0.0,0.0,0.0,0.0,0.0,0.0,0.0,0.0,0.0,0.0,0.0,-0.4104,0.0,-0.423,-0.3927,-0.3692,-0.3633,-0.4051,-0.4177,-0.4406,-0.5029,-0.5243,-0.5138,-0.4646,-0.4138,-0.3802,-0.3292,-0.3221,-0.3453,-0.408,-0.4184,-0.4271,-0.4526,-0.4314,-0.4089,-0.4038,-0.3531,-0.3313,-0.3669,-0.3907,-0.4011,-0.416,-0.5076,-0.5878,-0.6378,-0.7073,-0.782,-0.8484,-0.9118,-0.9497,-0.9729,-1.0158,-1.0308,-1.0429,-1.0308,-1.0579,-1.1004,-1.0681,-1.0936,-1.1561,-1.1463,-1.1236,-1.1003,-1.1077,-1.1077,-1.1185,-1.1114,-1.1279,-1.1438,0.0,-0.473,-0.4265,-0.3848,-0.3931,-0.4079,-0.4194,0.0,0.0,0.0,0.0,0.0,0.0,0.0,0.0,-0.3523,-0.357,-0.3569,-0.339,-0.3395,-0.3399,-0.3399,-0.3872,0.0,0.0,0.0,0.0,0.0,0.0,0.0,0.0,0.0,-0.6551,0.0,-0.6716,-0.7112,-0.7768,0.0,-0.7139,-0.7642,0.0,-0.5937,-0.6525,0.0,0.0,0.0,-0.5179,-0.4758,0.0,-0.5196,0.0,0.0,0.0,0.0,0.0,0.0,0.0,0.0,0.0,0.0,0.0,-0.3276,-0.2733,-0.2514,-0.3462,-0.3524,-0.3582,-0.4121,-0.4447,-0.4573,-0.4,-0.3733,-0.3528,-0.3226,-0.2927,-0.3128,-0.3934,-0.4034,-0.4135,-0.4336,-0.4135,-0.4034,-0.4034,-0.3531,-0.343,-0.393,-0.4031,-0.4135,-0.4336,-0.5114,-0.6051,-0.7149,-0.7715,-0.8159,-0.8491,-0.9118,-0.9388,-0.9395,-1.0039,-1.0065,-0.9822,-1.0186,-1.0393,-1.0557,-1.0713,-1.0919,-1.118,-1.1084,-1.085,-1.0758,-1.105,-1.1165,-1.1206,-1.1511,-1.1418,-1.1263,-0.5357,-0.4802,-0.4285,-0.3811,-0.3575,-0.3559,0.0,0.0,0.0,0.0,0.0,0.0,0.0,0.0,-0.3931,-0.3696,-0.368,-0.3619,-0.3439,-0.3443,-0.3414,-0.3283,-0.3638,-0.3916,0.0,0.0,0.0,0.0,0.0,0.0,0.0,0.0,0.0,0.0,-0.7075,-0.7492,-0.7934,-0.7224,0.0,0.0,-0.6954,-0.6754,0.0,0.0,0.0,0.0,0.0,-0.5997,-0.5588,0.0,-0.4893,-0.4354,0.0,0.0,0.0,0.0,0.0,0.0,-0.2944,0.0,0.0,0.0,0.0,0.0,-0.2281,-0.264,-0.3293,-0.4085,-0.4305,-0.4494,-0.4953,-0.4267,-0.3413,-0.2872,-0.3002,-0.333,-0.3934,-0.4135,-0.4336,-0.444,-0.4336,-0.4336,-0.4336,-0.3836,-0.3513,-0.3663,-0.3904,-0.3934,-0.393,-0.5177,-0.6132,-0.6492,-0.7354,-0.7963,-0.8307,-0.8923,-0.9301,-0.9551,-0.9854,-0.9943,-0.9822,-0.9943,-1.0148,-1.055,-1.0461,-1.0721,-1.1084,-1.1119,-1.101,-1.09,-1.109,-1.1233,-1.1348,-1.1259,-1.1128,-1.1263,-0.5536,-0.494,-0.4305,-0.399,-0.3633,-0.3515,0.0,0.0,0.0,0.0,0.0,0.0,0.0,0.0,0.0,-0.3877,-0.3737,-0.3605,-0.3479,-0.34,-0.3297,-0.3226,-0.356,-0.3847,0.0,0.0,0.0,0.0,0.0,0.0,0.0,0.0,0.0,0.0,-0.6907,0.0,0.0,0.0,0.0,0.0,-0.7081,0.0,0.0,-0.681,-0.6643,0.0,0.0,0.0,-0.6054,-0.5625,-0.4892,0.0,0.0,0.0,0.0,0.0,0.0,0.0,0.0,0.0,0.0,0.0,0.0,0.0,-0.153,-0.1852,-0.2361,-0.2965,-0.3325,-0.3599,-0.4043,-0.3587,-0.3068,-0.2749,-0.2676,-0.3017,-0.3914,-0.4236,-0.444,-0.444,-0.444,-0.444,-0.444,-0.3937,-0.362,-0.3775,-0.391,-0.4062,-0.4226,-0.5346,-0.6051,-0.627,-0.7161,-0.7789,-0.8256,-0.8864,-0.9242,-0.9612,-0.9754,-0.9822,-0.9822,-0.9822,-1.006,-1.0399,-1.0369,-1.0527,-1.0857,-1.0948,-1.0946,-1.0962,-1.1104,-1.1253,-1.1416,-1.1194,-1.1072,-1.1057,0.0,-0.5001,-0.4462,-0.4281,-0.3954,-0.3876,0.0,0.0,0.0,0.0,0.0,0.0,0.0,0.0,0.0,0.0,-0.384,-0.3565,-0.3565,-0.3364,-0.3226,-0.3226,-0.356,-0.3808,-0.3844,0.0,0.0,0.0,0.0,0.0,0.0,0.0,0.0,0.0,-0.6596,-0.7075,0.0,0.0,0.0,-0.7442,-0.6912,-0.6547,0.0,0.0,-0.6429,-0.6276,-0.6275,-0.6177,-0.5989,-0.5651,-0.4679,0.0,0.0,0.0,0.0,0.0,-0.1965,0.0,0.0,0.0,0.0,0.0,-0.0626,0.0,-0.1137,-0.1131,-0.1209,-0.1442,-0.1887,-0.2364,-0.242,-0.2514,-0.2497,-0.2408,-0.2142,-0.2484,-0.3768,-0.4104,-0.4307,-0.4437,-0.4329,-0.4329,-0.4437,-0.3937,-0.3739,-0.3944,-0.4062,-0.4332,-0.51,-0.5526,-0.5841,-0.6274,-0.6951,-0.7584,-0.8274,-0.8772,-0.9268,-0.9513,-0.9761,-0.9822,-0.9822,-0.9822,-0.9992,-1.0283,-1.0283,-1.0446,-1.0717,-1.0717,-1.0812,-1.0962,-1.1104,-1.1253,-1.1423,-1.1266,-1.1026,-1.0883,-0.5656,-0.5203,-0.4769,-0.4584,-0.414,0.0,0.0,0.0,0.0,0.0,0.0,0.0,0.0,0.0,0.0,0.0,-0.4411,-0.4228,-0.3761,-0.356,-0.3364,-0.3226,-0.3293,-0.3402,-0.363,-0.4057,0.0,0.0,0.0,0.0,0.0,0.0,0.0,0.0,-0.6919,-0.7409,0.0,0.0,0.0,-0.7684,-0.7445,0.0,-0.6622,-0.698,-0.6926,-0.6824,-0.6963,-0.6774,-0.6404,-0.526,-0.4157,-0.321,0.0,0.0,0.0,0.0,0.0,0.0,0.0,0.0,0.0,0.0,0.0,0.0,-0.0813,-0.0955,-0.1114,-0.1158,-0.1412,-0.2068,-0.3262,-0.2846,-0.2044,-0.1107,-0.1555,-0.2327,-0.3439,-0.3423,-0.3639,-0.4314,-0.4178,-0.4164,-0.4332,-0.4135,-0.3957,-0.4119,-0.4239,-0.4507,-0.5108,-0.5482,-0.5913,-0.6274,-0.6794,-0.7475,-0.8061,-0.8677,-0.9054,-0.9418,-0.9687,-0.9822,-0.9822,-0.9822,-0.9992,-1.0283,-1.0283,-1.0446,-1.0717,-1.0717,-1.0812,-1.0962,-1.1104,-1.1253,-1.1409,-1.1162,-1.0951,-1.0715,-0.555,-0.5069,-0.4643,-0.4408,0.0,0.0,0.0,0.0,0.0,0.0,0.0,0.0,0.0,0.0,0.0,0.0,0.0,0.0,0.0,0.0,-0.3197,-0.3225,-0.3453,-0.3635,-0.3781,-0.4075,-0.423,0.0,0.0,0.0,0.0,0.0,0.0,0.0,0.0,0.0,0.0,0.0,-0.7182,-0.703,-0.7069,0.0,-0.7067,-0.7277,-0.7208,-0.713,-0.7199,-0.6932,-0.6352,-0.5277,-0.4208,0.0,0.0,-0.1728,-0.1141,0.0,-0.0684,-0.0687,0.0,0.0,0.0,-0.0619,0.0,0.0,0.0,-0.0433,-0.0648,-0.1033,-0.1039,-0.1122,-0.1842,-0.1713,-0.1261,-0.0717,-0.1119,-0.1719,-0.2274,-0.3018,-0.3725,-0.451,-0.4226,-0.4103,-0.4526,-0.4065,-0.3884,-0.4033,-0.4252,-0.4532,-0.4959,-0.5414,-0.5734,-0.6125,-0.6614,-0.7189,-0.7836,-0.8389,-0.8854,-0.9098,-0.9457,-0.9579,-0.9579,-0.9781,-1.0059,-1.0283,-1.0351,-1.0514,-1.0717,-1.0717,-1.0812,-1.0962,-1.1104,-1.1114,-1.1133,-1.0919,-1.0688,-1.0421,-0.5495,-0.5045,-0.4664,-0.4358,0.0,0.0,0.0,0.0,0.0,0.0,0.0,0.0,0.0,0.0,0.0,0.0,0.0,0.0,0.0,0.0,0.0,-0.3257,-0.3514,-0.375,-0.3776,-0.4006,-0.4132,0.0,0.0,0.0,0.0,0.0,0.0,0.0,0.0,0.0,0.0,0.0,0.0,-0.6669,0.0,-0.6954,-0.7235,-0.7283,-0.7191,-0.7107,-0.7194,-0.6826,-0.613,-0.5384,-0.4362,-0.326,-0.2445,-0.1741,0.0,0.0,0.0,0.0,0.0,0.0,0.0,0.0,0.0,-0.0075,0.0,0.0,0.0,-0.0694,-0.0624,-0.0417,-0.0143,-0.0216,-0.0362,-0.052,-0.088,-0.1116,-0.1366,-0.2621,-0.3731,-0.4369,-0.3971,-0.3852,-0.4395,-0.3854,-0.36,-0.3987,-0.4201,-0.4386,-0.4647,-0.5202,-0.5535,-0.5965,-0.6411,-0.6867,-0.7568,-0.8181,-0.8488,-0.8854,-0.9098,-0.9335,-0.9342,-0.9731,-1.0134,-1.029,-1.0432,-1.0595,-1.0765,-1.0731,-1.0826,-1.1002,-1.1118,-1.0975,-1.0715,-1.0674,-1.0429,-1.0127,-0.5745,-0.5707,-0.5471,-0.4863,0.0,0.0,0.0,0.0,0.0,0.0,0.0,0.0,0.0,0.0,0.0,0.0,0.0,0.0,-0.4283,0.0,0.0,-0.35,-0.3198,-0.3161,-0.3328,-0.3555,-0.3747,-0.3843,0.0,0.0,0.0,0.0,0.0,0.0,-0.6336,0.0,0.0,0.0,-0.6975,0.0,-0.7329,-0.6935,0.0,-0.6761,-0.6776,-0.679,-0.7143,-0.6599,-0.5793,0.0,-0.4047,-0.2947,0.0,-0.2127,-0.1837,-0.1514,0.0,0.0,0.0,0.0,0.0,0.0,-0.0379,0.0,0.0,0.0,0.0066,0.027,0.0,-0.0789,-0.0135,0.0,0.0,-0.0352,-0.0564,-0.0948,-0.1844,-0.218,-0.2532,-0.3159,-0.2857,-0.2698,-0.3169,-0.3239,-0.337,-0.3647,-0.404,-0.4235,-0.4386,-0.5025,-0.5535,-0.5965,-0.6411,-0.6867,-0.7215,-0.806,-0.8372,-0.8494,-0.8976,-0.9335,-0.9342,-0.9731,-1.0134,-1.029,-1.0432,-1.0656,-1.0914,-1.0778,-1.0887,-1.1138,-1.1158,-1.0975,-1.0844,-1.0568,-1.0346,-1.0116,-0.5407,-0.5329,-0.518,-0.4834,0.0,0.0,0.0,0.0,0.0,0.0,0.0,0.0,0.0,0.0,0.0,0.0,0.0,-0.4335,0.0,0.0,0.0,0.0,0.0,0.0,-0.3378,-0.3834,-0.4033,-0.3999,-0.4155,0.0,0.0,0.0,0.0,0.0,-0.586,0.0,-0.6016,0.0,-0.6305,0.0,0.0,0.0,0.0,-0.6895,-0.6922,-0.6715,-0.7043,-0.6821,-0.6246,0.0,-0.4536,0.0,0.0,0.0,0.0,0.0,0.0,0.0,0.0,0.0,0.0,0.0,0.0,0.0,0.0512,0.0,0.0598,0.0,0.0,0.0,0.0,0.0,0.0,0.0,-0.0554,-0.0979,-0.1482,-0.1537,-0.196,-0.3043,-0.2709,-0.2419,-0.2665,-0.2928,-0.3251,-0.3317,-0.3136,-0.3436,-0.4556,-0.4751,-0.5162,-0.5697,-0.6382,-0.6846,-0.7074,-0.7728,-0.8122,-0.8122,-0.8559,-0.8964,-0.9218,-0.969,-1.0088,-1.0419,-1.0656,-1.0778,-1.0819,-1.0846,-1.0975,-1.1165,-1.0889,-1.0696,-1.0426,-1.0354,-1.011,-0.9977,-0.5077,0.0,0.0,0.0,0.0,0.0,0.0,0.0,0.0,0.0,0.0,0.0,-0.4035,-0.4676,0.0,0.0,0.0,-0.4379,0.0,0.0,-0.312,0.0,0.0,0.0,0.0,0.0,-0.4086,-0.4036,0.0,0.0,0.0,0.0,0.0,0.0,0.0,-0.5583,-0.5743,0.0,-0.596,-0.5744,-0.6543,-0.6559,-0.6107,-0.6936,-0.7067,-0.6901,-0.7143,-0.7006,-0.6623,-0.5909,-0.4897,0.0,-0.3332,0.0,0.0,0.0,0.0,0.0,-0.0523,0.0,0.0,0.0,0.0,0.0,0.0,0.0,0.0,0.0,0.0,0.0,0.0,0.0,0.0,0.0,0.0,-0.068,-0.0768,-0.0959,-0.1488,-0.265,-0.2363,-0.2109,-0.2187,-0.2467,-0.266,-0.2744,-0.2054,-0.2314,-0.3742,-0.4252,-0.4786,-0.533,-0.63,-0.6793,-0.6898,-0.7505,-0.7872,-0.7872,-0.8364,-0.867,-0.9056,-0.9716,-1.0254,-1.0568,-1.0833,-1.0907,-1.0853,-1.0826,-1.0953,-1.1226,-1.067,-1.0358,-1.0251,-1.0152,-1.0008,-0.9833,-0.4934,-0.5274,0.0,0.0,0.0,0.0,0.0,0.0,0.0,0.0,0.0,0.0,0.0,0.0,0.0,0.0,0.0,-0.4444,-0.4098,0.0,-0.3446,0.0,0.0,-0.2798,0.0,0.0,-0.3644,-0.3811,0.0,0.0,0.0,0.0,0.0,0.0,0.0,-0.5775,-0.6478,-0.6117,-0.6575,-0.7464,-0.7373,-0.7094,-0.6562,0.0,-0.6874,-0.7236,-0.7227,0.0,0.0,-0.5647,-0.4859,0.0,0.0,0.0,0.0,0.0,0.0,0.0,0.0,0.0,0.0,0.0,0.0,0.0,0.0,0.0,0.1173,0.0,0.0,0.0,0.0,0.0,0.0,0.0,0.0,0.0,0.0,-0.0617,-0.1149,-0.1356,-0.149,-0.158,-0.1694,-0.1466,-0.1427,-0.1698,-0.1098,-0.0934,-0.1525,-0.3436,-0.4622,-0.4711,-0.6111,-0.6793,-0.6898,-0.7505,-0.7872,-0.7872,-0.8364,-0.8676,-0.9068,-0.9716,-1.0313,-1.0724,-1.088,-1.1023,-1.1151,-1.0737,-1.0968,-1.1241,-1.0536,-1.0413,-1.0498,-1.0216,-1.0156,-1.0133,-0.4789,0.0,0.0,0.0,0.0,0.0,0.0,-0.462,0.0,0.0,0.0,0.0,0.0,-0.3874,-0.4145,0.0,0.0,-0.4523,-0.3833,-0.3723,0.0,0.0,0.0,-0.258,0.0,0.0,-0.3699,-0.4343,0.0,0.0,0.0,0.0,0.0,0.0,0.0,-0.5532,0.0,0.0,0.0,0.0,0.0,-0.6879,-0.6654,0.0,-0.6686,-0.6438,-0.6609,-0.6758,0.0,-0.6018,-0.5218,-0.432,-0.3846,-0.3038,-0.2249,-0.2294,-0.1661,-0.0861,0.0,0.0,0.0181,0.0891,0.0,0.0,0.0,0.0,0.0,0.0,0.0,0.0,0.0,0.0,0.0,0.0,0.0,0.0,0.0,-0.0411,-0.0818,-0.1132,-0.1081,-0.1178,-0.1511,-0.0858,-0.0722,-0.1398,-0.0938,-0.0884,-0.137,-0.258,-0.3931,-0.5373,-0.5813,-0.6363,-0.6898,-0.7505,-0.7872,-0.7872,-0.8116,-0.8597,-0.9191,-0.9503,-1.0109,-1.0873,-1.0928,-1.1029,-1.1165,-1.075,-1.0975,-1.1261,-1.0352,-1.0498,-1.1257,-1.0464,-1.0127,-0.9949,-0.4833,0.0,0.0,0.0,0.0,0.0,0.0,0.0,0.0,0.0,-0.3575,0.0,-0.3344,0.0,-0.3887,0.0,-0.4436,-0.4215,-0.3456,-0.3442,0.0,-0.202,-0.2288,0.0,0.0,-0.3175,-0.3849,-0.4635,0.0,-0.4218,0.0,0.0,0.0,0.0,0.0,-0.5349,-0.6016,-0.6174,-0.6519,0.0,0.0,-0.6888,0.0,0.0,-0.6613,-0.6221,0.0,-0.665,-0.6478,-0.6192,-0.5409,-0.4539,-0.4407,-0.3382,-0.2273,-0.2435,-0.1702,-0.069,-0.0191,0.0282,0.0,0.1355,0.1479,0.0,0.1541,0.0,0.162,0.0,0.0,0.0,0.0,0.0,0.0,0.0,0.0,0.0,0.0,-0.0069,-0.0415,-0.1002,-0.0869,-0.0734,-0.0822,-0.0308,-0.0158,-0.0557,-0.0495,-0.077,-0.1329,-0.2135,-0.3236,-0.4947,-0.5779,-0.6363,-0.6898,-0.7505,-0.7872,-0.7872,-0.8165,-0.8661,-0.9258,-0.9571,-1.018,-1.0955,-1.0866,-1.094,-1.1172,-1.0575,-1.0645,-1.1127,-1.0167,-1.0462,-1.1193,-1.0283,-0.9954,-0.9921,-0.5041,-0.4817,0.0,0.0,-0.4117,0.0,0.0,0.0,-0.3291,0.0,-0.2658,-0.2776,-0.304,-0.3102,-0.345,-0.4166,-0.4044,-0.3688,-0.31,-0.3197,0.0,0.0,-0.2369,-0.2773,-0.256,-0.3186,-0.3865,0.0,0.0,0.0,0.0,0.0,0.0,0.0,-0.4928,0.0,-0.61,-0.6147,-0.6589,-0.7163,-0.7315,-0.7117,-0.6893,-0.6898,-0.6766,-0.6473,-0.6995,-0.6795,-0.6308,-0.6066,-0.5422,-0.4665,-0.4275,-0.342,-0.2478,-0.2433,-0.1615,-0.0704,-0.0197,0.0677,0.1417,0.1361,0.1395,0.0,0.0,0.0,0.1723,0.0,0.0,0.0,0.0,0.0,0.0,0.0,0.0,0.0,0.0,0.0351,0.014,-0.0914,-0.0647,-0.0149,0.0312,0.0157,0.0238,0.0568,0.0249,-0.0424,-0.1302,-0.1941,-0.27,-0.3607,-0.5627,-0.663,-0.6747,-0.749,-0.7861,-0.7867,-0.8494,-0.9003,-0.927,-0.9926,-1.0398,-1.0833,-1.0685,-1.075,-1.1067,-1.0203,-1.0239,-1.0735,-1.028,-1.0168,-1.015,-0.996,-0.9921,-1.0036,-0.4935,-0.4434,-0.4056,0.0,-0.4068,-0.3859,0.0,0.0,0.0,0.0,-0.3198,-0.3396,-0.2819,-0.3181,-0.3531,-0.4009,-0.4137,0.0,0.0,0.0,0.0,-0.2059,-0.2384,-0.2583,-0.2605,-0.29,0.0,-0.4646,0.0,0.0,-0.4566,0.0,0.0,0.0,0.0,0.0,-0.61,-0.6443,-0.6889,-0.7194,-0.7361,-0.7238,-0.7127,0.0,-0.7227,-0.6771,-0.665,-0.6478,-0.6371,-0.5941,-0.5156,-0.4351,-0.4275,-0.3494,-0.264,-0.2425,-0.1918,-0.1204,-0.0291,0.067,0.1423,0.1385,0.1351,0.1425,0.0,0.0,0.0,0.0,0.0,0.0,0.0,0.0,0.0,0.0,0.0,0.0,0.0,0.0,0.0,-0.0222,0.0075,0.0075,-0.0611,0.0306,0.0772,0.0158,0.0,-0.0166,-0.034,-0.1173,-0.2208,-0.3474,-0.4027,-0.4625,-0.5283,-0.6537,-0.7135,-0.7135,-0.8324,-0.905,-0.9404,-0.9869,-1.0225,-1.0692,-1.049,-1.0499,-1.0637,-1.0042,-1.012,-1.0572,-1.0008,-0.9899,-1.0087,-0.996,-0.9992,-1.0036,-0.4819,-0.4389,0.0,-0.4239,0.0,0.0,-0.4011,0.0,0.0,-0.2455,-0.2939,0.0,-0.2773,-0.3019,-0.3357,-0.3924,-0.3749,0.0,-0.3278,0.0,0.0,-0.2009,-0.2447,-0.266,-0.2709,-0.3009,0.0,-0.4571,0.0,0.0,-0.4208,0.0,0.0,0.0,0.0,-0.4762,-0.4966,-0.6002,-0.6679,-0.7145,-0.7502,-0.7509,0.0,-0.7747,-0.7541,-0.7227,-0.6922,-0.6543,-0.6236,-0.5908,-0.511,-0.4198,-0.4123,-0.3459,-0.2523,-0.1816,-0.1615,-0.1405,-0.0292,0.0579,0.1153,0.1414,0.1487,0.1487,0.1631,0.1739,0.1831,0.0,0.2045,0.2257,0.0,0.0,0.0,0.0,0.0,0.0,0.0,0.0,0.0,0.0,0.053,0.0684,0.0,0.0616,0.0928,0.0628,0.0161,-0.0082,-0.0084,-0.0531,-0.1316,-0.2618,-0.3569,-0.4505,-0.5315,-0.6497,-0.7261,-0.7439,-0.8441,-0.8998,-0.9199,-0.9845,-1.0155,-1.0241,-1.0153,-1.0168,-1.037,-0.9787,-0.9896,-1.0387,-0.9977,-0.9856,-1.0025,-1.0079,-1.0101,-1.0117,-0.4583,0.0,0.0,0.0,0.0,0.0,0.0,-0.3318,0.0,-0.2288,0.0,-0.2611,-0.275,-0.2764,-0.3088,-0.3942,0.0,-0.2897,-0.2953,-0.2504,-0.2098,-0.1832,-0.2627,-0.2971,-0.2821,-0.3372,-0.3868,0.0,0.0,0.0,0.0,0.0,0.0,0.0,0.0,0.0,0.0,-0.5185,-0.6251,-0.7044,-0.7509,-0.7785,-0.7872,-0.7872,-0.779,-0.7649,-0.7437,-0.6766,-0.6117,-0.5874,-0.5081,-0.4147,-0.4062,-0.343,-0.2521,-0.121,-0.1009,-0.1006,-0.0,0.0491,0.088,0.1438,0.1525,0.1629,0.1852,0.1961,0.1965,0.1965,0.2093,0.221,0.2077,0.0,0.0,0.0,0.0,0.0,0.0,0.0,0.0,0.0,0.0,0.0,0.1261,0.102,0.1018,0.1257,0.0561,0.0082,-0.0084,-0.0,-0.0568,-0.1711,-0.3656,-0.5123,-0.5737,-0.6808,-0.7602,-0.7959,-0.8643,-0.8853,-0.8996,-0.9906,-1.0166,-0.9781,-0.9742,-0.9847,-1.0013,-0.9551,-0.9529,-0.9974,-0.9904,-0.9911,-1.0036,-1.0161,-1.0215,-1.0242,-0.3912,0.0,0.0,0.0,0.0,-0.3506,-0.3678,-0.2979,-0.2381,-0.2549,-0.2824,-0.2948,-0.2795,-0.3128,-0.3558,-0.3779,-0.3503,0.0,0.0,0.0,0.0,-0.2137,-0.2719,-0.3083,-0.3173,-0.3754,-0.4164,0.0,0.0,0.0,0.0,0.0,0.0,0.0,0.0,0.0,-0.5231,-0.5796,0.0,-0.7391,-0.7747,-0.785,-0.7872,-0.7872,-0.7736,-0.7546,-0.7502,-0.6934,-0.6308,-0.5922,-0.5126,-0.4323,-0.4282,-0.3732,-0.303,-0.2831,-0.0909,0.1107,0.1284,0.108,0.088,0.1438,0.1718,0.1815,0.1628,0.1845,0.1965,0.167,0.1695,0.1817,0.2012,0.0,0.0,0.0,0.0,0.0,0.0,0.0,0.0,0.0,0.0,0.126,0.1299,0.1249,0.123,0.1334,0.1184,0.0725,0.0,-0.0,-0.0828,-0.2718,-0.326,-0.3856,-0.4627,-0.5758,-0.6558,-0.6962,-0.8244,-0.8979,-0.925,-0.9811,-0.9944,-0.9771,-0.9677,-0.9615,-0.9419,-0.9296,-0.9438,-0.9799,-0.9786,-0.9911,-1.0036,-1.0161,-1.0269,-1.0373,0.0,0.0,0.0,0.0,0.0,0.0,0.0,-0.2926,-0.241,-0.2264,-0.2668,-0.291,-0.2844,-0.3078,-0.3406,-0.396,-0.3467,-0.3084,-0.3148,-0.2565,-0.2254,-0.2096,-0.2598,0.0,-0.3374,-0.3946,-0.4221,-0.4367,0.0,0.0,0.0,0.0,0.0,-0.1763,0.0,-0.4106,0.0,0.0,0.0,-0.7301,-0.7533,-0.775,-0.7861,-0.768,-0.7552,-0.7513,-0.7217,-0.6779,-0.6308,-0.6051,-0.5185,-0.4295,-0.4321,-0.3456,-0.2322,-0.2324,-0.0505,0.1614,0.1599,0.1396,0.1293,0.1577,0.177,0.1868,0.1573,0.1782,0.1894,0.1695,0.1607,0.1718,0.192,0.2271,0.0,0.0,0.0,0.0,0.0,0.0,0.0,0.0,0.0,0.0,0.0,0.1286,0.1265,0.128,0.128,0.0981,0.0342,0.0087,-0.0543,-0.1858,-0.2976,-0.3769,-0.4076,-0.5395,-0.6392,-0.7093,-0.7853,-0.8586,-0.9142,-0.9399,-0.9496,-0.9422,-0.9478,-0.9396,-0.9313,-0.9443,-0.9563,-0.9688,-0.9862,-1.0008,-1.0128,-1.0253,-1.0373,-1.0481,0.0,-0.3918,0.0,0.0,-0.4126,0.0,-0.3459,-0.2837,-0.218,-0.1733,-0.2179,-0.2665,-0.2774,-0.2907,-0.3252,-0.3911,-0.3194,-0.2819,-0.2892,-0.2339,-0.1896,-0.2041,-0.2471,-0.3076,-0.3681,-0.416,-0.4315,0.0,0.0,0.0,0.0,0.0,0.0,0.0,0.0,0.0,0.0,0.0,-0.6603,-0.7133,-0.7311,-0.7505,-0.7734,-0.7376,-0.7267,-0.7386,-0.7039,-0.6586,-0.6144,-0.6041,-0.5243,-0.4275,-0.4364,-0.3071,-0.1513,-0.1313,-0.0101,0.1314,0.1516,0.1617,0.1617,0.1617,0.1819,0.2021,0.1718,0.1819,0.2023,0.1727,0.163,0.1636,0.1942,0.2221,0.0,0.0,0.0,0.0,0.0,0.0,0.0,0.0,0.0,0.0,0.1396,0.1362,0.1337,0.1331,0.1313,0.1163,0.0782,0.0263,-0.0273,-0.078,-0.2568,-0.358,-0.3905,-0.4981,-0.6122,-0.7008,-0.7442,-0.8009,-0.8573,-0.8823,-0.8881,-0.8892,-0.912,-0.9173,-0.9356,-0.9552,-0.9661,-0.9726,-0.9911,-1.0074,-1.0221,-1.034,-1.046,-1.0563,0.0,0.0,0.0,0.0,0.0,0.0,-0.381,-0.2193,-0.1023,-0.1054,-0.1665,-0.2173,-0.2457,-0.2831,-0.3058,-0.3011,-0.2887,-0.2749,-0.2355,-0.2119,-0.2005,-0.2245,-0.2626,-0.3247,-0.4225,-0.4635,-0.4747,0.0,0.0,-0.4205,0.0,0.0,0.0,0.0,0.0,0.0,0.0,-0.6331,-0.6689,-0.7357,-0.7378,-0.7388,-0.7373,-0.7261,-0.7143,-0.7148,-0.6924,-0.6473,-0.5806,-0.5709,-0.507,-0.4239,-0.407,-0.2971,-0.1412,-0.0404,-0.0,0.0404,0.1314,0.1617,0.1617,0.1617,0.2019,0.2221,0.1718,0.2019,0.223,0.1755,0.1678,0.1696,0.1696,0.1799,0.1871,0.0,0.0,0.0,0.0,0.0,0.2061,0.1827,0.0,0.0,0.1453,0.1405,0.1361,0.1336,0.1348,0.1329,0.1217,0.0451,-0.0288,-0.0946,-0.1531,-0.2661,-0.4114,-0.4649,-0.5159,-0.5633,-0.6569,-0.7123,-0.7549,-0.794,-0.8136,-0.828,-0.8579,-0.9076,-0.947,-0.9492,-0.9628,-0.9824,-0.9845,-0.9998,-1.0221,-1.034,-1.046,-1.059,0.0,0.0,0.0,0.0,0.0,0.0,0.0,-0.2457,-0.1504,-0.1858,-0.19,-0.2185,-0.271,-0.2714,-0.2932,-0.3572,-0.3022,-0.2641,-0.2754,-0.2255,-0.2044,-0.2006,-0.2656,-0.33,-0.4029,-0.4426,-0.4651,0.0,0.0,0.0,0.0,0.0,0.0,0.0,0.0,-0.5537,-0.6798,-0.6741,-0.6822,-0.7021,-0.6893,-0.6898,-0.7001,-0.6712,-0.6617,-0.6793,-0.6393,-0.6079,-0.5806,-0.549,-0.4859,-0.4249,-0.4177,-0.2664,-0.0706,0.0606,0.1011,0.1011,0.1516,0.1617,0.1617,0.1617,0.192,0.2021,0.1718,0.1934,0.2159,0.1763,0.1685,0.1704,0.1917,0.1811,0.1897,0.2347,0.0,0.0,0.0,0.0,0.0,0.1342,0.0,0.1454,0.0,0.1421,0.1483,0.1676,0.1495,0.1367,0.1392,0.0453,-0.0383,-0.103,-0.1835,-0.2633,-0.3434,-0.4026,-0.4699,-0.558,-0.581,-0.6357,-0.7221,-0.7408,-0.7747,-0.824,-0.8685,-0.8897,-0.9153,-0.9521,-0.9753,-0.9851,-0.9998,-1.0161,-1.0329,-1.0443,-1.0612,-1.0797,-0.3594,0.0,-0.3817,0.0,-0.3871,-0.3716,-0.3345,-0.2729,-0.2234,-0.2103,-0.1919,-0.2087,-0.2853,-0.2732,-0.2944,-0.3801,-0.3265,-0.2881,-0.2968,-0.2506,-0.2185,-0.2019,-0.2676,0.0,-0.3894,-0.4171,-0.4526,-0.4701,-0.4337,0.0,0.0,0.0,0.0,0.0,-0.5614,-0.6204,-0.7271,-0.6987,-0.6898,-0.6775,-0.6526,-0.6526,-0.6752,-0.6309,-0.6233,-0.6439,-0.6007,-0.5712,-0.5584,-0.5243,-0.4732,-0.4249,-0.4281,-0.256,-0.0202,0.1212,0.1617,0.1617,0.1617,0.1617,0.1617,0.1617,0.1819,0.192,0.1617,0.1843,0.208,0.1789,0.1711,0.1839,0.1948,0.1839,0.1937,0.2431,0.0,0.0,0.0,0.1995,0.0,0.0,0.1579,0.1779,0.162,0.1471,0.1547,0.1873,0.1693,0.1543,0.1433,0.0651,-0.0196,-0.0937,-0.1975,-0.2558,-0.2723,-0.3288,-0.4088,-0.4971,-0.5012,-0.5535,-0.641,-0.67,-0.7181,-0.786,-0.8455,-0.883,-0.897,-0.9503,-0.9856,-0.9911,-1.0123,-1.028,-1.0405,-1.0552,-1.0742,-1.0944,-0.3737,-0.3985,-0.3982,-0.358,-0.3822,-0.359,-0.2003,-0.2655,-0.2727,-0.0963,-0.0991,-0.1514,-0.265,-0.2902,-0.3115,-0.3263,-0.3618,-0.3472,-0.2708,-0.2747,-0.2652,0.0,0.0,-0.3284,-0.3774,-0.4249,-0.4404,-0.4337,0.0,0.0,-0.4599,0.0,-0.5703,-0.5764,-0.6094,-0.6673,-0.7383,-0.7021,-0.6653,-0.6403,-0.6403,-0.6403,-0.6381,-0.6191,-0.612,-0.6094,-0.5895,-0.5601,-0.5353,-0.5169,-0.4578,-0.3928,-0.4177,-0.256,-0.0202,0.1212,0.1617,0.1617,0.1617,0.1617,0.1617,0.1617,0.1819,0.192,0.1617,0.1843,0.2096,0.1844,0.1772,0.1794,0.1794,0.1794,0.1783,0.1863,0.0,0.0,0.0,0.2281,0.0,0.1554,0.1972,0.2104,0.1633,0.1589,0.1568,0.1915,0.2062,0.1886,0.1528,0.0988,0.0209,-0.0783,-0.1764,-0.2234,-0.2106,-0.2572,-0.3042,-0.3505,-0.4318,-0.4956,-0.525,-0.5977,-0.6455,-0.6529,-0.786,-0.8421,-0.8617,-0.9534,-0.9911,-1.003,-1.0155,-1.028,-1.0416,-1.065,-1.0813,-1.0954,-0.3644,-0.3734,-0.3731,-0.355,-0.3636,-0.3521,-0.3024,-0.2193,-0.1771,-0.2018,-0.1848,-0.2147,-0.3156,-0.2904,-0.2979,0.0,-0.3265,-0.2881,0.0,-0.2506,-0.2307,-0.2377,-0.28,-0.3316,-0.3888,-0.4052,-0.406,-0.4038,0.0,0.0,0.0,-0.5197,-0.568,-0.6098,-0.6315,-0.6494,-0.6771,-0.6648,-0.6407,-0.6039,-0.6039,-0.6039,-0.6027,-0.5906,-0.5818,-0.5748,-0.5622,-0.5502,-0.5271,-0.5149,-0.4646,-0.3959,-0.2764,-0.1521,-0.0202,0.1212,0.1617,0.1617,0.1617,0.1617,0.1617,0.1617,0.1617,0.1724,0.1949,0.2106,0.2057,0.1883,0.1789,0.1795,0.1795,0.1795,0.1791,0.1782,0.1883,0.0,0.1863,0.0,0.1729,0.0984,0.1273,0.1263,0.0871,0.0866,0.0966,0.1173,0.1726,0.1896,0.1466,0.0919,0.0321,-0.0336,-0.1456,-0.2069,-0.217,-0.2647,-0.3126,-0.3886,-0.3921,-0.4374,-0.525,-0.544,-0.5796,-0.6319,-0.7582,-0.8139,-0.8411,-0.9496,-1.0036,-1.0155,-1.028,-1.0449,-1.0645,-1.0802,-1.0987,-1.1172,-0.3253,-0.3329,-0.3416,-0.3218,-0.3442,-0.3458,-0.2713,-0.1747,-0.131,-0.1559,-0.1856,-0.227,-0.3005,-0.2892,0.0,-0.4169,-0.3505,-0.3,-0.3093,-0.2626,-0.2312,-0.2401,-0.2825,-0.3218,-0.3669,-0.3712,0.0,-0.3946,-0.4094,-0.4198,-0.4498,-0.51,-0.5585,-0.6194,-0.6254,-0.628,-0.6403,-0.628,-0.6039,-0.5916,-0.5916,-0.5916,-0.5908,-0.5814,-0.5725,-0.5631,-0.5541,-0.5394,-0.5122,-0.503,-0.4523,-0.3824,-0.2638,-0.1515,-0.0404,0.1112,0.1617,0.1617,0.1617,0.1617,0.1617,0.1617,0.1625,0.1747,0.2106,0.2154,0.2198,0.2012,0.1908,0.1795,0.1795,0.1795,0.1795,0.1795,0.1795,0.1795,0.1795,0.0,0.1761,0.0,0.0,0.0864,0.0889,0.0676,0.0565,0.0783,0.1368,0.1579,0.1283,0.0984,0.0677,0.0235,-0.1016,-0.1884,-0.2233,-0.2423,-0.2891,-0.3644,-0.3663,-0.4258,-0.4997,-0.5203,-0.5422,-0.5797,-0.7064,-0.7598,-0.7681,-0.8816,-0.9661,-1.0062,-1.0222,-1.0404,-1.0759,-1.0927,-1.0934,-1.093,-0.2692,-0.295,-0.3117,0.0,-0.3291,-0.3218,-0.1492,-0.1538,-0.1454,-0.037,-0.125,-0.2132,-0.2471,-0.2749,-0.3362,-0.4114,0.0,0.0,-0.3192,-0.2874,-0.2674,-0.2589,-0.2876,-0.3235,-0.3389,-0.3484,-0.3635,-0.3833,-0.4255,-0.425,-0.3943,-0.493,-0.5544,-0.5916,-0.5916,-0.6039,-0.6403,-0.6039,-0.5916,-0.5916,-0.5916,-0.5916,-0.5908,-0.5823,-0.5729,-0.5631,-0.5434,-0.5286,-0.5122,-0.4817,-0.4309,-0.3721,-0.3248,-0.2221,-0.0909,0.1011,0.1516,0.1516,0.1617,0.1617,0.1617,0.1617,0.1744,0.1891,0.2171,0.2299,0.2201,0.2237,0.202,0.1795,0.1798,0.1798,0.1798,0.1801,0.18,0.1798,0.191,0.2215,0.2315,0.1682,0.1123,0.0905,0.138,0.0474,0.0121,0.0845,0.1088,0.1211,0.1211,0.1317,0.1213,0.0758,-0.0535,-0.1673,-0.229,-0.2319,-0.248,-0.292,-0.3844,-0.4463,-0.4763,-0.5124,-0.5185,-0.4937,-0.6169,-0.6833,-0.6919,-0.794,-0.8781,-0.9616,-0.982,-1.0309,-1.0791,-1.102,-1.083,-1.06,0.0,0.0,-0.2897,-0.3059,-0.3181,-0.3332,-0.3203,-0.2399,-0.1939,-0.197,-0.1982,-0.2107,-0.2469,-0.2599,-0.2968,-0.3684,-0.3436,-0.3185,-0.3052,-0.245,-0.2337,-0.2837,-0.2973,-0.3231,-0.3867,-0.3645,-0.3529,-0.3643,-0.3738,-0.3962,-0.4315,-0.481,-0.5179,-0.5544,-0.6035,-0.6158,-0.6039,-0.6158,-0.6162,-0.5916,-0.5916,-0.5916,-0.5916,-0.5647,-0.5542,-0.5526,-0.5035,-0.4885,-0.4792,-0.4496,-0.4103,-0.3511,-0.2638,-0.2118,-0.1614,0.0202,0.0909,0.1112,0.1516,0.1617,0.1617,0.1819,0.2277,0.2664,0.2504,0.2652,0.279,0.2242,0.2132,0.2027,0.1825,0.1829,0.1838,0.1861,0.1844,0.2058,0.2403,0.2254,0.1795,0.1141,0.1258,0.0805,-0.0819,-0.1193,-0.0483,0.1689,0.1974,0.2,0.2,0.1929,0.1689,0.077,-0.1085,-0.2111,-0.229,-0.2319,-0.2638,-0.3405,-0.4197,-0.4673,-0.4826,-0.4886,-0.4921,-0.494,-0.5913,-0.6602,-0.7152,-0.8282,-0.9186,-0.9825,-1.0209,-1.0742,-1.102,-1.1079,-1.0883,-1.0707,-0.2244,-0.2356,-0.2476,-0.2723,-0.2992,-0.3272,-0.345,-0.3017,-0.2688,-0.2835,-0.2346,-0.2105,-0.2491,-0.2477,-0.2598,-0.2991,-0.2973,-0.296,-0.296,-0.2484,-0.2494,-0.2993,-0.3013,-0.3286,-0.3819,-0.3695,-0.3558,-0.3534,-0.3631,-0.3849,-0.4195,-0.4687,-0.5056,-0.5176,-0.5916,-0.6039,-0.5671,-0.6039,-0.5916,-0.5425,-0.5794,-0.5671,-0.5425,-0.5421,-0.5441,-0.5412,-0.4826,-0.479,-0.4684,-0.4283,-0.3893,-0.3411,-0.2435,-0.212,-0.1817,-0.0404,0.0101,0.0404,0.1011,0.1213,0.1316,0.1939,0.2523,0.3029,0.2839,0.2992,0.3026,0.2468,0.2356,0.2143,0.1835,0.184,0.1846,0.1862,0.1724,0.1588,0.1801,0.1909,0.1806,0.1377,0.1994,0.1555,-0.0729,-0.0987,-0.0125,0.1993,0.2164,0.2197,0.2212,0.2142,0.162,0.0531,-0.1108,-0.1858,-0.1893,-0.236,-0.2978,-0.3598,-0.4252,-0.4733,-0.4888,-0.4948,-0.482,-0.4668,-0.5165,-0.5685,-0.6228,-0.7221,-0.8122,-0.9081,-0.9793,-1.032,-1.0751,-1.0756,-1.0554,-1.0387,-0.1795,-0.2024,-0.214,-0.2253,-0.2776,-0.319,-0.319,-0.327,-0.3209,-0.3209,-0.2474,-0.2115,-0.2388,-0.2367,-0.2486,-0.2513,-0.2734,-0.2964,-0.297,-0.2632,-0.265,-0.303,-0.3073,-0.3224,-0.3608,-0.3618,-0.3596,-0.3546,-0.3789,-0.4006,-0.3951,-0.4564,-0.4933,-0.4933,-0.5548,-0.5671,-0.5421,-0.5671,-0.5425,-0.4933,-0.5548,-0.5425,-0.4933,-0.5176,-0.52,-0.5061,-0.4708,-0.4562,-0.4575,-0.3962,-0.3581,-0.3104,-0.2536,-0.2221,-0.1819,-0.091,-0.0606,-0.0404,0.0505,0.0909,0.1218,0.2072,0.2664,0.3166,0.3181,0.3218,0.3138,0.2805,0.2474,0.2151,0.1842,0.1851,0.1855,0.1743,0.137,0.1122,0.1001,0.1456,0.1817,0.2089,0.2659,0.2245,0.0253,0.0,0.0517,0.195,0.2102,0.2264,0.2166,0.2198,0.1521,0.0277,-0.0707,-0.1159,-0.1485,-0.2564,-0.319,-0.3491,-0.3997,-0.4485,-0.4797,-0.4844,-0.4709,-0.4241,-0.4407,-0.4596,-0.5131,-0.5835,-0.6721,-0.7954,-0.9036,-0.97,-1.0229,-1.0239,-1.0204,-0.9857,-0.1795,-0.1816,-0.2063,-0.2633,-0.2821,-0.3003,-0.3365,-0.3171,-0.296,-0.2714,-0.2245,-0.2004,-0.2109,-0.2125,-0.2253,-0.2477,-0.2594,-0.2605,-0.2639,-0.2268,-0.2271,-0.2523,-0.2687,-0.2966,-0.3608,-0.3914,-0.3911,-0.3596,-0.3807,-0.4006,-0.3951,-0.4564,-0.4933,-0.4933,-0.5548,-0.5671,-0.5421,-0.5421,-0.5302,-0.4933,-0.5056,-0.4933,-0.4933,-0.4684,-0.4596,-0.4708,-0.4121,-0.3993,-0.4032,-0.3645,-0.3265,-0.2895,-0.2536,-0.2221,-0.192,-0.1516,-0.1112,-0.0606,0.0303,0.1313,0.2238,0.2737,0.3092,0.3345,0.355,0.3469,0.3365,0.2807,0.2612,0.2419,0.199,0.1899,0.1684,0.1219,0.1179,0.1271,0.1422,0.0349,0.0466,0.3043,0.1742,0.038,0.0,0.0,0.0391,0.1335,0.1876,0.2172,0.2229,0.226,0.185,0.0996,0.0143,-0.0869,-0.2229,-0.2433,-0.277,-0.3231,-0.3737,-0.3914,-0.3914,-0.4393,-0.4241,-0.3927,-0.4287,-0.4653,-0.5194,-0.607,-0.7132,-0.8211,-0.9063,-0.9531,-0.9884,-0.9884,-0.9674,-0.933,-0.1795,-0.182,-0.195,-0.2614,-0.2817,-0.3005,-0.3339,-0.3182,-0.2989,-0.2841,-0.2375,-0.2014,-0.2251,-0.2122,-0.2122,-0.2247,-0.2231,-0.2236,-0.227,-0.2288,-0.2426,-0.2554,-0.2592,-0.2871,-0.3651,-0.3806,-0.3924,-0.3868,-0.3939,-0.4006,-0.3951,-0.4441,-0.4687,-0.4933,-0.5179,-0.5302,-0.5176,-0.5133,-0.4774,-0.4438,-0.4767,-0.4655,-0.4318,-0.4438,-0.4355,-0.4353,-0.4004,-0.3902,-0.3865,-0.3552,-0.3075,-0.2724,-0.2443,-0.212,-0.1718,-0.1112,-0.0404,0.0303,0.0808,0.1729,0.2675,0.2928,0.3196,0.3471,0.3526,0.3453,0.326,0.2839,0.2633,0.2319,0.2021,0.1922,0.1815,0.1584,0.1545,0.1519,0.1645,0.0943,0.0476,0.0608,0.0253,0.0,0.0,0.0795,0.1209,0.1224,0.1919,0.2223,0.2267,0.2283,0.2161,0.1753,0.0588,-0.0596,-0.182,-0.2316,-0.2649,-0.3115,-0.3601,-0.3768,-0.3768,-0.4241,-0.4254,-0.3807,-0.3986,-0.436,-0.4926,-0.5443,-0.6321,-0.7394,-0.8399,-0.9022,-0.9366,-0.9366,-0.9324,-0.9335,-0.1691,-0.1829,-0.2072,-0.2604,-0.2819,-0.3013,-0.3203,-0.3062,-0.3001,-0.2843,-0.2257,-0.2149,-0.2388,-0.2126,-0.2,-0.2008,-0.1989,-0.1989,-0.2016,-0.2296,-0.2439,-0.2439,-0.2604,-0.3027,-0.3706,-0.3826,-0.3924,-0.4125,-0.4065,-0.4006,-0.3951,-0.4195,-0.4564,-0.481,-0.481,-0.481,-0.4807,-0.475,-0.4395,-0.3946,-0.4386,-0.4273,-0.3948,-0.4177,-0.4219,-0.4115,-0.3869,-0.3776,-0.3755,-0.3441,-0.2969,-0.241,-0.2343,-0.2019,-0.1415,-0.0707,0.0404,0.1415,0.1414,0.2149,0.2909,0.3025,0.3313,0.3499,0.3515,0.3342,0.3169,0.2868,0.2661,0.2345,0.2042,0.1937,0.1941,0.1941,0.1917,0.1656,0.1295,0.1318,0.0731,-0.1354,-0.0641,0.0132,0.0532,0.1493,0.193,0.1526,0.1962,0.2273,0.2309,0.2311,0.2338,0.2398,0.0908,-0.0306,-0.0925,-0.203,-0.2671,-0.2983,-0.3297,-0.3454,-0.3454,-0.4084,-0.411,-0.3678,-0.3848,-0.4221,-0.4631,-0.4809,-0.5507,-0.6727,-0.7585,-0.8191,-0.8684,-0.8878,-0.9009,-0.9186,-0.1716,-0.1862,-0.2106,-0.2645,-0.2866,-0.294,-0.2895,-0.2932,-0.2719,-0.21,-0.2026,-0.2039,-0.1986,-0.2026,-0.2037,-0.1984,-0.1978,-0.1989,-0.2016,-0.202,-0.2022,-0.2022,-0.2692,-0.3271,-0.3761,-0.398,-0.4185,-0.4125,-0.4065,-0.4006,-0.3951,-0.4195,-0.4438,-0.4438,-0.481,-0.4687,-0.4438,-0.4435,-0.4189,-0.3951,-0.3946,-0.3946,-0.3946,-0.3888,-0.3945,-0.376,-0.3706,-0.3461,-0.3102,-0.2988,-0.2609,-0.2029,-0.2023,-0.1819,-0.1415,-0.0707,0.0707,0.2122,0.2322,0.2557,0.3021,0.3284,0.3452,0.3512,0.3567,0.3627,0.3558,0.3217,0.2943,0.2765,0.2409,0.2198,0.1973,0.1973,0.1948,0.146,0.025,0.0497,0.0626,-0.013,-0.0,0.0666,0.2051,0.1647,0.1528,0.2137,0.2286,0.2312,0.2369,0.2372,0.2399,0.2461,0.077,-0.0,-0.0154,-0.1717,-0.2514,-0.2514,-0.2514,-0.2671,-0.2671,-0.3456,-0.3634,-0.3358,-0.404,-0.4576,-0.4799,-0.5187,-0.5714,-0.6227,-0.7141,-0.7567,-0.783,-0.8432,-0.8575,-0.8738,-0.172,-0.1865,-0.2116,-0.2686,-0.2768,-0.2823,-0.2899,-0.2833,-0.2628,-0.2128,-0.2023,-0.2029,-0.2005,-0.2007,-0.2001,-0.1978,-0.1977,-0.1981,-0.1992,-0.1993,-0.2144,-0.2331,-0.2947,-0.3484,-0.3715,-0.406,-0.4131,-0.4068,-0.4046,-0.4006,-0.3951,-0.4071,-0.4195,-0.4438,-0.4318,-0.4318,-0.4435,-0.4151,-0.4038,-0.3948,-0.391,-0.3894,-0.3891,-0.3869,-0.3798,-0.3709,-0.3687,-0.3474,-0.3029,-0.2995,-0.2621,-0.205,-0.2028,-0.1819,-0.1314,0.0303,0.1515,0.2328,0.2455,0.2684,0.303,0.3331,0.348,0.3523,0.3621,0.3319,0.3123,0.3303,0.2751,0.2305,0.2472,0.2244,0.2008,0.2027,0.1642,0.101,0.0128,0.0128,0.0259,0.0,0.0,0.0679,0.2198,0.2095,0.1983,0.2289,0.2324,0.2354,0.2378,0.2414,0.2446,0.2469,0.1399,0.0312,-0.078,-0.141,-0.2043,-0.2514,-0.2514,-0.2514,-0.2515,-0.3164,-0.3516,-0.3719,-0.3925,-0.4466,-0.5185,-0.5038,-0.5403,-0.6117,-0.6486,-0.7083,-0.772,-0.7929,-0.8401,-0.8746,-0.1731,-0.1989,-0.2242,-0.2609,-0.279,-0.2827,-0.2676,-0.2596,-0.2506,-0.2005,-0.2015,-0.2016,-0.1756,-0.1871,-0.1986,-0.1977,-0.1977,-0.1981,-0.1989,-0.2123,-0.2407,-0.2728,-0.319,-0.3575,-0.3794,-0.3871,-0.3949,-0.4036,-0.4016,-0.3989,-0.3951,-0.3951,-0.4074,-0.4195,-0.3951,-0.4071,-0.4192,-0.4027,-0.3913,-0.3948,-0.3905,-0.3877,-0.3858,-0.3839,-0.3768,-0.3673,-0.3522,-0.3226,-0.2923,-0.2764,-0.2402,-0.1951,-0.1928,-0.1516,-0.0808,0.0707,0.1622,0.2351,0.2498,0.2733,0.3077,0.3368,0.3526,0.3575,0.3659,0.3361,0.3173,0.3362,0.2784,0.2328,0.2512,0.2271,0.2029,0.2059,0.1683,0.1039,0.013,0.0,0.0,0.0,0.027,0.0822,0.1798,0.2111,0.2288,0.2316,0.2356,0.2387,0.2406,0.2455,0.2484,0.2484,0.2034,0.0785,-0.0942,-0.1414,-0.1886,-0.2514,-0.2514,-0.2519,-0.2529,-0.3025,-0.3385,-0.3764,-0.3958,-0.4496,-0.5216,-0.5066,-0.5266,-0.5989,-0.6203,-0.6621,-0.7237,-0.7615,-0.8083,-0.8418,-0.1756,-0.2122,-0.2489,-0.2528,-0.2934,-0.296,-0.2097,-0.2344,-0.2469,-0.21,-0.2001,-0.1756,-0.1114,-0.1626,-0.2007,-0.1979,-0.1977,-0.1989,-0.2018,-0.2431,-0.2691,-0.3032,-0.3156,-0.3431,-0.4123,-0.3687,-0.366,-0.4033,-0.3978,-0.3951,-0.3951,-0.3951,-0.3951,-0.3951,-0.3951,-0.3951,-0.3951,-0.3951,-0.3951,-0.3951,-0.3951,-0.3913,-0.3853,-0.379,-0.373,-0.3662,-0.3213,-0.2921,-0.2551,-0.2192,-0.1845,-0.1617,-0.1617,-0.0909,-0.0,0.0,0.1023,0.2186,0.2545,0.2808,0.3174,0.339,0.3589,0.3679,0.3679,0.3774,0.3858,0.3497,0.3173,0.2851,0.2517,0.2271,0.203,0.206,0.209,0.1582,0.0132,0.0,0.0,0.0,0.0673,0.1089,0.1259,0.1824,0.2283,0.2372,0.2379,0.2405,0.2466,0.2497,0.2514,0.2514,0.2514,0.1728,0.0,-0.1728,-0.2514,-0.2514,-0.2515,-0.253,-0.256,-0.3038,-0.3237,-0.3309,-0.4301,-0.466,-0.4715,-0.528,-0.5474,-0.5488,-0.6133,-0.618,-0.5836,-0.7321,-0.7628,-0.7579,-0.2076,-0.2339,-0.2489,-0.3007,-0.232,-0.1732,-0.2001,-0.1242,-0.1119,-0.1906,-0.2009,-0.1994,-0.1881,-0.1997,-0.1986,-0.1977,-0.1994,-0.2019,-0.2049,-0.2422,-0.2535,-0.2651,-0.2933,-0.334,-0.3737,-0.356,-0.3643,-0.3976,-0.3959,-0.3951,-0.3951,-0.3951,-0.3951,-0.3951,-0.3951,-0.3951,-0.3948,-0.3905,-0.3913,-0.382,-0.3615,-0.3455,-0.3433,-0.3379,-0.3322,-0.3265,-0.3198,-0.2921,-0.2551,-0.2192,-0.1845,-0.1617,-0.1617,-0.1112,-0.0404,0.0101,0.1023,0.1978,0.2651,0.3129,0.3397,0.355,0.3619,0.3689,0.3733,0.3685,0.3507,0.3424,0.2977,0.2644,0.2556,0.2326,0.1961,0.1459,0.1868,0.1605,0.0268,0.0,0.0,0.0,0.1102,0.1954,0.1847,0.217,0.2349,0.2376,0.2417,0.2459,0.2499,0.251,0.2514,0.2514,0.2514,0.1886,0.0628,-0.1414,-0.2514,-0.2515,-0.2536,-0.2551,-0.2562,-0.2764,-0.2958,-0.3311,-0.4003,-0.4191,-0.4208,-0.511,-0.5327,-0.5199,-0.5621,-0.603,-0.6249,-0.6806,-0.7446,-0.7951,-0.1968,-0.2355,-0.2631,-0.3037,-0.2329,-0.1612,-0.1259,-0.0997,-0.0872,-0.1148,-0.1504,-0.186,-0.2128,-0.1988,-0.1977,-0.1977,-0.2003,-0.2022,-0.228,-0.2288,-0.2539,-0.2902,-0.2945,-0.3209,-0.3548,-0.3392,-0.3489,-0.3951,-0.3951,-0.3951,-0.3951,-0.3951,-0.3951,-0.3951,-0.3951,-0.3951,-0.3946,-0.3886,-0.3894,-0.3694,-0.3579,-0.3296,-0.3056,-0.3121,-0.3072,-0.2908,-0.2839,-0.2582,-0.2335,-0.207,-0.1732,-0.1617,-0.1617,-0.1213,-0.0708,0.0,0.0827,0.1684,0.2572,0.3052,0.3434,0.3608,0.367,0.373,0.379,0.3749,0.3569,0.3355,0.3024,0.2685,0.2465,0.2228,0.1854,0.1209,0.1212,0.1077,0.0135,0.0,0.0,0.0,0.1113,0.1979,0.2305,0.2339,0.2375,0.2412,0.2459,0.2495,0.2514,0.2514,0.2514,0.2514,0.2514,0.2047,0.0949,-0.0633,-0.1899,-0.2533,-0.2563,-0.2583,-0.2596,-0.2631,-0.282,-0.3166,-0.3523,-0.3877,-0.4066,-0.4969,-0.5199,-0.5253,-0.5486,-0.5706,-0.5918,-0.6097,-0.6722,-0.7582,-0.1524,-0.2147,-0.2669,-0.2829,-0.296,-0.2357,-0.0505,-0.1124,-0.1367,-0.0126,-0.0749,-0.1482,-0.1977,-0.1977,-0.1977,-0.1977,-0.2003,-0.2134,-0.2479,-0.2285,-0.243,-0.328,-0.319,-0.3173,-0.3458,-0.3213,-0.3337,-0.3951,-0.3951,-0.3951,-0.3951,-0.3951,-0.3951,-0.3951,-0.3951,-0.3828,-0.3822,-0.388,-0.3643,-0.3439,-0.3567,-0.3286,-0.2815,-0.2999,-0.2954,-0.2571,-0.2267,-0.2238,-0.212,-0.174,-0.1617,-0.1617,-0.1617,-0.1213,-0.071,-0.0103,0.063,0.1497,0.2395,0.2881,0.327,0.367,0.3733,0.379,0.3847,0.3951,0.3784,0.3156,0.3069,0.2856,0.2235,0.2112,0.1857,0.1209,0.0539,0.0,0.0,0.0,0.0,0.0138,0.0698,0.1563,0.2334,0.2343,0.238,0.2466,0.2499,0.2515,0.2518,0.2518,0.2519,0.2522,0.2522,0.2219,0.1442,0.0481,-0.0801,-0.2404,-0.2594,-0.2622,-0.2647,-0.265,-0.2667,-0.2692,-0.3202,-0.3558,-0.3936,-0.4677,-0.5078,-0.5657,-0.5538,-0.538,-0.5022,-0.5383,-0.5999,-0.666,-0.0346,-0.1539,-0.2539,-0.2182,-0.2571,-0.2616,-0.1665,-0.088,-0.0374,-0.0,-0.0628,-0.1358,-0.1977,-0.1977,-0.1977,-0.1977,-0.2003,-0.2026,-0.2171,-0.2034,-0.2152,-0.2271,-0.2753,-0.3107,-0.3455,-0.3743,-0.387,-0.3951,-0.3951,-0.3951,-0.3951,-0.3951,-0.3951,-0.3951,-0.3951,-0.3828,-0.3574,-0.3475,-0.3224,-0.3017,-0.2657,-0.2515,-0.2424,-0.2383,-0.2363,-0.2345,-0.2267,-0.2238,-0.212,-0.174,-0.1617,-0.1617,-0.1617,-0.1213,-0.0608,0.0103,0.0945,0.1925,0.2721,0.3243,0.3558,0.3733,0.3796,0.3845,0.3858,0.3951,0.3784,0.3156,0.3093,0.289,0.2241,0.2129,0.2013,0.148,0.0539,0.0,0.0,0.0,0.0277,0.0849,0.1138,0.1584,0.2364,0.2412,0.261,0.2967,0.2667,0.2682,0.3024,0.2709,0.256,0.2582,0.2585,0.2427,0.227,0.0818,-0.0164,-0.0649,-0.1967,-0.2641,-0.2647,-0.2672,-0.2686,-0.2694,-0.3228,-0.3244,-0.3084,-0.4018,-0.4408,-0.4597,-0.4646,-0.4845,-0.5022,-0.4666,-0.527,-0.6302,-0.0,-0.072,-0.1342,-0.1464,-0.1719,-0.199,-0.2038,-0.1128,-0.0498,-0.051,-0.0752,-0.1235,-0.1977,-0.1977,-0.1853,-0.173,-0.1865,-0.2005,-0.2022,-0.2007,-0.2123,-0.2496,-0.3096,-0.3576,-0.3948,-0.4472,-0.4475,-0.4195,-0.4195,-0.4071,-0.3951,-0.3951,-0.3951,-0.3951,-0.3951,-0.3689,-0.3413,-0.3331,-0.3076,-0.2614,-0.2511,-0.2266,-0.2067,-0.2145,-0.2132,-0.2011,-0.1942,-0.1897,-0.1865,-0.1628,-0.1617,-0.162,-0.1635,-0.1229,-0.0617,0.0,0.0856,0.1841,0.2645,0.3157,0.3462,0.3755,0.3815,0.3875,0.3932,0.4014,0.396,0.3472,0.3279,0.2929,0.253,0.2278,0.2019,0.1481,0.1219,0.0818,0.0137,0.0,0.0282,0.1143,0.1151,0.146,0.2394,0.2455,0.2652,0.3139,0.2685,0.2701,0.3195,0.2892,0.2586,0.2601,0.2604,0.2286,0.1969,0.1486,0.0828,-0.0,-0.1331,-0.2168,-0.2669,-0.2686,-0.2701,-0.2716,-0.2901,-0.3098,-0.313,-0.3868,-0.4252,-0.4275,-0.4476,-0.4664,-0.4664,-0.4128,-0.4546,-0.5382,0.0,0.0,-0.0123,-0.0617,-0.0864,-0.1242,-0.1892,-0.1497,-0.1117,-0.1135,-0.1122,-0.1358,-0.1977,-0.1977,-0.1853,-0.1482,-0.173,-0.1977,-0.1977,-0.1977,-0.2224,-0.2839,-0.3576,-0.4069,-0.4315,-0.5053,-0.5176,-0.4438,-0.4438,-0.4318,-0.3948,-0.3951,-0.3951,-0.3951,-0.3951,-0.3671,-0.3252,-0.3201,-0.2823,-0.2341,-0.25,-0.2263,-0.1829,-0.203,-0.202,-0.1787,-0.1726,-0.1666,-0.1617,-0.1617,-0.1621,-0.1629,-0.155,-0.1249,-0.063,0.0,0.0765,0.1647,0.2578,0.3079,0.3359,0.3768,0.3837,0.3918,0.4025,0.409,0.4013,0.3808,0.3464,0.3094,0.2828,0.2425,0.2022,0.1621,0.1911,0.179,0.0553,0.0141,0.0287,0.1149,0.131,0.1631,0.2425,0.2481,0.2672,0.3149,0.2862,0.2883,0.3215,0.292,0.2612,0.2617,0.2619,0.2138,0.1328,0.2159,0.1668,-0.0,-0.0673,-0.1682,-0.2692,-0.2698,-0.2714,-0.2739,-0.2748,-0.2955,-0.3357,-0.3902,-0.4103,-0.4128,-0.4493,-0.4497,-0.4142,-0.3794,-0.4024,-0.4467,0.012,0.0,0.0123,0.0617,-0.0247,-0.1242,-0.1892,-0.1871,-0.1863,-0.1892,-0.1871,-0.1853,-0.1977,-0.1977,-0.1977,-0.1853,-0.1977,-0.1977,-0.1977,-0.1977,-0.21,-0.21,-0.333,-0.3943,-0.3943,-0.5176,-0.5548,-0.481,-0.4564,-0.4438,-0.4315,-0.4071,-0.3951,-0.3951,-0.3951,-0.3549,-0.3011,-0.2962,-0.2569,-0.1843,-0.1922,-0.191,-0.1801,-0.1797,-0.1795,-0.1787,-0.1726,-0.1666,-0.1617,-0.1617,-0.1635,-0.1553,-0.1038,-0.0944,-0.0639,0.0761,0.1421,0.1871,0.2839,0.3361,0.3771,0.3834,0.3929,0.403,0.4098,0.412,0.4013,0.3808,0.3464,0.3094,0.2828,0.2425,0.2163,0.2053,0.2198,0.2079,0.1987,0.0857,0.0288,0.1163,0.1783,0.2274,0.2459,0.2493,0.2682,0.3186,0.3193,0.3225,0.329,0.3299,0.2984,0.2679,0.268,0.2179,0.1343,0.2016,0.1682,-0.0,-0.0168,-0.101,-0.2694,-0.272,-0.2733,-0.274,-0.2793,-0.2821,-0.2831,-0.3063,-0.3253,-0.3592,-0.3262,-0.3456,-0.3646,-0.3713,-0.3743,-0.4132,0.1324,0.0611,0.0247,0.0864,0.0247,-0.0742,-0.187,-0.1985,-0.1981,-0.1994,-0.1985,-0.1977,-0.1977,-0.1606,-0.1606,-0.1977,-0.1977,-0.1977,-0.1977,-0.1977,-0.2099,-0.2222,-0.333,-0.3943,-0.4192,-0.5298,-0.5794,-0.5425,-0.5176,-0.4807,-0.4438,-0.4195,-0.4071,-0.3951,-0.3951,-0.3532,-0.2854,-0.2951,-0.2437,-0.1813,-0.18,-0.1795,-0.1795,-0.1795,-0.1795,-0.1787,-0.1403,-0.1355,-0.1617,-0.1617,-0.1637,-0.1561,-0.1366,-0.0746,0.0108,0.0441,0.122,0.2119,0.2739,0.3255,0.3546,0.3845,0.3948,0.4052,0.4112,0.4153,0.4194,0.3988,0.3617,0.3094,0.2961,0.2574,0.2184,0.2198,0.195,0.1835,0.1858,0.1441,0.1163,0.0589,0.1649,0.2435,0.2466,0.2668,0.3021,0.3195,0.3236,0.3275,0.3307,0.3163,0.2846,0.2692,0.2692,0.2188,0.1346,0.1179,0.0676,0.0,0.0,-0.068,-0.2038,-0.256,-0.2757,-0.2791,-0.2816,-0.2846,-0.2879,-0.3087,-0.3283,-0.3286,-0.3282,-0.328,-0.329,-0.3357,-0.3571,-0.3956]}]]